<?xml version="1.0" encoding="UTF-8" standalone="no" ?>
<gpx xmlns="http://www.topografix.com/GPX/1/1" xmlns:xsi="http://www.w3.org/2001/XMLSchema-instance" xsi:schemaLocation="http://www.topografix.com/GPX/1/1 http://www.topografix.com/GPX/1/1/gpx.xsd" version="1.1" creator="VisuGPX - https://www.visugpx.com">
  <metadata>
    <name>Traversata Tre Cime Lavaredo (Dreizinnen) Sasso di Sesto (Sextnerstein)</name>
    <desc><![CDATA[Traversata Tre Cime Lavaredo (Dreizinnen) Sasso di Sesto (Sextnerstein);
Rifugio Lago d'Antorno - Val Fiscalina]]></desc>
  </metadata>
  <trk>
    <name><![CDATA[Trav_3_Cime_Lavaredo_Sasso_Sesto_23_02_2015]]></name>
    <trkseg>
      <trkpt lat="46.59442" lon="12.26407">
        <ele>1875.19</ele>
        <time>2015-02-23T07:20:03Z</time>
      </trkpt>
      <trkpt lat="46.59441" lon="12.26407">
        <ele>1873.27</ele>
        <time>2015-02-23T07:20:08Z</time>
      </trkpt>
      <trkpt lat="46.59439" lon="12.26408">
        <ele>1873.27</ele>
        <time>2015-02-23T07:20:40Z</time>
      </trkpt>
      <trkpt lat="46.59437" lon="12.26407">
        <ele>1873.75</ele>
        <time>2015-02-23T07:21:06Z</time>
      </trkpt>
      <trkpt lat="46.59438" lon="12.26407">
        <ele>1873.27</ele>
        <time>2015-02-23T07:21:30Z</time>
      </trkpt>
      <trkpt lat="46.59439" lon="12.26407">
        <ele>1873.75</ele>
        <time>2015-02-23T07:21:56Z</time>
      </trkpt>
      <trkpt lat="46.5944" lon="12.26407">
        <ele>1873.75</ele>
        <time>2015-02-23T07:22:31Z</time>
      </trkpt>
      <trkpt lat="46.59438" lon="12.26406">
        <ele>1874.23</ele>
        <time>2015-02-23T07:23:14Z</time>
      </trkpt>
      <trkpt lat="46.59439" lon="12.26407">
        <ele>1874.23</ele>
        <time>2015-02-23T07:24:02Z</time>
      </trkpt>
      <trkpt lat="46.59439" lon="12.26409">
        <ele>1874.71</ele>
        <time>2015-02-23T07:24:40Z</time>
      </trkpt>
      <trkpt lat="46.59439" lon="12.26408">
        <ele>1874.71</ele>
        <time>2015-02-23T07:25:11Z</time>
      </trkpt>
      <trkpt lat="46.5944" lon="12.26407">
        <ele>1874.71</ele>
        <time>2015-02-23T07:25:44Z</time>
      </trkpt>
      <trkpt lat="46.59441" lon="12.26407">
        <ele>1874.71</ele>
        <time>2015-02-23T07:26:12Z</time>
      </trkpt>
      <trkpt lat="46.5944" lon="12.26409">
        <ele>1874.71</ele>
        <time>2015-02-23T07:26:32Z</time>
      </trkpt>
      <trkpt lat="46.59442" lon="12.26406">
        <ele>1876.63</ele>
        <time>2015-02-23T07:26:49Z</time>
      </trkpt>
      <trkpt lat="46.59443" lon="12.26407">
        <ele>1875.67</ele>
        <time>2015-02-23T07:27:03Z</time>
      </trkpt>
      <trkpt lat="46.59443" lon="12.26407">
        <ele>1875.67</ele>
        <time>2015-02-23T07:27:15Z</time>
      </trkpt>
      <trkpt lat="46.59444" lon="12.26408">
        <ele>1876.15</ele>
        <time>2015-02-23T07:27:27Z</time>
      </trkpt>
      <trkpt lat="46.59444" lon="12.26407">
        <ele>1875.19</ele>
        <time>2015-02-23T07:27:48Z</time>
      </trkpt>
      <trkpt lat="46.59442" lon="12.26407">
        <ele>1875.19</ele>
        <time>2015-02-23T07:28:25Z</time>
      </trkpt>
      <trkpt lat="46.59447" lon="12.26408">
        <ele>1876.63</ele>
        <time>2015-02-23T07:28:43Z</time>
      </trkpt>
      <trkpt lat="46.59455" lon="12.26411">
        <ele>1876.63</ele>
        <time>2015-02-23T07:28:56Z</time>
      </trkpt>
      <trkpt lat="46.59466" lon="12.26418">
        <ele>1876.15</ele>
        <time>2015-02-23T07:29:10Z</time>
      </trkpt>
      <trkpt lat="46.59468" lon="12.26414">
        <ele>1876.15</ele>
        <time>2015-02-23T07:29:23Z</time>
      </trkpt>
      <trkpt lat="46.59471" lon="12.26411">
        <ele>1876.63</ele>
        <time>2015-02-23T07:29:37Z</time>
      </trkpt>
      <trkpt lat="46.59472" lon="12.26417">
        <ele>1876.63</ele>
        <time>2015-02-23T07:29:51Z</time>
      </trkpt>
      <trkpt lat="46.59485" lon="12.26425">
        <ele>1876.15</ele>
        <time>2015-02-23T07:30:06Z</time>
      </trkpt>
      <trkpt lat="46.59497" lon="12.26431">
        <ele>1875.67</ele>
        <time>2015-02-23T07:30:20Z</time>
      </trkpt>
      <trkpt lat="46.59506" lon="12.26439">
        <ele>1876.15</ele>
        <time>2015-02-23T07:30:30Z</time>
      </trkpt>
      <trkpt lat="46.59515" lon="12.26447">
        <ele>1876.15</ele>
        <time>2015-02-23T07:30:40Z</time>
      </trkpt>
      <trkpt lat="46.59529" lon="12.26457">
        <ele>1876.15</ele>
        <time>2015-02-23T07:30:55Z</time>
      </trkpt>
      <trkpt lat="46.59537" lon="12.26463">
        <ele>1876.63</ele>
        <time>2015-02-23T07:31:10Z</time>
      </trkpt>
      <trkpt lat="46.59541" lon="12.26468">
        <ele>1876.15</ele>
        <time>2015-02-23T07:31:15Z</time>
      </trkpt>
      <trkpt lat="46.5955" lon="12.26476">
        <ele>1876.63</ele>
        <time>2015-02-23T07:31:25Z</time>
      </trkpt>
      <trkpt lat="46.59564" lon="12.26495">
        <ele>1877.11</ele>
        <time>2015-02-23T07:31:44Z</time>
      </trkpt>
      <trkpt lat="46.59579" lon="12.26507">
        <ele>1877.11</ele>
        <time>2015-02-23T07:31:59Z</time>
      </trkpt>
      <trkpt lat="46.59591" lon="12.26517">
        <ele>1877.11</ele>
        <time>2015-02-23T07:32:12Z</time>
      </trkpt>
      <trkpt lat="46.59594" lon="12.26518">
        <ele>1877.59</ele>
        <time>2015-02-23T07:32:16Z</time>
      </trkpt>
      <trkpt lat="46.59601" lon="12.26531">
        <ele>1877.59</ele>
        <time>2015-02-23T07:32:26Z</time>
      </trkpt>
      <trkpt lat="46.59603" lon="12.26532">
        <ele>1877.11</ele>
        <time>2015-02-23T07:32:28Z</time>
      </trkpt>
      <trkpt lat="46.59612" lon="12.26542">
        <ele>1877.59</ele>
        <time>2015-02-23T07:32:38Z</time>
      </trkpt>
      <trkpt lat="46.59617" lon="12.2655">
        <ele>1877.59</ele>
        <time>2015-02-23T07:32:45Z</time>
      </trkpt>
      <trkpt lat="46.59623" lon="12.26561">
        <ele>1878.07</ele>
        <time>2015-02-23T07:32:55Z</time>
      </trkpt>
      <trkpt lat="46.59629" lon="12.26578">
        <ele>1878.55</ele>
        <time>2015-02-23T07:33:09Z</time>
      </trkpt>
      <trkpt lat="46.59633" lon="12.26597">
        <ele>1879.03</ele>
        <time>2015-02-23T07:33:23Z</time>
      </trkpt>
      <trkpt lat="46.59635" lon="12.26607">
        <ele>1879.51</ele>
        <time>2015-02-23T07:33:30Z</time>
      </trkpt>
      <trkpt lat="46.59644" lon="12.26626">
        <ele>1880</ele>
        <time>2015-02-23T07:33:45Z</time>
      </trkpt>
      <trkpt lat="46.59648" lon="12.2663">
        <ele>1880.48</ele>
        <time>2015-02-23T07:33:50Z</time>
      </trkpt>
      <trkpt lat="46.59661" lon="12.26639">
        <ele>1880.48</ele>
        <time>2015-02-23T07:34:05Z</time>
      </trkpt>
      <trkpt lat="46.59662" lon="12.2664">
        <ele>1880.96</ele>
        <time>2015-02-23T07:34:06Z</time>
      </trkpt>
      <trkpt lat="46.59664" lon="12.26641">
        <ele>1880.96</ele>
        <time>2015-02-23T07:34:08Z</time>
      </trkpt>
      <trkpt lat="46.59666" lon="12.26642">
        <ele>1880.96</ele>
        <time>2015-02-23T07:34:10Z</time>
      </trkpt>
      <trkpt lat="46.59681" lon="12.26653">
        <ele>1881.44</ele>
        <time>2015-02-23T07:34:27Z</time>
      </trkpt>
      <trkpt lat="46.59693" lon="12.2667">
        <ele>1881.92</ele>
        <time>2015-02-23T07:34:43Z</time>
      </trkpt>
      <trkpt lat="46.59702" lon="12.2669">
        <ele>1881.44</ele>
        <time>2015-02-23T07:34:57Z</time>
      </trkpt>
      <trkpt lat="46.59708" lon="12.26711">
        <ele>1881.44</ele>
        <time>2015-02-23T07:35:12Z</time>
      </trkpt>
      <trkpt lat="46.59715" lon="12.26737">
        <ele>1880.48</ele>
        <time>2015-02-23T07:35:29Z</time>
      </trkpt>
      <trkpt lat="46.59717" lon="12.26768">
        <ele>1880</ele>
        <time>2015-02-23T07:35:48Z</time>
      </trkpt>
      <trkpt lat="46.59716" lon="12.26777">
        <ele>1879.51</ele>
        <time>2015-02-23T07:35:55Z</time>
      </trkpt>
      <trkpt lat="46.59712" lon="12.26802">
        <ele>1879.03</ele>
        <time>2015-02-23T07:36:10Z</time>
      </trkpt>
      <trkpt lat="46.59705" lon="12.26827">
        <ele>1878.07</ele>
        <time>2015-02-23T07:36:24Z</time>
      </trkpt>
      <trkpt lat="46.59699" lon="12.26851">
        <ele>1877.11</ele>
        <time>2015-02-23T07:36:38Z</time>
      </trkpt>
      <trkpt lat="46.59698" lon="12.26858">
        <ele>1876.63</ele>
        <time>2015-02-23T07:36:50Z</time>
      </trkpt>
      <trkpt lat="46.59698" lon="12.2686">
        <ele>1876.63</ele>
        <time>2015-02-23T07:37:05Z</time>
      </trkpt>
      <trkpt lat="46.59702" lon="12.26879">
        <ele>1875.19</ele>
        <time>2015-02-23T07:37:19Z</time>
      </trkpt>
      <trkpt lat="46.59723" lon="12.2689">
        <ele>1873.27</ele>
        <time>2015-02-23T07:37:32Z</time>
      </trkpt>
      <trkpt lat="46.59756" lon="12.26898">
        <ele>1870.86</ele>
        <time>2015-02-23T07:37:49Z</time>
      </trkpt>
      <trkpt lat="46.5978" lon="12.2691">
        <ele>1869.42</ele>
        <time>2015-02-23T07:38:04Z</time>
      </trkpt>
      <trkpt lat="46.59793" lon="12.26914">
        <ele>1868.94</ele>
        <time>2015-02-23T07:38:18Z</time>
      </trkpt>
      <trkpt lat="46.59809" lon="12.26922">
        <ele>1867.98</ele>
        <time>2015-02-23T07:38:34Z</time>
      </trkpt>
      <trkpt lat="46.59827" lon="12.26931">
        <ele>1867.02</ele>
        <time>2015-02-23T07:38:49Z</time>
      </trkpt>
      <trkpt lat="46.59847" lon="12.26946">
        <ele>1865.58</ele>
        <time>2015-02-23T07:39:04Z</time>
      </trkpt>
      <trkpt lat="46.59871" lon="12.26962">
        <ele>1864.13</ele>
        <time>2015-02-23T07:39:22Z</time>
      </trkpt>
      <trkpt lat="46.59883" lon="12.26971">
        <ele>1863.65</ele>
        <time>2015-02-23T07:39:36Z</time>
      </trkpt>
      <trkpt lat="46.59909" lon="12.26978">
        <ele>1862.21</ele>
        <time>2015-02-23T07:39:56Z</time>
      </trkpt>
      <trkpt lat="46.59927" lon="12.2698">
        <ele>1861.25</ele>
        <time>2015-02-23T07:40:11Z</time>
      </trkpt>
      <trkpt lat="46.59944" lon="12.26984">
        <ele>1860.29</ele>
        <time>2015-02-23T07:40:26Z</time>
      </trkpt>
      <trkpt lat="46.59961" lon="12.26986">
        <ele>1859.33</ele>
        <time>2015-02-23T07:40:41Z</time>
      </trkpt>
      <trkpt lat="46.59974" lon="12.26986">
        <ele>1858.85</ele>
        <time>2015-02-23T07:40:54Z</time>
      </trkpt>
      <trkpt lat="46.59982" lon="12.26988">
        <ele>1858.37</ele>
        <time>2015-02-23T07:41:08Z</time>
      </trkpt>
      <trkpt lat="46.59982" lon="12.26989">
        <ele>1857.89</ele>
        <time>2015-02-23T07:41:27Z</time>
      </trkpt>
      <trkpt lat="46.59983" lon="12.26987">
        <ele>1857.89</ele>
        <time>2015-02-23T07:41:52Z</time>
      </trkpt>
      <trkpt lat="46.59995" lon="12.26997">
        <ele>1856.92</ele>
        <time>2015-02-23T07:42:06Z</time>
      </trkpt>
      <trkpt lat="46.59995" lon="12.26996">
        <ele>1855.96</ele>
        <time>2015-02-23T07:42:24Z</time>
      </trkpt>
      <trkpt lat="46.59994" lon="12.26999">
        <ele>1855.96</ele>
        <time>2015-02-23T07:42:49Z</time>
      </trkpt>
      <trkpt lat="46.59996" lon="12.26997">
        <ele>1857.4</ele>
        <time>2015-02-23T07:43:18Z</time>
      </trkpt>
      <trkpt lat="46.59995" lon="12.26998">
        <ele>1856.44</ele>
        <time>2015-02-23T07:43:38Z</time>
      </trkpt>
      <trkpt lat="46.59993" lon="12.26998">
        <ele>1856.92</ele>
        <time>2015-02-23T07:43:59Z</time>
      </trkpt>
      <trkpt lat="46.59996" lon="12.26997">
        <ele>1857.4</ele>
        <time>2015-02-23T07:44:22Z</time>
      </trkpt>
      <trkpt lat="46.60005" lon="12.26997">
        <ele>1856.92</ele>
        <time>2015-02-23T07:44:35Z</time>
      </trkpt>
      <trkpt lat="46.60005" lon="12.26999">
        <ele>1856.92</ele>
        <time>2015-02-23T07:44:50Z</time>
      </trkpt>
      <trkpt lat="46.60015" lon="12.26999">
        <ele>1856.44</ele>
        <time>2015-02-23T07:45:02Z</time>
      </trkpt>
      <trkpt lat="46.60038" lon="12.27008">
        <ele>1855.48</ele>
        <time>2015-02-23T07:45:17Z</time>
      </trkpt>
      <trkpt lat="46.60059" lon="12.2702">
        <ele>1854.04</ele>
        <time>2015-02-23T07:45:32Z</time>
      </trkpt>
      <trkpt lat="46.60078" lon="12.27049">
        <ele>1852.12</ele>
        <time>2015-02-23T07:45:49Z</time>
      </trkpt>
      <trkpt lat="46.60083" lon="12.271">
        <ele>1849.71</ele>
        <time>2015-02-23T07:46:08Z</time>
      </trkpt>
      <trkpt lat="46.60083" lon="12.2714">
        <ele>1847.31</ele>
        <time>2015-02-23T07:46:23Z</time>
      </trkpt>
      <trkpt lat="46.60085" lon="12.27175">
        <ele>1846.35</ele>
        <time>2015-02-23T07:46:37Z</time>
      </trkpt>
      <trkpt lat="46.6009" lon="12.27212">
        <ele>1845.39</ele>
        <time>2015-02-23T07:46:52Z</time>
      </trkpt>
      <trkpt lat="46.60095" lon="12.27232">
        <ele>1844.91</ele>
        <time>2015-02-23T07:47:01Z</time>
      </trkpt>
      <trkpt lat="46.60095" lon="12.27234">
        <ele>1844.91</ele>
        <time>2015-02-23T07:47:02Z</time>
      </trkpt>
      <trkpt lat="46.60096" lon="12.27236">
        <ele>1844.91</ele>
        <time>2015-02-23T07:47:03Z</time>
      </trkpt>
      <trkpt lat="46.60096" lon="12.27238">
        <ele>1844.91</ele>
        <time>2015-02-23T07:47:04Z</time>
      </trkpt>
      <trkpt lat="46.60097" lon="12.2724">
        <ele>1844.91</ele>
        <time>2015-02-23T07:47:05Z</time>
      </trkpt>
      <trkpt lat="46.60097" lon="12.27242">
        <ele>1844.91</ele>
        <time>2015-02-23T07:47:06Z</time>
      </trkpt>
      <trkpt lat="46.60098" lon="12.27245">
        <ele>1844.91</ele>
        <time>2015-02-23T07:47:07Z</time>
      </trkpt>
      <trkpt lat="46.60098" lon="12.27247">
        <ele>1844.43</ele>
        <time>2015-02-23T07:47:08Z</time>
      </trkpt>
      <trkpt lat="46.60099" lon="12.2725">
        <ele>1844.91</ele>
        <time>2015-02-23T07:47:09Z</time>
      </trkpt>
      <trkpt lat="46.60103" lon="12.27266">
        <ele>1844.43</ele>
        <time>2015-02-23T07:47:17Z</time>
      </trkpt>
      <trkpt lat="46.60103" lon="12.27268">
        <ele>1844.43</ele>
        <time>2015-02-23T07:47:18Z</time>
      </trkpt>
      <trkpt lat="46.60104" lon="12.2727">
        <ele>1844.43</ele>
        <time>2015-02-23T07:47:19Z</time>
      </trkpt>
      <trkpt lat="46.60104" lon="12.27272">
        <ele>1844.43</ele>
        <time>2015-02-23T07:47:20Z</time>
      </trkpt>
      <trkpt lat="46.60105" lon="12.27274">
        <ele>1844.43</ele>
        <time>2015-02-23T07:47:21Z</time>
      </trkpt>
      <trkpt lat="46.60111" lon="12.27311">
        <ele>1843.95</ele>
        <time>2015-02-23T07:47:37Z</time>
      </trkpt>
      <trkpt lat="46.60115" lon="12.27344">
        <ele>1842.98</ele>
        <time>2015-02-23T07:47:51Z</time>
      </trkpt>
      <trkpt lat="46.60118" lon="12.27362">
        <ele>1842.98</ele>
        <time>2015-02-23T07:47:59Z</time>
      </trkpt>
      <trkpt lat="46.60118" lon="12.27364">
        <ele>1843.47</ele>
        <time>2015-02-23T07:48:00Z</time>
      </trkpt>
      <trkpt lat="46.60119" lon="12.27366">
        <ele>1842.98</ele>
        <time>2015-02-23T07:48:01Z</time>
      </trkpt>
      <trkpt lat="46.60127" lon="12.27388">
        <ele>1843.47</ele>
        <time>2015-02-23T07:48:13Z</time>
      </trkpt>
      <trkpt lat="46.60137" lon="12.27406">
        <ele>1843.47</ele>
        <time>2015-02-23T07:48:25Z</time>
      </trkpt>
      <trkpt lat="46.60152" lon="12.27418">
        <ele>1843.95</ele>
        <time>2015-02-23T07:48:37Z</time>
      </trkpt>
      <trkpt lat="46.6017" lon="12.27428">
        <ele>1844.43</ele>
        <time>2015-02-23T07:48:51Z</time>
      </trkpt>
      <trkpt lat="46.6019" lon="12.27438">
        <ele>1844.43</ele>
        <time>2015-02-23T07:49:06Z</time>
      </trkpt>
      <trkpt lat="46.60205" lon="12.27448">
        <ele>1844.91</ele>
        <time>2015-02-23T07:49:20Z</time>
      </trkpt>
      <trkpt lat="46.60217" lon="12.27456">
        <ele>1845.39</ele>
        <time>2015-02-23T07:49:32Z</time>
      </trkpt>
      <trkpt lat="46.60229" lon="12.27465">
        <ele>1845.39</ele>
        <time>2015-02-23T07:49:46Z</time>
      </trkpt>
      <trkpt lat="46.60244" lon="12.27475">
        <ele>1845.87</ele>
        <time>2015-02-23T07:50:00Z</time>
      </trkpt>
      <trkpt lat="46.60258" lon="12.27484">
        <ele>1845.87</ele>
        <time>2015-02-23T07:50:15Z</time>
      </trkpt>
      <trkpt lat="46.60271" lon="12.27492">
        <ele>1846.35</ele>
        <time>2015-02-23T07:50:28Z</time>
      </trkpt>
      <trkpt lat="46.60283" lon="12.27499">
        <ele>1846.35</ele>
        <time>2015-02-23T07:50:41Z</time>
      </trkpt>
      <trkpt lat="46.60296" lon="12.27509">
        <ele>1846.83</ele>
        <time>2015-02-23T07:50:56Z</time>
      </trkpt>
      <trkpt lat="46.6031" lon="12.27519">
        <ele>1846.83</ele>
        <time>2015-02-23T07:51:10Z</time>
      </trkpt>
      <trkpt lat="46.60321" lon="12.27525">
        <ele>1847.31</ele>
        <time>2015-02-23T07:51:21Z</time>
      </trkpt>
      <trkpt lat="46.60322" lon="12.27526">
        <ele>1847.31</ele>
        <time>2015-02-23T07:51:22Z</time>
      </trkpt>
      <trkpt lat="46.60334" lon="12.2753">
        <ele>1847.31</ele>
        <time>2015-02-23T07:51:34Z</time>
      </trkpt>
      <trkpt lat="46.60339" lon="12.27532">
        <ele>1847.79</ele>
        <time>2015-02-23T07:51:40Z</time>
      </trkpt>
      <trkpt lat="46.60349" lon="12.27529">
        <ele>1847.79</ele>
        <time>2015-02-23T07:51:50Z</time>
      </trkpt>
      <trkpt lat="46.60358" lon="12.27519">
        <ele>1848.75</ele>
        <time>2015-02-23T07:52:03Z</time>
      </trkpt>
      <trkpt lat="46.60363" lon="12.27512">
        <ele>1849.23</ele>
        <time>2015-02-23T07:52:11Z</time>
      </trkpt>
      <trkpt lat="46.60374" lon="12.27499">
        <ele>1850.19</ele>
        <time>2015-02-23T07:52:26Z</time>
      </trkpt>
      <trkpt lat="46.60387" lon="12.27495">
        <ele>1851.16</ele>
        <time>2015-02-23T07:52:41Z</time>
      </trkpt>
      <trkpt lat="46.60399" lon="12.27504">
        <ele>1851.64</ele>
        <time>2015-02-23T07:52:55Z</time>
      </trkpt>
      <trkpt lat="46.60402" lon="12.27506">
        <ele>1852.12</ele>
        <time>2015-02-23T07:53:09Z</time>
      </trkpt>
      <trkpt lat="46.60408" lon="12.27514">
        <ele>1852.12</ele>
        <time>2015-02-23T07:53:16Z</time>
      </trkpt>
      <trkpt lat="46.60416" lon="12.27523">
        <ele>1852.6</ele>
        <time>2015-02-23T07:53:28Z</time>
      </trkpt>
      <trkpt lat="46.60433" lon="12.27532">
        <ele>1853.08</ele>
        <time>2015-02-23T07:53:46Z</time>
      </trkpt>
      <trkpt lat="46.60434" lon="12.27533">
        <ele>1853.08</ele>
        <time>2015-02-23T07:53:47Z</time>
      </trkpt>
      <trkpt lat="46.60449" lon="12.27533">
        <ele>1853.56</ele>
        <time>2015-02-23T07:54:02Z</time>
      </trkpt>
      <trkpt lat="46.60464" lon="12.27529">
        <ele>1854.52</ele>
        <time>2015-02-23T07:54:17Z</time>
      </trkpt>
      <trkpt lat="46.60481" lon="12.27531">
        <ele>1855</ele>
        <time>2015-02-23T07:54:35Z</time>
      </trkpt>
      <trkpt lat="46.60498" lon="12.27535">
        <ele>1855</ele>
        <time>2015-02-23T07:54:51Z</time>
      </trkpt>
      <trkpt lat="46.60515" lon="12.27541">
        <ele>1855.48</ele>
        <time>2015-02-23T07:55:07Z</time>
      </trkpt>
      <trkpt lat="46.60532" lon="12.2754">
        <ele>1855.96</ele>
        <time>2015-02-23T07:55:24Z</time>
      </trkpt>
      <trkpt lat="46.60547" lon="12.27535">
        <ele>1856.44</ele>
        <time>2015-02-23T07:55:38Z</time>
      </trkpt>
      <trkpt lat="46.60562" lon="12.27524">
        <ele>1855.96</ele>
        <time>2015-02-23T07:55:54Z</time>
      </trkpt>
      <trkpt lat="46.60573" lon="12.27508">
        <ele>1855.96</ele>
        <time>2015-02-23T07:56:09Z</time>
      </trkpt>
      <trkpt lat="46.60584" lon="12.27489">
        <ele>1856.44</ele>
        <time>2015-02-23T07:56:25Z</time>
      </trkpt>
      <trkpt lat="46.60586" lon="12.2748">
        <ele>1856.44</ele>
        <time>2015-02-23T07:56:37Z</time>
      </trkpt>
      <trkpt lat="46.60585" lon="12.27475">
        <ele>1856.44</ele>
        <time>2015-02-23T07:56:45Z</time>
      </trkpt>
      <trkpt lat="46.60586" lon="12.27473">
        <ele>1856.44</ele>
        <time>2015-02-23T07:56:46Z</time>
      </trkpt>
      <trkpt lat="46.60585" lon="12.27452">
        <ele>1856.92</ele>
        <time>2015-02-23T07:57:00Z</time>
      </trkpt>
      <trkpt lat="46.60582" lon="12.27434">
        <ele>1857.89</ele>
        <time>2015-02-23T07:57:13Z</time>
      </trkpt>
      <trkpt lat="46.60577" lon="12.27417">
        <ele>1858.37</ele>
        <time>2015-02-23T07:57:26Z</time>
      </trkpt>
      <trkpt lat="46.60574" lon="12.27399">
        <ele>1859.33</ele>
        <time>2015-02-23T07:57:40Z</time>
      </trkpt>
      <trkpt lat="46.6057" lon="12.27382">
        <ele>1860.29</ele>
        <time>2015-02-23T07:57:54Z</time>
      </trkpt>
      <trkpt lat="46.60567" lon="12.27372">
        <ele>1861.25</ele>
        <time>2015-02-23T07:58:06Z</time>
      </trkpt>
      <trkpt lat="46.60565" lon="12.27366">
        <ele>1860.77</ele>
        <time>2015-02-23T07:58:20Z</time>
      </trkpt>
      <trkpt lat="46.60564" lon="12.27363">
        <ele>1860.77</ele>
        <time>2015-02-23T07:58:35Z</time>
      </trkpt>
      <trkpt lat="46.60571" lon="12.27368">
        <ele>1860.77</ele>
        <time>2015-02-23T07:58:49Z</time>
      </trkpt>
      <trkpt lat="46.60573" lon="12.27374">
        <ele>1860.77</ele>
        <time>2015-02-23T07:59:03Z</time>
      </trkpt>
      <trkpt lat="46.60578" lon="12.27379">
        <ele>1860.77</ele>
        <time>2015-02-23T07:59:16Z</time>
      </trkpt>
      <trkpt lat="46.60582" lon="12.27375">
        <ele>1861.25</ele>
        <time>2015-02-23T07:59:28Z</time>
      </trkpt>
      <trkpt lat="46.6058" lon="12.27374">
        <ele>1861.25</ele>
        <time>2015-02-23T07:59:45Z</time>
      </trkpt>
      <trkpt lat="46.6058" lon="12.27374">
        <ele>1861.25</ele>
        <time>2015-02-23T08:00:09Z</time>
      </trkpt>
      <trkpt lat="46.60577" lon="12.27371">
        <ele>1861.25</ele>
        <time>2015-02-23T08:00:19Z</time>
      </trkpt>
      <trkpt lat="46.6057" lon="12.27367">
        <ele>1860.77</ele>
        <time>2015-02-23T08:00:32Z</time>
      </trkpt>
      <trkpt lat="46.6057" lon="12.27367">
        <ele>1860.77</ele>
        <time>2015-02-23T08:00:51Z</time>
      </trkpt>
      <trkpt lat="46.60572" lon="12.27373">
        <ele>1860.77</ele>
        <time>2015-02-23T08:01:09Z</time>
      </trkpt>
      <trkpt lat="46.60573" lon="12.27376">
        <ele>1860.77</ele>
        <time>2015-02-23T08:01:26Z</time>
      </trkpt>
      <trkpt lat="46.60575" lon="12.27379">
        <ele>1860.77</ele>
        <time>2015-02-23T08:01:39Z</time>
      </trkpt>
      <trkpt lat="46.60585" lon="12.27378">
        <ele>1861.25</ele>
        <time>2015-02-23T08:01:52Z</time>
      </trkpt>
      <trkpt lat="46.60597" lon="12.27376">
        <ele>1862.21</ele>
        <time>2015-02-23T08:02:06Z</time>
      </trkpt>
      <trkpt lat="46.60604" lon="12.27375">
        <ele>1863.17</ele>
        <time>2015-02-23T08:02:16Z</time>
      </trkpt>
      <trkpt lat="46.60617" lon="12.27372">
        <ele>1865.09</ele>
        <time>2015-02-23T08:02:32Z</time>
      </trkpt>
      <trkpt lat="46.60626" lon="12.27367">
        <ele>1866.06</ele>
        <time>2015-02-23T08:02:42Z</time>
      </trkpt>
      <trkpt lat="46.60635" lon="12.27357">
        <ele>1867.5</ele>
        <time>2015-02-23T08:02:55Z</time>
      </trkpt>
      <trkpt lat="46.60644" lon="12.27347">
        <ele>1868.94</ele>
        <time>2015-02-23T08:03:10Z</time>
      </trkpt>
      <trkpt lat="46.60653" lon="12.2734">
        <ele>1870.38</ele>
        <time>2015-02-23T08:03:24Z</time>
      </trkpt>
      <trkpt lat="46.60666" lon="12.27331">
        <ele>1871.82</ele>
        <time>2015-02-23T08:03:42Z</time>
      </trkpt>
      <trkpt lat="46.60676" lon="12.27324">
        <ele>1873.27</ele>
        <time>2015-02-23T08:03:58Z</time>
      </trkpt>
      <trkpt lat="46.60684" lon="12.27323">
        <ele>1873.75</ele>
        <time>2015-02-23T08:04:11Z</time>
      </trkpt>
      <trkpt lat="46.60693" lon="12.27327">
        <ele>1875.19</ele>
        <time>2015-02-23T08:04:22Z</time>
      </trkpt>
      <trkpt lat="46.607" lon="12.27335">
        <ele>1876.15</ele>
        <time>2015-02-23T08:04:32Z</time>
      </trkpt>
      <trkpt lat="46.60702" lon="12.27349">
        <ele>1877.59</ele>
        <time>2015-02-23T08:04:45Z</time>
      </trkpt>
      <trkpt lat="46.60697" lon="12.27367">
        <ele>1879.03</ele>
        <time>2015-02-23T08:05:01Z</time>
      </trkpt>
      <trkpt lat="46.60695" lon="12.27372">
        <ele>1879.51</ele>
        <time>2015-02-23T08:05:06Z</time>
      </trkpt>
      <trkpt lat="46.60689" lon="12.27389">
        <ele>1880.96</ele>
        <time>2015-02-23T08:05:22Z</time>
      </trkpt>
      <trkpt lat="46.60684" lon="12.27398">
        <ele>1881.92</ele>
        <time>2015-02-23T08:05:36Z</time>
      </trkpt>
      <trkpt lat="46.60678" lon="12.27411">
        <ele>1883.84</ele>
        <time>2015-02-23T08:05:50Z</time>
      </trkpt>
      <trkpt lat="46.60672" lon="12.27424">
        <ele>1885.28</ele>
        <time>2015-02-23T08:06:05Z</time>
      </trkpt>
      <trkpt lat="46.60663" lon="12.27436">
        <ele>1889.13</ele>
        <time>2015-02-23T08:06:21Z</time>
      </trkpt>
      <trkpt lat="46.60658" lon="12.2745">
        <ele>1889.13</ele>
        <time>2015-02-23T08:06:36Z</time>
      </trkpt>
      <trkpt lat="46.60657" lon="12.27458">
        <ele>1890.09</ele>
        <time>2015-02-23T08:06:49Z</time>
      </trkpt>
      <trkpt lat="46.60658" lon="12.27463">
        <ele>1890.09</ele>
        <time>2015-02-23T08:06:54Z</time>
      </trkpt>
      <trkpt lat="46.6067" lon="12.27473">
        <ele>1891.53</ele>
        <time>2015-02-23T08:07:10Z</time>
      </trkpt>
      <trkpt lat="46.60677" lon="12.27473">
        <ele>1892.49</ele>
        <time>2015-02-23T08:07:18Z</time>
      </trkpt>
      <trkpt lat="46.60693" lon="12.27473">
        <ele>1894.9</ele>
        <time>2015-02-23T08:07:35Z</time>
      </trkpt>
      <trkpt lat="46.60707" lon="12.27473">
        <ele>1896.82</ele>
        <time>2015-02-23T08:07:53Z</time>
      </trkpt>
      <trkpt lat="46.60718" lon="12.27483">
        <ele>1898.26</ele>
        <time>2015-02-23T08:08:08Z</time>
      </trkpt>
      <trkpt lat="46.60717" lon="12.27499">
        <ele>1901.63</ele>
        <time>2015-02-23T08:08:22Z</time>
      </trkpt>
      <trkpt lat="46.60716" lon="12.275">
        <ele>1900.18</ele>
        <time>2015-02-23T08:08:24Z</time>
      </trkpt>
      <trkpt lat="46.60708" lon="12.27513">
        <ele>1902.11</ele>
        <time>2015-02-23T08:08:40Z</time>
      </trkpt>
      <trkpt lat="46.60702" lon="12.27528">
        <ele>1903.55</ele>
        <time>2015-02-23T08:08:54Z</time>
      </trkpt>
      <trkpt lat="46.60702" lon="12.27544">
        <ele>1904.99</ele>
        <time>2015-02-23T08:09:07Z</time>
      </trkpt>
      <trkpt lat="46.60707" lon="12.27561">
        <ele>1906.91</ele>
        <time>2015-02-23T08:09:22Z</time>
      </trkpt>
      <trkpt lat="46.60711" lon="12.27574">
        <ele>1908.35</ele>
        <time>2015-02-23T08:09:35Z</time>
      </trkpt>
      <trkpt lat="46.60715" lon="12.27591">
        <ele>1910.28</ele>
        <time>2015-02-23T08:09:49Z</time>
      </trkpt>
      <trkpt lat="46.6072" lon="12.27611">
        <ele>1912.2</ele>
        <time>2015-02-23T08:10:06Z</time>
      </trkpt>
      <trkpt lat="46.60723" lon="12.27625">
        <ele>1914.12</ele>
        <time>2015-02-23T08:10:20Z</time>
      </trkpt>
      <trkpt lat="46.60724" lon="12.27628">
        <ele>1916.04</ele>
        <time>2015-02-23T08:10:23Z</time>
      </trkpt>
      <trkpt lat="46.60729" lon="12.27638">
        <ele>1916.04</ele>
        <time>2015-02-23T08:10:36Z</time>
      </trkpt>
      <trkpt lat="46.60729" lon="12.27639">
        <ele>1914.6</ele>
        <time>2015-02-23T08:10:52Z</time>
      </trkpt>
      <trkpt lat="46.60728" lon="12.27638">
        <ele>1916.04</ele>
        <time>2015-02-23T08:11:27Z</time>
      </trkpt>
      <trkpt lat="46.60729" lon="12.27646">
        <ele>1917.01</ele>
        <time>2015-02-23T08:11:39Z</time>
      </trkpt>
      <trkpt lat="46.60729" lon="12.27662">
        <ele>1917.97</ele>
        <time>2015-02-23T08:11:50Z</time>
      </trkpt>
      <trkpt lat="46.60728" lon="12.27677">
        <ele>1919.41</ele>
        <time>2015-02-23T08:12:04Z</time>
      </trkpt>
      <trkpt lat="46.60728" lon="12.27691">
        <ele>1920.37</ele>
        <time>2015-02-23T08:12:17Z</time>
      </trkpt>
      <trkpt lat="46.60728" lon="12.27708">
        <ele>1921.81</ele>
        <time>2015-02-23T08:12:31Z</time>
      </trkpt>
      <trkpt lat="46.60728" lon="12.27725">
        <ele>1922.77</ele>
        <time>2015-02-23T08:12:44Z</time>
      </trkpt>
      <trkpt lat="46.60728" lon="12.2774">
        <ele>1924.22</ele>
        <time>2015-02-23T08:12:58Z</time>
      </trkpt>
      <trkpt lat="46.60728" lon="12.27757">
        <ele>1925.66</ele>
        <time>2015-02-23T08:13:13Z</time>
      </trkpt>
      <trkpt lat="46.60728" lon="12.27772">
        <ele>1926.62</ele>
        <time>2015-02-23T08:13:26Z</time>
      </trkpt>
      <trkpt lat="46.60727" lon="12.27787">
        <ele>1928.06</ele>
        <time>2015-02-23T08:13:39Z</time>
      </trkpt>
      <trkpt lat="46.60726" lon="12.27804">
        <ele>1929.02</ele>
        <time>2015-02-23T08:13:54Z</time>
      </trkpt>
      <trkpt lat="46.60732" lon="12.27818">
        <ele>1930.46</ele>
        <time>2015-02-23T08:14:08Z</time>
      </trkpt>
      <trkpt lat="46.60746" lon="12.27821">
        <ele>1931.91</ele>
        <time>2015-02-23T08:14:26Z</time>
      </trkpt>
      <trkpt lat="46.60756" lon="12.27812">
        <ele>1933.35</ele>
        <time>2015-02-23T08:14:42Z</time>
      </trkpt>
      <trkpt lat="46.60765" lon="12.27803">
        <ele>1934.79</ele>
        <time>2015-02-23T08:14:57Z</time>
      </trkpt>
      <trkpt lat="46.60774" lon="12.27793">
        <ele>1935.75</ele>
        <time>2015-02-23T08:15:12Z</time>
      </trkpt>
      <trkpt lat="46.60782" lon="12.27779">
        <ele>1937.67</ele>
        <time>2015-02-23T08:15:28Z</time>
      </trkpt>
      <trkpt lat="46.6079" lon="12.27765">
        <ele>1939.12</ele>
        <time>2015-02-23T08:15:46Z</time>
      </trkpt>
      <trkpt lat="46.60794" lon="12.27749">
        <ele>1941.04</ele>
        <time>2015-02-23T08:16:01Z</time>
      </trkpt>
      <trkpt lat="46.60798" lon="12.27737">
        <ele>1942</ele>
        <time>2015-02-23T08:16:13Z</time>
      </trkpt>
      <trkpt lat="46.60803" lon="12.27725">
        <ele>1945.36</ele>
        <time>2015-02-23T08:16:26Z</time>
      </trkpt>
      <trkpt lat="46.6081" lon="12.27712">
        <ele>1944.88</ele>
        <time>2015-02-23T08:16:40Z</time>
      </trkpt>
      <trkpt lat="46.60819" lon="12.27702">
        <ele>1946.33</ele>
        <time>2015-02-23T08:16:56Z</time>
      </trkpt>
      <trkpt lat="46.60826" lon="12.27691">
        <ele>1947.29</ele>
        <time>2015-02-23T08:17:10Z</time>
      </trkpt>
      <trkpt lat="46.60834" lon="12.2768">
        <ele>1948.25</ele>
        <time>2015-02-23T08:17:25Z</time>
      </trkpt>
      <trkpt lat="46.60845" lon="12.27678">
        <ele>1948.73</ele>
        <time>2015-02-23T08:17:40Z</time>
      </trkpt>
      <trkpt lat="46.60847" lon="12.27698">
        <ele>1949.69</ele>
        <time>2015-02-23T08:17:57Z</time>
      </trkpt>
      <trkpt lat="46.60841" lon="12.27708">
        <ele>1950.65</ele>
        <time>2015-02-23T08:18:08Z</time>
      </trkpt>
      <trkpt lat="46.60834" lon="12.27725">
        <ele>1951.13</ele>
        <time>2015-02-23T08:18:23Z</time>
      </trkpt>
      <trkpt lat="46.60828" lon="12.27741">
        <ele>1952.09</ele>
        <time>2015-02-23T08:18:38Z</time>
      </trkpt>
      <trkpt lat="46.60825" lon="12.27745">
        <ele>1952.57</ele>
        <time>2015-02-23T08:18:42Z</time>
      </trkpt>
      <trkpt lat="46.60821" lon="12.27761">
        <ele>1953.06</ele>
        <time>2015-02-23T08:18:55Z</time>
      </trkpt>
      <trkpt lat="46.60818" lon="12.27774">
        <ele>1954.02</ele>
        <time>2015-02-23T08:19:05Z</time>
      </trkpt>
      <trkpt lat="46.60814" lon="12.27793">
        <ele>1954.98</ele>
        <time>2015-02-23T08:19:21Z</time>
      </trkpt>
      <trkpt lat="46.60813" lon="12.27795">
        <ele>1954.98</ele>
        <time>2015-02-23T08:19:23Z</time>
      </trkpt>
      <trkpt lat="46.60811" lon="12.27808">
        <ele>1955.94</ele>
        <time>2015-02-23T08:19:33Z</time>
      </trkpt>
      <trkpt lat="46.60807" lon="12.27826">
        <ele>1956.9</ele>
        <time>2015-02-23T08:19:48Z</time>
      </trkpt>
      <trkpt lat="46.60804" lon="12.27841">
        <ele>1958.34</ele>
        <time>2015-02-23T08:20:01Z</time>
      </trkpt>
      <trkpt lat="46.60801" lon="12.27858">
        <ele>1958.82</ele>
        <time>2015-02-23T08:20:15Z</time>
      </trkpt>
      <trkpt lat="46.60798" lon="12.27876">
        <ele>1960.27</ele>
        <time>2015-02-23T08:20:30Z</time>
      </trkpt>
      <trkpt lat="46.60796" lon="12.2789">
        <ele>1961.23</ele>
        <time>2015-02-23T08:20:43Z</time>
      </trkpt>
      <trkpt lat="46.60794" lon="12.27908">
        <ele>1962.67</ele>
        <time>2015-02-23T08:20:58Z</time>
      </trkpt>
      <trkpt lat="46.60791" lon="12.27922">
        <ele>1963.63</ele>
        <time>2015-02-23T08:21:09Z</time>
      </trkpt>
      <trkpt lat="46.60789" lon="12.27937">
        <ele>1965.07</ele>
        <time>2015-02-23T08:21:23Z</time>
      </trkpt>
      <trkpt lat="46.60786" lon="12.27954">
        <ele>1966.03</ele>
        <time>2015-02-23T08:21:37Z</time>
      </trkpt>
      <trkpt lat="46.60785" lon="12.27968">
        <ele>1966.99</ele>
        <time>2015-02-23T08:21:50Z</time>
      </trkpt>
      <trkpt lat="46.60785" lon="12.27984">
        <ele>1968.44</ele>
        <time>2015-02-23T08:22:04Z</time>
      </trkpt>
      <trkpt lat="46.60783" lon="12.28">
        <ele>1969.88</ele>
        <time>2015-02-23T08:22:18Z</time>
      </trkpt>
      <trkpt lat="46.60783" lon="12.28013">
        <ele>1971.32</ele>
        <time>2015-02-23T08:22:31Z</time>
      </trkpt>
      <trkpt lat="46.60782" lon="12.28027">
        <ele>1972.28</ele>
        <time>2015-02-23T08:22:44Z</time>
      </trkpt>
      <trkpt lat="46.60781" lon="12.28043">
        <ele>1974.2</ele>
        <time>2015-02-23T08:22:59Z</time>
      </trkpt>
      <trkpt lat="46.60781" lon="12.2806">
        <ele>1975.65</ele>
        <time>2015-02-23T08:23:13Z</time>
      </trkpt>
      <trkpt lat="46.60783" lon="12.28072">
        <ele>1976.61</ele>
        <time>2015-02-23T08:23:27Z</time>
      </trkpt>
      <trkpt lat="46.60783" lon="12.28082">
        <ele>1977.57</ele>
        <time>2015-02-23T08:23:44Z</time>
      </trkpt>
      <trkpt lat="46.60783" lon="12.28087">
        <ele>1978.05</ele>
        <time>2015-02-23T08:23:48Z</time>
      </trkpt>
      <trkpt lat="46.60781" lon="12.28105">
        <ele>1979.97</ele>
        <time>2015-02-23T08:24:02Z</time>
      </trkpt>
      <trkpt lat="46.60779" lon="12.28122">
        <ele>1981.41</ele>
        <time>2015-02-23T08:24:15Z</time>
      </trkpt>
      <trkpt lat="46.60777" lon="12.28138">
        <ele>1982.86</ele>
        <time>2015-02-23T08:24:29Z</time>
      </trkpt>
      <trkpt lat="46.60777" lon="12.28139">
        <ele>1982.86</ele>
        <time>2015-02-23T08:24:30Z</time>
      </trkpt>
      <trkpt lat="46.60775" lon="12.28153">
        <ele>1984.78</ele>
        <time>2015-02-23T08:24:45Z</time>
      </trkpt>
      <trkpt lat="46.60771" lon="12.28168">
        <ele>1986.22</ele>
        <time>2015-02-23T08:24:59Z</time>
      </trkpt>
      <trkpt lat="46.60767" lon="12.28185">
        <ele>1987.66</ele>
        <time>2015-02-23T08:25:14Z</time>
      </trkpt>
      <trkpt lat="46.60767" lon="12.28201">
        <ele>1989.1</ele>
        <time>2015-02-23T08:25:29Z</time>
      </trkpt>
      <trkpt lat="46.60764" lon="12.28216">
        <ele>1990.55</ele>
        <time>2015-02-23T08:25:43Z</time>
      </trkpt>
      <trkpt lat="46.60764" lon="12.2822">
        <ele>1991.03</ele>
        <time>2015-02-23T08:25:47Z</time>
      </trkpt>
      <trkpt lat="46.60764" lon="12.28238">
        <ele>1992.95</ele>
        <time>2015-02-23T08:26:02Z</time>
      </trkpt>
      <trkpt lat="46.60765" lon="12.28253">
        <ele>1994.39</ele>
        <time>2015-02-23T08:26:18Z</time>
      </trkpt>
      <trkpt lat="46.60766" lon="12.28267">
        <ele>1997.28</ele>
        <time>2015-02-23T08:26:32Z</time>
      </trkpt>
      <trkpt lat="46.60769" lon="12.28283">
        <ele>1997.76</ele>
        <time>2015-02-23T08:26:50Z</time>
      </trkpt>
      <trkpt lat="46.60772" lon="12.28299">
        <ele>2001.12</ele>
        <time>2015-02-23T08:27:04Z</time>
      </trkpt>
      <trkpt lat="46.60775" lon="12.28315">
        <ele>2000.64</ele>
        <time>2015-02-23T08:27:20Z</time>
      </trkpt>
      <trkpt lat="46.60781" lon="12.28331">
        <ele>2002.56</ele>
        <time>2015-02-23T08:27:36Z</time>
      </trkpt>
      <trkpt lat="46.60786" lon="12.28346">
        <ele>2004.01</ele>
        <time>2015-02-23T08:27:49Z</time>
      </trkpt>
      <trkpt lat="46.60792" lon="12.28361">
        <ele>2005.93</ele>
        <time>2015-02-23T08:28:06Z</time>
      </trkpt>
      <trkpt lat="46.60796" lon="12.28375">
        <ele>2007.37</ele>
        <time>2015-02-23T08:28:20Z</time>
      </trkpt>
      <trkpt lat="46.60799" lon="12.28388">
        <ele>2008.81</ele>
        <time>2015-02-23T08:28:36Z</time>
      </trkpt>
      <trkpt lat="46.60801" lon="12.28402">
        <ele>2010.25</ele>
        <time>2015-02-23T08:28:50Z</time>
      </trkpt>
      <trkpt lat="46.60804" lon="12.28418">
        <ele>2013.62</ele>
        <time>2015-02-23T08:29:05Z</time>
      </trkpt>
      <trkpt lat="46.60807" lon="12.28433">
        <ele>2013.62</ele>
        <time>2015-02-23T08:29:20Z</time>
      </trkpt>
      <trkpt lat="46.60811" lon="12.28447">
        <ele>2015.06</ele>
        <time>2015-02-23T08:29:35Z</time>
      </trkpt>
      <trkpt lat="46.60817" lon="12.28463">
        <ele>2016.98</ele>
        <time>2015-02-23T08:29:52Z</time>
      </trkpt>
      <trkpt lat="46.60823" lon="12.2848">
        <ele>2018.43</ele>
        <time>2015-02-23T08:30:08Z</time>
      </trkpt>
      <trkpt lat="46.60827" lon="12.28493">
        <ele>2020.35</ele>
        <time>2015-02-23T08:30:23Z</time>
      </trkpt>
      <trkpt lat="46.60831" lon="12.28508">
        <ele>2021.79</ele>
        <time>2015-02-23T08:30:39Z</time>
      </trkpt>
      <trkpt lat="46.60832" lon="12.28523">
        <ele>2023.23</ele>
        <time>2015-02-23T08:30:53Z</time>
      </trkpt>
      <trkpt lat="46.60834" lon="12.28536">
        <ele>2026.12</ele>
        <time>2015-02-23T08:31:06Z</time>
      </trkpt>
      <trkpt lat="46.60836" lon="12.28552">
        <ele>2026.12</ele>
        <time>2015-02-23T08:31:22Z</time>
      </trkpt>
      <trkpt lat="46.60838" lon="12.28566">
        <ele>2027.56</ele>
        <time>2015-02-23T08:31:36Z</time>
      </trkpt>
      <trkpt lat="46.60838" lon="12.2858">
        <ele>2028.52</ele>
        <time>2015-02-23T08:31:48Z</time>
      </trkpt>
      <trkpt lat="46.60838" lon="12.28588">
        <ele>2029.48</ele>
        <time>2015-02-23T08:32:02Z</time>
      </trkpt>
      <trkpt lat="46.60839" lon="12.28604">
        <ele>2030.44</ele>
        <time>2015-02-23T08:32:16Z</time>
      </trkpt>
      <trkpt lat="46.60838" lon="12.28608">
        <ele>2030.92</ele>
        <time>2015-02-23T08:32:21Z</time>
      </trkpt>
      <trkpt lat="46.6083" lon="12.28619">
        <ele>2032.36</ele>
        <time>2015-02-23T08:32:36Z</time>
      </trkpt>
      <trkpt lat="46.60826" lon="12.28629">
        <ele>2034.29</ele>
        <time>2015-02-23T08:32:52Z</time>
      </trkpt>
      <trkpt lat="46.60822" lon="12.28641">
        <ele>2037.17</ele>
        <time>2015-02-23T08:33:07Z</time>
      </trkpt>
      <trkpt lat="46.60818" lon="12.28655">
        <ele>2037.65</ele>
        <time>2015-02-23T08:33:23Z</time>
      </trkpt>
      <trkpt lat="46.60815" lon="12.28668">
        <ele>2039.09</ele>
        <time>2015-02-23T08:33:37Z</time>
      </trkpt>
      <trkpt lat="46.60813" lon="12.28682">
        <ele>2041.02</ele>
        <time>2015-02-23T08:33:53Z</time>
      </trkpt>
      <trkpt lat="46.6081" lon="12.28698">
        <ele>2042.94</ele>
        <time>2015-02-23T08:34:11Z</time>
      </trkpt>
      <trkpt lat="46.60807" lon="12.28709">
        <ele>2044.38</ele>
        <time>2015-02-23T08:34:27Z</time>
      </trkpt>
      <trkpt lat="46.60805" lon="12.28728">
        <ele>2046.78</ele>
        <time>2015-02-23T08:34:46Z</time>
      </trkpt>
      <trkpt lat="46.608" lon="12.28744">
        <ele>2048.71</ele>
        <time>2015-02-23T08:35:04Z</time>
      </trkpt>
      <trkpt lat="46.60797" lon="12.28759">
        <ele>2050.63</ele>
        <time>2015-02-23T08:35:22Z</time>
      </trkpt>
      <trkpt lat="46.60797" lon="12.28769">
        <ele>2051.59</ele>
        <time>2015-02-23T08:35:40Z</time>
      </trkpt>
      <trkpt lat="46.60793" lon="12.28783">
        <ele>2053.03</ele>
        <time>2015-02-23T08:35:57Z</time>
      </trkpt>
      <trkpt lat="46.6079" lon="12.28796">
        <ele>2054.96</ele>
        <time>2015-02-23T08:36:11Z</time>
      </trkpt>
      <trkpt lat="46.60787" lon="12.28806">
        <ele>2056.4</ele>
        <time>2015-02-23T08:36:24Z</time>
      </trkpt>
      <trkpt lat="46.60782" lon="12.28822">
        <ele>2058.32</ele>
        <time>2015-02-23T08:36:40Z</time>
      </trkpt>
      <trkpt lat="46.60778" lon="12.28834">
        <ele>2059.76</ele>
        <time>2015-02-23T08:36:56Z</time>
      </trkpt>
      <trkpt lat="46.60772" lon="12.28848">
        <ele>2061.68</ele>
        <time>2015-02-23T08:37:12Z</time>
      </trkpt>
      <trkpt lat="46.60765" lon="12.28862">
        <ele>2063.61</ele>
        <time>2015-02-23T08:37:28Z</time>
      </trkpt>
      <trkpt lat="46.6076" lon="12.28876">
        <ele>2065.05</ele>
        <time>2015-02-23T08:37:42Z</time>
      </trkpt>
      <trkpt lat="46.60756" lon="12.28891">
        <ele>2066.97</ele>
        <time>2015-02-23T08:37:57Z</time>
      </trkpt>
      <trkpt lat="46.60751" lon="12.28905">
        <ele>2068.89</ele>
        <time>2015-02-23T08:38:16Z</time>
      </trkpt>
      <trkpt lat="46.60747" lon="12.28915">
        <ele>2070.34</ele>
        <time>2015-02-23T08:38:27Z</time>
      </trkpt>
      <trkpt lat="46.6074" lon="12.28928">
        <ele>2072.74</ele>
        <time>2015-02-23T08:38:43Z</time>
      </trkpt>
      <trkpt lat="46.60733" lon="12.28937">
        <ele>2074.18</ele>
        <time>2015-02-23T08:38:59Z</time>
      </trkpt>
      <trkpt lat="46.60723" lon="12.28946">
        <ele>2076.1</ele>
        <time>2015-02-23T08:39:16Z</time>
      </trkpt>
      <trkpt lat="46.60717" lon="12.2896">
        <ele>2078.03</ele>
        <time>2015-02-23T08:39:32Z</time>
      </trkpt>
      <trkpt lat="46.60714" lon="12.28974">
        <ele>2079.47</ele>
        <time>2015-02-23T08:39:46Z</time>
      </trkpt>
      <trkpt lat="46.60709" lon="12.28988">
        <ele>2080.91</ele>
        <time>2015-02-23T08:40:01Z</time>
      </trkpt>
      <trkpt lat="46.60705" lon="12.29007">
        <ele>2083.31</ele>
        <time>2015-02-23T08:40:19Z</time>
      </trkpt>
      <trkpt lat="46.607" lon="12.29023">
        <ele>2084.76</ele>
        <time>2015-02-23T08:40:35Z</time>
      </trkpt>
      <trkpt lat="46.60696" lon="12.29036">
        <ele>2086.68</ele>
        <time>2015-02-23T08:40:49Z</time>
      </trkpt>
      <trkpt lat="46.60693" lon="12.29048">
        <ele>2088.12</ele>
        <time>2015-02-23T08:41:02Z</time>
      </trkpt>
      <trkpt lat="46.60693" lon="12.29052">
        <ele>2088.6</ele>
        <time>2015-02-23T08:41:15Z</time>
      </trkpt>
      <trkpt lat="46.60689" lon="12.29069">
        <ele>2090.52</ele>
        <time>2015-02-23T08:41:32Z</time>
      </trkpt>
      <trkpt lat="46.60687" lon="12.2908">
        <ele>2091.49</ele>
        <time>2015-02-23T08:41:44Z</time>
      </trkpt>
      <trkpt lat="46.60687" lon="12.29094">
        <ele>2092.93</ele>
        <time>2015-02-23T08:42:00Z</time>
      </trkpt>
      <trkpt lat="46.60696" lon="12.29101">
        <ele>2094.37</ele>
        <time>2015-02-23T08:42:14Z</time>
      </trkpt>
      <trkpt lat="46.60707" lon="12.29094">
        <ele>2095.33</ele>
        <time>2015-02-23T08:42:26Z</time>
      </trkpt>
      <trkpt lat="46.60717" lon="12.29081">
        <ele>2096.77</ele>
        <time>2015-02-23T08:42:43Z</time>
      </trkpt>
      <trkpt lat="46.60722" lon="12.29076">
        <ele>2097.73</ele>
        <time>2015-02-23T08:42:56Z</time>
      </trkpt>
      <trkpt lat="46.6073" lon="12.29069">
        <ele>2098.7</ele>
        <time>2015-02-23T08:43:08Z</time>
      </trkpt>
      <trkpt lat="46.60738" lon="12.29062">
        <ele>2100.62</ele>
        <time>2015-02-23T08:43:23Z</time>
      </trkpt>
      <trkpt lat="46.60747" lon="12.29055">
        <ele>2102.06</ele>
        <time>2015-02-23T08:43:37Z</time>
      </trkpt>
      <trkpt lat="46.60754" lon="12.29051">
        <ele>2103.5</ele>
        <time>2015-02-23T08:43:52Z</time>
      </trkpt>
      <trkpt lat="46.60766" lon="12.2905">
        <ele>2104.94</ele>
        <time>2015-02-23T08:44:08Z</time>
      </trkpt>
      <trkpt lat="46.60768" lon="12.29057">
        <ele>2106.39</ele>
        <time>2015-02-23T08:44:23Z</time>
      </trkpt>
      <trkpt lat="46.60767" lon="12.29065">
        <ele>2107.83</ele>
        <time>2015-02-23T08:44:38Z</time>
      </trkpt>
      <trkpt lat="46.60765" lon="12.29073">
        <ele>2108.79</ele>
        <time>2015-02-23T08:44:53Z</time>
      </trkpt>
      <trkpt lat="46.60762" lon="12.29084">
        <ele>2110.71</ele>
        <time>2015-02-23T08:45:06Z</time>
      </trkpt>
      <trkpt lat="46.60761" lon="12.29092">
        <ele>2111.67</ele>
        <time>2015-02-23T08:45:18Z</time>
      </trkpt>
      <trkpt lat="46.6076" lon="12.29108">
        <ele>2113.6</ele>
        <time>2015-02-23T08:45:33Z</time>
      </trkpt>
      <trkpt lat="46.60759" lon="12.29121">
        <ele>2115.04</ele>
        <time>2015-02-23T08:45:45Z</time>
      </trkpt>
      <trkpt lat="46.60758" lon="12.29139">
        <ele>2116.96</ele>
        <time>2015-02-23T08:46:02Z</time>
      </trkpt>
      <trkpt lat="46.60757" lon="12.29152">
        <ele>2118.4</ele>
        <time>2015-02-23T08:46:15Z</time>
      </trkpt>
      <trkpt lat="46.60755" lon="12.29169">
        <ele>2120.32</ele>
        <time>2015-02-23T08:46:33Z</time>
      </trkpt>
      <trkpt lat="46.60754" lon="12.29188">
        <ele>2122.73</ele>
        <time>2015-02-23T08:46:52Z</time>
      </trkpt>
      <trkpt lat="46.60751" lon="12.29202">
        <ele>2124.65</ele>
        <time>2015-02-23T08:47:06Z</time>
      </trkpt>
      <trkpt lat="46.60748" lon="12.29214">
        <ele>2125.61</ele>
        <time>2015-02-23T08:47:20Z</time>
      </trkpt>
      <trkpt lat="46.60744" lon="12.29227">
        <ele>2127.05</ele>
        <time>2015-02-23T08:47:33Z</time>
      </trkpt>
      <trkpt lat="46.60737" lon="12.2924">
        <ele>2128.98</ele>
        <time>2015-02-23T08:47:50Z</time>
      </trkpt>
      <trkpt lat="46.60731" lon="12.29251">
        <ele>2130.9</ele>
        <time>2015-02-23T08:48:06Z</time>
      </trkpt>
      <trkpt lat="46.60727" lon="12.29256">
        <ele>2131.38</ele>
        <time>2015-02-23T08:48:20Z</time>
      </trkpt>
      <trkpt lat="46.60722" lon="12.29265">
        <ele>2132.82</ele>
        <time>2015-02-23T08:48:33Z</time>
      </trkpt>
      <trkpt lat="46.60715" lon="12.29277">
        <ele>2134.26</ele>
        <time>2015-02-23T08:48:47Z</time>
      </trkpt>
      <trkpt lat="46.6071" lon="12.29286">
        <ele>2135.71</ele>
        <time>2015-02-23T08:49:00Z</time>
      </trkpt>
      <trkpt lat="46.60702" lon="12.29297">
        <ele>2138.59</ele>
        <time>2015-02-23T08:49:14Z</time>
      </trkpt>
      <trkpt lat="46.60698" lon="12.29309">
        <ele>2139.07</ele>
        <time>2015-02-23T08:49:28Z</time>
      </trkpt>
      <trkpt lat="46.60698" lon="12.29316">
        <ele>2139.55</ele>
        <time>2015-02-23T08:49:43Z</time>
      </trkpt>
      <trkpt lat="46.60699" lon="12.29329">
        <ele>2140.51</ele>
        <time>2015-02-23T08:49:58Z</time>
      </trkpt>
      <trkpt lat="46.60707" lon="12.29334">
        <ele>2140.99</ele>
        <time>2015-02-23T08:50:05Z</time>
      </trkpt>
      <trkpt lat="46.60719" lon="12.29321">
        <ele>2141.95</ele>
        <time>2015-02-23T08:50:18Z</time>
      </trkpt>
      <trkpt lat="46.60727" lon="12.29306">
        <ele>2142.92</ele>
        <time>2015-02-23T08:50:32Z</time>
      </trkpt>
      <trkpt lat="46.60735" lon="12.293">
        <ele>2144.36</ele>
        <time>2015-02-23T08:50:44Z</time>
      </trkpt>
      <trkpt lat="46.60736" lon="12.29299">
        <ele>2144.36</ele>
        <time>2015-02-23T08:50:46Z</time>
      </trkpt>
      <trkpt lat="46.60748" lon="12.29301">
        <ele>2146.76</ele>
        <time>2015-02-23T08:51:02Z</time>
      </trkpt>
      <trkpt lat="46.60755" lon="12.29311">
        <ele>2150.13</ele>
        <time>2015-02-23T08:51:15Z</time>
      </trkpt>
      <trkpt lat="46.60753" lon="12.29323">
        <ele>2150.13</ele>
        <time>2015-02-23T08:51:30Z</time>
      </trkpt>
      <trkpt lat="46.60744" lon="12.29329">
        <ele>2151.57</ele>
        <time>2015-02-23T08:51:44Z</time>
      </trkpt>
      <trkpt lat="46.60737" lon="12.29333">
        <ele>2153.01</ele>
        <time>2015-02-23T08:51:55Z</time>
      </trkpt>
      <trkpt lat="46.60729" lon="12.29341">
        <ele>2154.45</ele>
        <time>2015-02-23T08:52:09Z</time>
      </trkpt>
      <trkpt lat="46.60727" lon="12.29347">
        <ele>2154.93</ele>
        <time>2015-02-23T08:52:23Z</time>
      </trkpt>
      <trkpt lat="46.60724" lon="12.29351">
        <ele>2155.41</ele>
        <time>2015-02-23T08:52:29Z</time>
      </trkpt>
      <trkpt lat="46.60721" lon="12.29359">
        <ele>2156.37</ele>
        <time>2015-02-23T08:52:39Z</time>
      </trkpt>
      <trkpt lat="46.60714" lon="12.29371">
        <ele>2158.3</ele>
        <time>2015-02-23T08:52:53Z</time>
      </trkpt>
      <trkpt lat="46.60707" lon="12.29383">
        <ele>2159.74</ele>
        <time>2015-02-23T08:53:07Z</time>
      </trkpt>
      <trkpt lat="46.60702" lon="12.29392">
        <ele>2161.18</ele>
        <time>2015-02-23T08:53:20Z</time>
      </trkpt>
      <trkpt lat="46.60694" lon="12.29404">
        <ele>2163.1</ele>
        <time>2015-02-23T08:53:37Z</time>
      </trkpt>
      <trkpt lat="46.60686" lon="12.29413">
        <ele>2164.55</ele>
        <time>2015-02-23T08:53:52Z</time>
      </trkpt>
      <trkpt lat="46.60678" lon="12.29423">
        <ele>2166.47</ele>
        <time>2015-02-23T08:54:08Z</time>
      </trkpt>
      <trkpt lat="46.60671" lon="12.29434">
        <ele>2168.39</ele>
        <time>2015-02-23T08:54:23Z</time>
      </trkpt>
      <trkpt lat="46.60666" lon="12.29444">
        <ele>2169.83</ele>
        <time>2015-02-23T08:54:37Z</time>
      </trkpt>
      <trkpt lat="46.60657" lon="12.29456">
        <ele>2171.76</ele>
        <time>2015-02-23T08:54:51Z</time>
      </trkpt>
      <trkpt lat="46.60656" lon="12.29458">
        <ele>2172.24</ele>
        <time>2015-02-23T08:54:54Z</time>
      </trkpt>
      <trkpt lat="46.60651" lon="12.29465">
        <ele>2173.2</ele>
        <time>2015-02-23T08:55:09Z</time>
      </trkpt>
      <trkpt lat="46.60654" lon="12.29464">
        <ele>2172.24</ele>
        <time>2015-02-23T08:55:28Z</time>
      </trkpt>
      <trkpt lat="46.60652" lon="12.29463">
        <ele>2172.24</ele>
        <time>2015-02-23T08:55:50Z</time>
      </trkpt>
      <trkpt lat="46.60649" lon="12.29459">
        <ele>2172.72</ele>
        <time>2015-02-23T08:56:25Z</time>
      </trkpt>
      <trkpt lat="46.60652" lon="12.2946">
        <ele>2172.72</ele>
        <time>2015-02-23T08:57:02Z</time>
      </trkpt>
      <trkpt lat="46.6065" lon="12.2946">
        <ele>2172.72</ele>
        <time>2015-02-23T08:57:31Z</time>
      </trkpt>
      <trkpt lat="46.6065" lon="12.29459">
        <ele>2173.2</ele>
        <time>2015-02-23T08:58:18Z</time>
      </trkpt>
      <trkpt lat="46.60649" lon="12.2946">
        <ele>2173.68</ele>
        <time>2015-02-23T08:59:08Z</time>
      </trkpt>
      <trkpt lat="46.6065" lon="12.29459">
        <ele>2174.64</ele>
        <time>2015-02-23T08:59:34Z</time>
      </trkpt>
      <trkpt lat="46.60649" lon="12.29459">
        <ele>2174.64</ele>
        <time>2015-02-23T08:59:47Z</time>
      </trkpt>
      <trkpt lat="46.60648" lon="12.29466">
        <ele>2175.12</ele>
        <time>2015-02-23T09:00:04Z</time>
      </trkpt>
      <trkpt lat="46.60642" lon="12.29475">
        <ele>2176.56</ele>
        <time>2015-02-23T09:00:17Z</time>
      </trkpt>
      <trkpt lat="46.60653" lon="12.29478">
        <ele>2176.56</ele>
        <time>2015-02-23T09:00:44Z</time>
      </trkpt>
      <trkpt lat="46.60653" lon="12.29491">
        <ele>2177.04</ele>
        <time>2015-02-23T09:00:58Z</time>
      </trkpt>
      <trkpt lat="46.60665" lon="12.29495">
        <ele>2178.48</ele>
        <time>2015-02-23T09:01:14Z</time>
      </trkpt>
      <trkpt lat="46.60667" lon="12.29491">
        <ele>2178.97</ele>
        <time>2015-02-23T09:01:18Z</time>
      </trkpt>
      <trkpt lat="46.60673" lon="12.29481">
        <ele>2179.93</ele>
        <time>2015-02-23T09:01:30Z</time>
      </trkpt>
      <trkpt lat="46.60681" lon="12.2947">
        <ele>2180.89</ele>
        <time>2015-02-23T09:01:42Z</time>
      </trkpt>
      <trkpt lat="46.60683" lon="12.29467">
        <ele>2180.89</ele>
        <time>2015-02-23T09:01:45Z</time>
      </trkpt>
      <trkpt lat="46.60694" lon="12.29458">
        <ele>2182.81</ele>
        <time>2015-02-23T09:01:59Z</time>
      </trkpt>
      <trkpt lat="46.60704" lon="12.29452">
        <ele>2183.77</ele>
        <time>2015-02-23T09:02:12Z</time>
      </trkpt>
      <trkpt lat="46.60714" lon="12.29445">
        <ele>2185.21</ele>
        <time>2015-02-23T09:02:25Z</time>
      </trkpt>
      <trkpt lat="46.60718" lon="12.29443">
        <ele>2185.69</ele>
        <time>2015-02-23T09:02:30Z</time>
      </trkpt>
      <trkpt lat="46.60729" lon="12.29435">
        <ele>2187.14</ele>
        <time>2015-02-23T09:02:44Z</time>
      </trkpt>
      <trkpt lat="46.60741" lon="12.29428">
        <ele>2188.58</ele>
        <time>2015-02-23T09:03:00Z</time>
      </trkpt>
      <trkpt lat="46.60749" lon="12.29421">
        <ele>2190.02</ele>
        <time>2015-02-23T09:03:14Z</time>
      </trkpt>
      <trkpt lat="46.60748" lon="12.2942">
        <ele>2190.02</ele>
        <time>2015-02-23T09:03:34Z</time>
      </trkpt>
      <trkpt lat="46.60749" lon="12.29418">
        <ele>2189.54</ele>
        <time>2015-02-23T09:03:49Z</time>
      </trkpt>
      <trkpt lat="46.60758" lon="12.29412">
        <ele>2190.98</ele>
        <time>2015-02-23T09:04:04Z</time>
      </trkpt>
      <trkpt lat="46.60765" lon="12.29414">
        <ele>2191.46</ele>
        <time>2015-02-23T09:04:20Z</time>
      </trkpt>
      <trkpt lat="46.60776" lon="12.29417">
        <ele>2192.9</ele>
        <time>2015-02-23T09:04:33Z</time>
      </trkpt>
      <trkpt lat="46.60784" lon="12.29424">
        <ele>2194.35</ele>
        <time>2015-02-23T09:04:47Z</time>
      </trkpt>
      <trkpt lat="46.60788" lon="12.29432">
        <ele>2195.31</ele>
        <time>2015-02-23T09:05:01Z</time>
      </trkpt>
      <trkpt lat="46.6079" lon="12.29433">
        <ele>2195.31</ele>
        <time>2015-02-23T09:05:19Z</time>
      </trkpt>
      <trkpt lat="46.60791" lon="12.29435">
        <ele>2195.79</ele>
        <time>2015-02-23T09:05:37Z</time>
      </trkpt>
      <trkpt lat="46.60794" lon="12.29438">
        <ele>2196.27</ele>
        <time>2015-02-23T09:05:40Z</time>
      </trkpt>
      <trkpt lat="46.60809" lon="12.29455">
        <ele>2198.67</ele>
        <time>2015-02-23T09:05:55Z</time>
      </trkpt>
      <trkpt lat="46.60821" lon="12.29467">
        <ele>2200.59</ele>
        <time>2015-02-23T09:06:10Z</time>
      </trkpt>
      <trkpt lat="46.60825" lon="12.29468">
        <ele>2200.59</ele>
        <time>2015-02-23T09:06:26Z</time>
      </trkpt>
      <trkpt lat="46.60833" lon="12.29469">
        <ele>2202.04</ele>
        <time>2015-02-23T09:06:41Z</time>
      </trkpt>
      <trkpt lat="46.60844" lon="12.2947">
        <ele>2203.48</ele>
        <time>2015-02-23T09:06:56Z</time>
      </trkpt>
      <trkpt lat="46.60854" lon="12.29473">
        <ele>2205.4</ele>
        <time>2015-02-23T09:07:10Z</time>
      </trkpt>
      <trkpt lat="46.60856" lon="12.29472">
        <ele>2205.88</ele>
        <time>2015-02-23T09:07:25Z</time>
      </trkpt>
      <trkpt lat="46.60857" lon="12.29475">
        <ele>2205.4</ele>
        <time>2015-02-23T09:07:39Z</time>
      </trkpt>
      <trkpt lat="46.60855" lon="12.29473">
        <ele>2205.88</ele>
        <time>2015-02-23T09:08:04Z</time>
      </trkpt>
      <trkpt lat="46.60857" lon="12.29473">
        <ele>2206.36</ele>
        <time>2015-02-23T09:08:21Z</time>
      </trkpt>
      <trkpt lat="46.60865" lon="12.29474">
        <ele>2207.81</ele>
        <time>2015-02-23T09:08:46Z</time>
      </trkpt>
      <trkpt lat="46.60866" lon="12.29474">
        <ele>2207.32</ele>
        <time>2015-02-23T09:08:58Z</time>
      </trkpt>
      <trkpt lat="46.60877" lon="12.29477">
        <ele>2209.25</ele>
        <time>2015-02-23T09:09:13Z</time>
      </trkpt>
      <trkpt lat="46.60877" lon="12.29478">
        <ele>2208.29</ele>
        <time>2015-02-23T09:09:25Z</time>
      </trkpt>
      <trkpt lat="46.60876" lon="12.29477">
        <ele>2207.81</ele>
        <time>2015-02-23T09:09:55Z</time>
      </trkpt>
      <trkpt lat="46.60876" lon="12.29478">
        <ele>2209.25</ele>
        <time>2015-02-23T09:10:30Z</time>
      </trkpt>
      <trkpt lat="46.60883" lon="12.2948">
        <ele>2210.21</ele>
        <time>2015-02-23T09:10:41Z</time>
      </trkpt>
      <trkpt lat="46.6089" lon="12.29483">
        <ele>2211.17</ele>
        <time>2015-02-23T09:10:49Z</time>
      </trkpt>
      <trkpt lat="46.60901" lon="12.29496">
        <ele>2213.57</ele>
        <time>2015-02-23T09:11:06Z</time>
      </trkpt>
      <trkpt lat="46.60907" lon="12.29514">
        <ele>2216.94</ele>
        <time>2015-02-23T09:11:22Z</time>
      </trkpt>
      <trkpt lat="46.60909" lon="12.29518">
        <ele>2216.46</ele>
        <time>2015-02-23T09:11:27Z</time>
      </trkpt>
      <trkpt lat="46.60912" lon="12.29535">
        <ele>2218.38</ele>
        <time>2015-02-23T09:11:43Z</time>
      </trkpt>
      <trkpt lat="46.60919" lon="12.29541">
        <ele>2219.34</ele>
        <time>2015-02-23T09:11:58Z</time>
      </trkpt>
      <trkpt lat="46.60921" lon="12.29549">
        <ele>2220.3</ele>
        <time>2015-02-23T09:12:16Z</time>
      </trkpt>
      <trkpt lat="46.60924" lon="12.29556">
        <ele>2221.74</ele>
        <time>2015-02-23T09:12:39Z</time>
      </trkpt>
      <trkpt lat="46.60927" lon="12.2955">
        <ele>2222.71</ele>
        <time>2015-02-23T09:12:54Z</time>
      </trkpt>
      <trkpt lat="46.6093" lon="12.29545">
        <ele>2224.15</ele>
        <time>2015-02-23T09:13:08Z</time>
      </trkpt>
      <trkpt lat="46.60931" lon="12.29546">
        <ele>2226.55</ele>
        <time>2015-02-23T09:13:23Z</time>
      </trkpt>
      <trkpt lat="46.60934" lon="12.2956">
        <ele>2227.99</ele>
        <time>2015-02-23T09:13:44Z</time>
      </trkpt>
      <trkpt lat="46.60935" lon="12.2957">
        <ele>2229.92</ele>
        <time>2015-02-23T09:14:01Z</time>
      </trkpt>
      <trkpt lat="46.60939" lon="12.29573">
        <ele>2231.36</ele>
        <time>2015-02-23T09:14:15Z</time>
      </trkpt>
      <trkpt lat="46.60943" lon="12.29569">
        <ele>2232.8</ele>
        <time>2015-02-23T09:14:30Z</time>
      </trkpt>
      <trkpt lat="46.60945" lon="12.29568">
        <ele>2233.76</ele>
        <time>2015-02-23T09:14:49Z</time>
      </trkpt>
      <trkpt lat="46.60949" lon="12.29576">
        <ele>2235.68</ele>
        <time>2015-02-23T09:15:05Z</time>
      </trkpt>
      <trkpt lat="46.60952" lon="12.29588">
        <ele>2238.09</ele>
        <time>2015-02-23T09:15:20Z</time>
      </trkpt>
      <trkpt lat="46.60959" lon="12.29588">
        <ele>2240.01</ele>
        <time>2015-02-23T09:15:36Z</time>
      </trkpt>
      <trkpt lat="46.60965" lon="12.29583">
        <ele>2241.93</ele>
        <time>2015-02-23T09:15:53Z</time>
      </trkpt>
      <trkpt lat="46.60969" lon="12.29579">
        <ele>2243.85</ele>
        <time>2015-02-23T09:16:08Z</time>
      </trkpt>
      <trkpt lat="46.60974" lon="12.29575">
        <ele>2245.3</ele>
        <time>2015-02-23T09:16:22Z</time>
      </trkpt>
      <trkpt lat="46.60976" lon="12.2958">
        <ele>2247.22</ele>
        <time>2015-02-23T09:16:37Z</time>
      </trkpt>
      <trkpt lat="46.60981" lon="12.29579">
        <ele>2248.66</ele>
        <time>2015-02-23T09:16:50Z</time>
      </trkpt>
      <trkpt lat="46.60985" lon="12.29576">
        <ele>2250.58</ele>
        <time>2015-02-23T09:17:07Z</time>
      </trkpt>
      <trkpt lat="46.60987" lon="12.29579">
        <ele>2251.54</ele>
        <time>2015-02-23T09:17:20Z</time>
      </trkpt>
      <trkpt lat="46.60987" lon="12.29586">
        <ele>2252.99</ele>
        <time>2015-02-23T09:17:34Z</time>
      </trkpt>
      <trkpt lat="46.60987" lon="12.29591">
        <ele>2254.43</ele>
        <time>2015-02-23T09:17:47Z</time>
      </trkpt>
      <trkpt lat="46.60993" lon="12.29589">
        <ele>2255.87</ele>
        <time>2015-02-23T09:18:03Z</time>
      </trkpt>
      <trkpt lat="46.60998" lon="12.29585">
        <ele>2257.31</ele>
        <time>2015-02-23T09:18:19Z</time>
      </trkpt>
      <trkpt lat="46.60999" lon="12.29583">
        <ele>2258.75</ele>
        <time>2015-02-23T09:18:33Z</time>
      </trkpt>
      <trkpt lat="46.60998" lon="12.29589">
        <ele>2259.72</ele>
        <time>2015-02-23T09:18:46Z</time>
      </trkpt>
      <trkpt lat="46.61" lon="12.29594">
        <ele>2261.16</ele>
        <time>2015-02-23T09:19:00Z</time>
      </trkpt>
      <trkpt lat="46.61005" lon="12.29592">
        <ele>2262.6</ele>
        <time>2015-02-23T09:19:13Z</time>
      </trkpt>
      <trkpt lat="46.61009" lon="12.29588">
        <ele>2264.04</ele>
        <time>2015-02-23T09:19:27Z</time>
      </trkpt>
      <trkpt lat="46.61013" lon="12.29588">
        <ele>2265</ele>
        <time>2015-02-23T09:19:39Z</time>
      </trkpt>
      <trkpt lat="46.61018" lon="12.29591">
        <ele>2266.45</ele>
        <time>2015-02-23T09:19:54Z</time>
      </trkpt>
      <trkpt lat="46.6102" lon="12.2959">
        <ele>2267.41</ele>
        <time>2015-02-23T09:20:12Z</time>
      </trkpt>
      <trkpt lat="46.61025" lon="12.29592">
        <ele>2268.85</ele>
        <time>2015-02-23T09:20:27Z</time>
      </trkpt>
      <trkpt lat="46.61022" lon="12.29598">
        <ele>2270.29</ele>
        <time>2015-02-23T09:20:40Z</time>
      </trkpt>
      <trkpt lat="46.61021" lon="12.29603">
        <ele>2271.25</ele>
        <time>2015-02-23T09:20:53Z</time>
      </trkpt>
      <trkpt lat="46.61027" lon="12.29603">
        <ele>2272.69</ele>
        <time>2015-02-23T09:21:08Z</time>
      </trkpt>
      <trkpt lat="46.61034" lon="12.29605">
        <ele>2275.1</ele>
        <time>2015-02-23T09:21:26Z</time>
      </trkpt>
      <trkpt lat="46.61039" lon="12.29602">
        <ele>2275.58</ele>
        <time>2015-02-23T09:21:40Z</time>
      </trkpt>
      <trkpt lat="46.61042" lon="12.29603">
        <ele>2276.06</ele>
        <time>2015-02-23T09:21:58Z</time>
      </trkpt>
      <trkpt lat="46.61043" lon="12.29602">
        <ele>2276.06</ele>
        <time>2015-02-23T09:22:20Z</time>
      </trkpt>
      <trkpt lat="46.61048" lon="12.29607">
        <ele>2277.98</ele>
        <time>2015-02-23T09:22:35Z</time>
      </trkpt>
      <trkpt lat="46.61046" lon="12.29614">
        <ele>2279.9</ele>
        <time>2015-02-23T09:22:54Z</time>
      </trkpt>
      <trkpt lat="46.61048" lon="12.29625">
        <ele>2282.31</ele>
        <time>2015-02-23T09:23:11Z</time>
      </trkpt>
      <trkpt lat="46.61052" lon="12.2963">
        <ele>2283.75</ele>
        <time>2015-02-23T09:23:27Z</time>
      </trkpt>
      <trkpt lat="46.61056" lon="12.29637">
        <ele>2284.71</ele>
        <time>2015-02-23T09:23:42Z</time>
      </trkpt>
      <trkpt lat="46.61058" lon="12.29638">
        <ele>2283.75</ele>
        <time>2015-02-23T09:24:03Z</time>
      </trkpt>
      <trkpt lat="46.61058" lon="12.29638">
        <ele>2284.71</ele>
        <time>2015-02-23T09:24:23Z</time>
      </trkpt>
      <trkpt lat="46.6106" lon="12.29638">
        <ele>2285.19</ele>
        <time>2015-02-23T09:24:39Z</time>
      </trkpt>
      <trkpt lat="46.61065" lon="12.29641">
        <ele>2286.15</ele>
        <time>2015-02-23T09:24:48Z</time>
      </trkpt>
      <trkpt lat="46.61076" lon="12.29649">
        <ele>2287.59</ele>
        <time>2015-02-23T09:25:04Z</time>
      </trkpt>
      <trkpt lat="46.61086" lon="12.29658">
        <ele>2290</ele>
        <time>2015-02-23T09:25:19Z</time>
      </trkpt>
      <trkpt lat="46.61094" lon="12.29661">
        <ele>2292.88</ele>
        <time>2015-02-23T09:25:38Z</time>
      </trkpt>
      <trkpt lat="46.61105" lon="12.29662">
        <ele>2295.28</ele>
        <time>2015-02-23T09:25:56Z</time>
      </trkpt>
      <trkpt lat="46.61114" lon="12.2966">
        <ele>2298.17</ele>
        <time>2015-02-23T09:26:17Z</time>
      </trkpt>
      <trkpt lat="46.61122" lon="12.29658">
        <ele>2300.09</ele>
        <time>2015-02-23T09:26:32Z</time>
      </trkpt>
      <trkpt lat="46.61125" lon="12.29655">
        <ele>2302.01</ele>
        <time>2015-02-23T09:26:44Z</time>
      </trkpt>
      <trkpt lat="46.61129" lon="12.29652">
        <ele>2303.94</ele>
        <time>2015-02-23T09:26:59Z</time>
      </trkpt>
      <trkpt lat="46.61137" lon="12.29654">
        <ele>2305.86</ele>
        <time>2015-02-23T09:27:17Z</time>
      </trkpt>
      <trkpt lat="46.61146" lon="12.29653">
        <ele>2308.26</ele>
        <time>2015-02-23T09:27:35Z</time>
      </trkpt>
      <trkpt lat="46.61155" lon="12.29652">
        <ele>2309.7</ele>
        <time>2015-02-23T09:27:53Z</time>
      </trkpt>
      <trkpt lat="46.61161" lon="12.29649">
        <ele>2311.63</ele>
        <time>2015-02-23T09:28:11Z</time>
      </trkpt>
      <trkpt lat="46.61165" lon="12.29646">
        <ele>2313.07</ele>
        <time>2015-02-23T09:28:27Z</time>
      </trkpt>
      <trkpt lat="46.61169" lon="12.29646">
        <ele>2314.51</ele>
        <time>2015-02-23T09:28:44Z</time>
      </trkpt>
      <trkpt lat="46.6117" lon="12.29643">
        <ele>2314.99</ele>
        <time>2015-02-23T09:28:59Z</time>
      </trkpt>
      <trkpt lat="46.61178" lon="12.29641">
        <ele>2317.4</ele>
        <time>2015-02-23T09:29:18Z</time>
      </trkpt>
      <trkpt lat="46.61183" lon="12.29645">
        <ele>2319.8</ele>
        <time>2015-02-23T09:29:37Z</time>
      </trkpt>
      <trkpt lat="46.61189" lon="12.29645">
        <ele>2321.24</ele>
        <time>2015-02-23T09:29:53Z</time>
      </trkpt>
      <trkpt lat="46.61192" lon="12.29644">
        <ele>2322.68</ele>
        <time>2015-02-23T09:30:11Z</time>
      </trkpt>
      <trkpt lat="46.61196" lon="12.29644">
        <ele>2324.12</ele>
        <time>2015-02-23T09:30:24Z</time>
      </trkpt>
      <trkpt lat="46.61202" lon="12.29643">
        <ele>2326.05</ele>
        <time>2015-02-23T09:30:40Z</time>
      </trkpt>
      <trkpt lat="46.61206" lon="12.29645">
        <ele>2326.53</ele>
        <time>2015-02-23T09:30:56Z</time>
      </trkpt>
      <trkpt lat="46.61209" lon="12.29642">
        <ele>2327.49</ele>
        <time>2015-02-23T09:31:17Z</time>
      </trkpt>
      <trkpt lat="46.6121" lon="12.29641">
        <ele>2327.49</ele>
        <time>2015-02-23T09:31:40Z</time>
      </trkpt>
      <trkpt lat="46.61208" lon="12.29648">
        <ele>2327.01</ele>
        <time>2015-02-23T09:31:58Z</time>
      </trkpt>
      <trkpt lat="46.61207" lon="12.29643">
        <ele>2327.97</ele>
        <time>2015-02-23T09:32:21Z</time>
      </trkpt>
      <trkpt lat="46.61208" lon="12.29641">
        <ele>2327.97</ele>
        <time>2015-02-23T09:32:40Z</time>
      </trkpt>
      <trkpt lat="46.61211" lon="12.29641">
        <ele>2328.45</ele>
        <time>2015-02-23T09:33:02Z</time>
      </trkpt>
      <trkpt lat="46.61221" lon="12.2964">
        <ele>2329.41</ele>
        <time>2015-02-23T09:33:15Z</time>
      </trkpt>
      <trkpt lat="46.61227" lon="12.2964">
        <ele>2329.89</ele>
        <time>2015-02-23T09:33:28Z</time>
      </trkpt>
      <trkpt lat="46.61224" lon="12.29638">
        <ele>2329.89</ele>
        <time>2015-02-23T09:33:51Z</time>
      </trkpt>
      <trkpt lat="46.61224" lon="12.29641">
        <ele>2329.89</ele>
        <time>2015-02-23T09:34:14Z</time>
      </trkpt>
      <trkpt lat="46.61224" lon="12.2964">
        <ele>2329.89</ele>
        <time>2015-02-23T09:34:38Z</time>
      </trkpt>
      <trkpt lat="46.61226" lon="12.29631">
        <ele>2330.37</ele>
        <time>2015-02-23T09:34:50Z</time>
      </trkpt>
      <trkpt lat="46.61224" lon="12.29631">
        <ele>2330.37</ele>
        <time>2015-02-23T09:34:56Z</time>
      </trkpt>
      <trkpt lat="46.61212" lon="12.29633">
        <ele>2329.89</ele>
        <time>2015-02-23T09:35:11Z</time>
      </trkpt>
      <trkpt lat="46.61212" lon="12.29626">
        <ele>2329.41</ele>
        <time>2015-02-23T09:35:28Z</time>
      </trkpt>
      <trkpt lat="46.61212" lon="12.29627">
        <ele>2328.93</ele>
        <time>2015-02-23T09:36:03Z</time>
      </trkpt>
      <trkpt lat="46.6121" lon="12.29628">
        <ele>2328.93</ele>
        <time>2015-02-23T09:36:48Z</time>
      </trkpt>
      <trkpt lat="46.6121" lon="12.29627">
        <ele>2329.41</ele>
        <time>2015-02-23T09:37:33Z</time>
      </trkpt>
      <trkpt lat="46.61211" lon="12.29624">
        <ele>2328.93</ele>
        <time>2015-02-23T09:38:02Z</time>
      </trkpt>
      <trkpt lat="46.61214" lon="12.29627">
        <ele>2329.41</ele>
        <time>2015-02-23T09:38:23Z</time>
      </trkpt>
      <trkpt lat="46.61215" lon="12.29628">
        <ele>2329.41</ele>
        <time>2015-02-23T09:38:58Z</time>
      </trkpt>
      <trkpt lat="46.61213" lon="12.29631">
        <ele>2329.41</ele>
        <time>2015-02-23T09:39:44Z</time>
      </trkpt>
      <trkpt lat="46.61214" lon="12.29631">
        <ele>2329.89</ele>
        <time>2015-02-23T09:40:01Z</time>
      </trkpt>
      <trkpt lat="46.61214" lon="12.2963">
        <ele>2329.89</ele>
        <time>2015-02-23T09:40:25Z</time>
      </trkpt>
      <trkpt lat="46.61221" lon="12.29635">
        <ele>2329.89</ele>
        <time>2015-02-23T09:40:39Z</time>
      </trkpt>
      <trkpt lat="46.61231" lon="12.29636">
        <ele>2330.85</ele>
        <time>2015-02-23T09:40:58Z</time>
      </trkpt>
      <trkpt lat="46.61238" lon="12.29623">
        <ele>2330.85</ele>
        <time>2015-02-23T09:41:17Z</time>
      </trkpt>
      <trkpt lat="46.61235" lon="12.296">
        <ele>2330.85</ele>
        <time>2015-02-23T09:41:36Z</time>
      </trkpt>
      <trkpt lat="46.61234" lon="12.29583">
        <ele>2332.3</ele>
        <time>2015-02-23T09:41:55Z</time>
      </trkpt>
      <trkpt lat="46.61236" lon="12.29592">
        <ele>2333.74</ele>
        <time>2015-02-23T09:42:10Z</time>
      </trkpt>
      <trkpt lat="46.61239" lon="12.296">
        <ele>2336.62</ele>
        <time>2015-02-23T09:42:28Z</time>
      </trkpt>
      <trkpt lat="46.61246" lon="12.2961">
        <ele>2338.06</ele>
        <time>2015-02-23T09:42:48Z</time>
      </trkpt>
      <trkpt lat="46.61256" lon="12.29608">
        <ele>2339.51</ele>
        <time>2015-02-23T09:43:03Z</time>
      </trkpt>
      <trkpt lat="46.61259" lon="12.29602">
        <ele>2341.43</ele>
        <time>2015-02-23T09:43:16Z</time>
      </trkpt>
      <trkpt lat="46.61258" lon="12.29598">
        <ele>2341.91</ele>
        <time>2015-02-23T09:43:31Z</time>
      </trkpt>
      <trkpt lat="46.61261" lon="12.29605">
        <ele>2342.39</ele>
        <time>2015-02-23T09:43:45Z</time>
      </trkpt>
      <trkpt lat="46.61264" lon="12.29605">
        <ele>2343.35</ele>
        <time>2015-02-23T09:44:00Z</time>
      </trkpt>
      <trkpt lat="46.61273" lon="12.29605">
        <ele>2345.27</ele>
        <time>2015-02-23T09:44:15Z</time>
      </trkpt>
      <trkpt lat="46.61278" lon="12.29609">
        <ele>2347.2</ele>
        <time>2015-02-23T09:44:30Z</time>
      </trkpt>
      <trkpt lat="46.61283" lon="12.29606">
        <ele>2348.64</ele>
        <time>2015-02-23T09:44:47Z</time>
      </trkpt>
      <trkpt lat="46.6129" lon="12.29605">
        <ele>2351.52</ele>
        <time>2015-02-23T09:45:05Z</time>
      </trkpt>
      <trkpt lat="46.61294" lon="12.29602">
        <ele>2354.41</ele>
        <time>2015-02-23T09:45:20Z</time>
      </trkpt>
      <trkpt lat="46.61302" lon="12.296">
        <ele>2355.85</ele>
        <time>2015-02-23T09:45:38Z</time>
      </trkpt>
      <trkpt lat="46.61306" lon="12.29596">
        <ele>2357.29</ele>
        <time>2015-02-23T09:45:52Z</time>
      </trkpt>
      <trkpt lat="46.61312" lon="12.29591">
        <ele>2359.21</ele>
        <time>2015-02-23T09:46:07Z</time>
      </trkpt>
      <trkpt lat="46.61317" lon="12.29591">
        <ele>2361.14</ele>
        <time>2015-02-23T09:46:23Z</time>
      </trkpt>
      <trkpt lat="46.61319" lon="12.29583">
        <ele>2362.58</ele>
        <time>2015-02-23T09:46:37Z</time>
      </trkpt>
      <trkpt lat="46.61319" lon="12.29588">
        <ele>2363.06</ele>
        <time>2015-02-23T09:46:48Z</time>
      </trkpt>
      <trkpt lat="46.61326" lon="12.29586">
        <ele>2363.06</ele>
        <time>2015-02-23T09:47:11Z</time>
      </trkpt>
      <trkpt lat="46.61329" lon="12.29585">
        <ele>2363.54</ele>
        <time>2015-02-23T09:47:22Z</time>
      </trkpt>
      <trkpt lat="46.61335" lon="12.29584">
        <ele>2364.02</ele>
        <time>2015-02-23T09:47:37Z</time>
      </trkpt>
      <trkpt lat="46.61335" lon="12.29585">
        <ele>2363.06</ele>
        <time>2015-02-23T09:47:56Z</time>
      </trkpt>
      <trkpt lat="46.61335" lon="12.29585">
        <ele>2364.02</ele>
        <time>2015-02-23T09:48:07Z</time>
      </trkpt>
      <trkpt lat="46.61335" lon="12.29584">
        <ele>2362.58</ele>
        <time>2015-02-23T09:48:24Z</time>
      </trkpt>
      <trkpt lat="46.61333" lon="12.29581">
        <ele>2362.58</ele>
        <time>2015-02-23T09:49:00Z</time>
      </trkpt>
      <trkpt lat="46.61334" lon="12.29579">
        <ele>2363.06</ele>
        <time>2015-02-23T09:49:34Z</time>
      </trkpt>
      <trkpt lat="46.61334" lon="12.29581">
        <ele>2363.06</ele>
        <time>2015-02-23T09:50:09Z</time>
      </trkpt>
      <trkpt lat="46.61334" lon="12.29581">
        <ele>2363.54</ele>
        <time>2015-02-23T09:50:39Z</time>
      </trkpt>
      <trkpt lat="46.61334" lon="12.29581">
        <ele>2363.06</ele>
        <time>2015-02-23T09:51:01Z</time>
      </trkpt>
      <trkpt lat="46.61333" lon="12.29581">
        <ele>2363.54</ele>
        <time>2015-02-23T09:51:33Z</time>
      </trkpt>
      <trkpt lat="46.61333" lon="12.29581">
        <ele>2363.54</ele>
        <time>2015-02-23T09:52:00Z</time>
      </trkpt>
      <trkpt lat="46.61333" lon="12.29581">
        <ele>2363.54</ele>
        <time>2015-02-23T09:52:17Z</time>
      </trkpt>
      <trkpt lat="46.61334" lon="12.29583">
        <ele>2364.02</ele>
        <time>2015-02-23T09:52:46Z</time>
      </trkpt>
      <trkpt lat="46.61333" lon="12.29584">
        <ele>2365.46</ele>
        <time>2015-02-23T09:52:49Z</time>
      </trkpt>
      <trkpt lat="46.61333" lon="12.29586">
        <ele>2365.46</ele>
        <time>2015-02-23T09:53:07Z</time>
      </trkpt>
      <trkpt lat="46.61333" lon="12.29588">
        <ele>2364.5</ele>
        <time>2015-02-23T09:53:27Z</time>
      </trkpt>
      <trkpt lat="46.61334" lon="12.29588">
        <ele>2364.02</ele>
        <time>2015-02-23T09:53:43Z</time>
      </trkpt>
      <trkpt lat="46.61335" lon="12.29589">
        <ele>2364.5</ele>
        <time>2015-02-23T09:53:55Z</time>
      </trkpt>
      <trkpt lat="46.61337" lon="12.29587">
        <ele>2364.5</ele>
        <time>2015-02-23T09:54:17Z</time>
      </trkpt>
      <trkpt lat="46.61335" lon="12.29589">
        <ele>2364.5</ele>
        <time>2015-02-23T09:54:36Z</time>
      </trkpt>
      <trkpt lat="46.61335" lon="12.2959">
        <ele>2364.5</ele>
        <time>2015-02-23T09:54:49Z</time>
      </trkpt>
      <trkpt lat="46.61337" lon="12.29591">
        <ele>2363.54</ele>
        <time>2015-02-23T09:55:02Z</time>
      </trkpt>
      <trkpt lat="46.61339" lon="12.29592">
        <ele>2363.06</ele>
        <time>2015-02-23T09:55:20Z</time>
      </trkpt>
      <trkpt lat="46.61344" lon="12.29595">
        <ele>2362.58</ele>
        <time>2015-02-23T09:55:32Z</time>
      </trkpt>
      <trkpt lat="46.61354" lon="12.29605">
        <ele>2359.21</ele>
        <time>2015-02-23T09:55:39Z</time>
      </trkpt>
      <trkpt lat="46.61352" lon="12.29607">
        <ele>2358.73</ele>
        <time>2015-02-23T09:55:53Z</time>
      </trkpt>
      <trkpt lat="46.6135" lon="12.29613">
        <ele>2358.25</ele>
        <time>2015-02-23T09:56:16Z</time>
      </trkpt>
      <trkpt lat="46.61351" lon="12.29615">
        <ele>2357.29</ele>
        <time>2015-02-23T09:56:17Z</time>
      </trkpt>
      <trkpt lat="46.61357" lon="12.29636">
        <ele>2353.93</ele>
        <time>2015-02-23T09:56:24Z</time>
      </trkpt>
      <trkpt lat="46.61358" lon="12.29637">
        <ele>2353.93</ele>
        <time>2015-02-23T09:56:40Z</time>
      </trkpt>
      <trkpt lat="46.6136" lon="12.2964">
        <ele>2352.96</ele>
        <time>2015-02-23T09:56:56Z</time>
      </trkpt>
      <trkpt lat="46.61361" lon="12.29643">
        <ele>2352.48</ele>
        <time>2015-02-23T09:57:25Z</time>
      </trkpt>
      <trkpt lat="46.61361" lon="12.29644">
        <ele>2352.48</ele>
        <time>2015-02-23T09:57:26Z</time>
      </trkpt>
      <trkpt lat="46.61362" lon="12.2965">
        <ele>2351.52</ele>
        <time>2015-02-23T09:57:38Z</time>
      </trkpt>
      <trkpt lat="46.61363" lon="12.29654">
        <ele>2350.56</ele>
        <time>2015-02-23T09:57:55Z</time>
      </trkpt>
      <trkpt lat="46.61362" lon="12.29656">
        <ele>2350.56</ele>
        <time>2015-02-23T09:58:17Z</time>
      </trkpt>
      <trkpt lat="46.61362" lon="12.29659">
        <ele>2349.6</ele>
        <time>2015-02-23T09:58:29Z</time>
      </trkpt>
      <trkpt lat="46.61363" lon="12.29666">
        <ele>2349.12</ele>
        <time>2015-02-23T09:58:42Z</time>
      </trkpt>
      <trkpt lat="46.61363" lon="12.29673">
        <ele>2347.68</ele>
        <time>2015-02-23T09:58:56Z</time>
      </trkpt>
      <trkpt lat="46.61364" lon="12.2968">
        <ele>2346.23</ele>
        <time>2015-02-23T09:59:17Z</time>
      </trkpt>
      <trkpt lat="46.61364" lon="12.29681">
        <ele>2346.23</ele>
        <time>2015-02-23T09:59:41Z</time>
      </trkpt>
      <trkpt lat="46.61363" lon="12.29682">
        <ele>2345.75</ele>
        <time>2015-02-23T09:59:43Z</time>
      </trkpt>
      <trkpt lat="46.61363" lon="12.29684">
        <ele>2345.27</ele>
        <time>2015-02-23T09:59:44Z</time>
      </trkpt>
      <trkpt lat="46.61362" lon="12.29686">
        <ele>2344.79</ele>
        <time>2015-02-23T09:59:45Z</time>
      </trkpt>
      <trkpt lat="46.61361" lon="12.29688">
        <ele>2344.31</ele>
        <time>2015-02-23T09:59:46Z</time>
      </trkpt>
      <trkpt lat="46.61361" lon="12.2969">
        <ele>2343.83</ele>
        <time>2015-02-23T09:59:47Z</time>
      </trkpt>
      <trkpt lat="46.61362" lon="12.2969">
        <ele>2343.83</ele>
        <time>2015-02-23T10:00:01Z</time>
      </trkpt>
      <trkpt lat="46.61362" lon="12.29707">
        <ele>2341.91</ele>
        <time>2015-02-23T10:00:16Z</time>
      </trkpt>
      <trkpt lat="46.61363" lon="12.29708">
        <ele>2340.95</ele>
        <time>2015-02-23T10:00:34Z</time>
      </trkpt>
      <trkpt lat="46.61365" lon="12.29726">
        <ele>2339.02</ele>
        <time>2015-02-23T10:00:47Z</time>
      </trkpt>
      <trkpt lat="46.61367" lon="12.29743">
        <ele>2335.66</ele>
        <time>2015-02-23T10:00:57Z</time>
      </trkpt>
      <trkpt lat="46.61371" lon="12.29763">
        <ele>2332.78</ele>
        <time>2015-02-23T10:01:01Z</time>
      </trkpt>
      <trkpt lat="46.6137" lon="12.29778">
        <ele>2329.41</ele>
        <time>2015-02-23T10:01:05Z</time>
      </trkpt>
      <trkpt lat="46.61364" lon="12.29794">
        <ele>2326.53</ele>
        <time>2015-02-23T10:01:10Z</time>
      </trkpt>
      <trkpt lat="46.61363" lon="12.29803">
        <ele>2325.09</ele>
        <time>2015-02-23T10:01:21Z</time>
      </trkpt>
      <trkpt lat="46.61365" lon="12.29811">
        <ele>2325.09</ele>
        <time>2015-02-23T10:01:34Z</time>
      </trkpt>
      <trkpt lat="46.61367" lon="12.2983">
        <ele>2325.09</ele>
        <time>2015-02-23T10:01:49Z</time>
      </trkpt>
      <trkpt lat="46.61368" lon="12.29839">
        <ele>2325.09</ele>
        <time>2015-02-23T10:01:58Z</time>
      </trkpt>
      <trkpt lat="46.61367" lon="12.29857">
        <ele>2325.09</ele>
        <time>2015-02-23T10:02:11Z</time>
      </trkpt>
      <trkpt lat="46.61365" lon="12.29873">
        <ele>2326.05</ele>
        <time>2015-02-23T10:02:26Z</time>
      </trkpt>
      <trkpt lat="46.61364" lon="12.29882">
        <ele>2326.53</ele>
        <time>2015-02-23T10:02:39Z</time>
      </trkpt>
      <trkpt lat="46.61365" lon="12.2988">
        <ele>2327.01</ele>
        <time>2015-02-23T10:03:01Z</time>
      </trkpt>
      <trkpt lat="46.61364" lon="12.2989">
        <ele>2326.53</ele>
        <time>2015-02-23T10:03:14Z</time>
      </trkpt>
      <trkpt lat="46.61363" lon="12.29901">
        <ele>2326.53</ele>
        <time>2015-02-23T10:03:29Z</time>
      </trkpt>
      <trkpt lat="46.61363" lon="12.29899">
        <ele>2326.05</ele>
        <time>2015-02-23T10:03:45Z</time>
      </trkpt>
      <trkpt lat="46.61363" lon="12.29902">
        <ele>2326.53</ele>
        <time>2015-02-23T10:04:01Z</time>
      </trkpt>
      <trkpt lat="46.61363" lon="12.29899">
        <ele>2326.53</ele>
        <time>2015-02-23T10:04:17Z</time>
      </trkpt>
      <trkpt lat="46.61363" lon="12.29898">
        <ele>2326.53</ele>
        <time>2015-02-23T10:04:36Z</time>
      </trkpt>
      <trkpt lat="46.61364" lon="12.29902">
        <ele>2326.05</ele>
        <time>2015-02-23T10:04:52Z</time>
      </trkpt>
      <trkpt lat="46.61363" lon="12.29905">
        <ele>2327.01</ele>
        <time>2015-02-23T10:05:09Z</time>
      </trkpt>
      <trkpt lat="46.61367" lon="12.2992">
        <ele>2326.53</ele>
        <time>2015-02-23T10:05:21Z</time>
      </trkpt>
      <trkpt lat="46.61367" lon="12.29919">
        <ele>2326.53</ele>
        <time>2015-02-23T10:05:45Z</time>
      </trkpt>
      <trkpt lat="46.61367" lon="12.29926">
        <ele>2326.53</ele>
        <time>2015-02-23T10:05:58Z</time>
      </trkpt>
      <trkpt lat="46.61369" lon="12.29942">
        <ele>2326.53</ele>
        <time>2015-02-23T10:06:11Z</time>
      </trkpt>
      <trkpt lat="46.61371" lon="12.29957">
        <ele>2326.53</ele>
        <time>2015-02-23T10:06:25Z</time>
      </trkpt>
      <trkpt lat="46.61373" lon="12.29964">
        <ele>2327.01</ele>
        <time>2015-02-23T10:06:32Z</time>
      </trkpt>
      <trkpt lat="46.6138" lon="12.29977">
        <ele>2327.01</ele>
        <time>2015-02-23T10:06:46Z</time>
      </trkpt>
      <trkpt lat="46.61382" lon="12.29981">
        <ele>2327.01</ele>
        <time>2015-02-23T10:06:51Z</time>
      </trkpt>
      <trkpt lat="46.61382" lon="12.29983">
        <ele>2327.01</ele>
        <time>2015-02-23T10:06:52Z</time>
      </trkpt>
      <trkpt lat="46.61387" lon="12.3">
        <ele>2326.05</ele>
        <time>2015-02-23T10:07:07Z</time>
      </trkpt>
      <trkpt lat="46.61394" lon="12.30015">
        <ele>2326.53</ele>
        <time>2015-02-23T10:07:21Z</time>
      </trkpt>
      <trkpt lat="46.61399" lon="12.30034">
        <ele>2327.01</ele>
        <time>2015-02-23T10:07:36Z</time>
      </trkpt>
      <trkpt lat="46.61403" lon="12.30048">
        <ele>2326.53</ele>
        <time>2015-02-23T10:07:52Z</time>
      </trkpt>
      <trkpt lat="46.61404" lon="12.30051">
        <ele>2326.05</ele>
        <time>2015-02-23T10:07:55Z</time>
      </trkpt>
      <trkpt lat="46.61407" lon="12.30068">
        <ele>2326.53</ele>
        <time>2015-02-23T10:08:09Z</time>
      </trkpt>
      <trkpt lat="46.61413" lon="12.30084">
        <ele>2326.53</ele>
        <time>2015-02-23T10:08:25Z</time>
      </trkpt>
      <trkpt lat="46.61416" lon="12.30094">
        <ele>2326.05</ele>
        <time>2015-02-23T10:08:34Z</time>
      </trkpt>
      <trkpt lat="46.61418" lon="12.30108">
        <ele>2325.57</ele>
        <time>2015-02-23T10:08:48Z</time>
      </trkpt>
      <trkpt lat="46.61419" lon="12.3012">
        <ele>2325.09</ele>
        <time>2015-02-23T10:09:01Z</time>
      </trkpt>
      <trkpt lat="46.6142" lon="12.30134">
        <ele>2325.09</ele>
        <time>2015-02-23T10:09:12Z</time>
      </trkpt>
      <trkpt lat="46.61422" lon="12.3015">
        <ele>2324.61</ele>
        <time>2015-02-23T10:09:24Z</time>
      </trkpt>
      <trkpt lat="46.61423" lon="12.30153">
        <ele>2324.61</ele>
        <time>2015-02-23T10:09:27Z</time>
      </trkpt>
      <trkpt lat="46.61425" lon="12.30179">
        <ele>2324.12</ele>
        <time>2015-02-23T10:09:44Z</time>
      </trkpt>
      <trkpt lat="46.61426" lon="12.30198">
        <ele>2323.64</ele>
        <time>2015-02-23T10:09:58Z</time>
      </trkpt>
      <trkpt lat="46.61425" lon="12.30219">
        <ele>2322.68</ele>
        <time>2015-02-23T10:10:12Z</time>
      </trkpt>
      <trkpt lat="46.61424" lon="12.30245">
        <ele>2322.2</ele>
        <time>2015-02-23T10:10:28Z</time>
      </trkpt>
      <trkpt lat="46.61425" lon="12.30264">
        <ele>2321.72</ele>
        <time>2015-02-23T10:10:43Z</time>
      </trkpt>
      <trkpt lat="46.61425" lon="12.30286">
        <ele>2320.76</ele>
        <time>2015-02-23T10:10:58Z</time>
      </trkpt>
      <trkpt lat="46.61426" lon="12.30302">
        <ele>2320.28</ele>
        <time>2015-02-23T10:11:12Z</time>
      </trkpt>
      <trkpt lat="46.61427" lon="12.30325">
        <ele>2319.8</ele>
        <time>2015-02-23T10:11:26Z</time>
      </trkpt>
      <trkpt lat="46.61426" lon="12.30341">
        <ele>2319.32</ele>
        <time>2015-02-23T10:11:36Z</time>
      </trkpt>
      <trkpt lat="46.61425" lon="12.30362">
        <ele>2318.84</ele>
        <time>2015-02-23T10:11:50Z</time>
      </trkpt>
      <trkpt lat="46.61425" lon="12.30369">
        <ele>2318.36</ele>
        <time>2015-02-23T10:12:05Z</time>
      </trkpt>
      <trkpt lat="46.61421" lon="12.30391">
        <ele>2316.43</ele>
        <time>2015-02-23T10:12:20Z</time>
      </trkpt>
      <trkpt lat="46.61418" lon="12.30412">
        <ele>2315.95</ele>
        <time>2015-02-23T10:12:35Z</time>
      </trkpt>
      <trkpt lat="46.61416" lon="12.30426">
        <ele>2315.95</ele>
        <time>2015-02-23T10:12:48Z</time>
      </trkpt>
      <trkpt lat="46.61409" lon="12.30442">
        <ele>2314.51</ele>
        <time>2015-02-23T10:13:03Z</time>
      </trkpt>
      <trkpt lat="46.61397" lon="12.30459">
        <ele>2313.07</ele>
        <time>2015-02-23T10:13:19Z</time>
      </trkpt>
      <trkpt lat="46.61388" lon="12.30471">
        <ele>2312.59</ele>
        <time>2015-02-23T10:13:34Z</time>
      </trkpt>
      <trkpt lat="46.61377" lon="12.30482">
        <ele>2312.11</ele>
        <time>2015-02-23T10:13:51Z</time>
      </trkpt>
      <trkpt lat="46.61368" lon="12.30491">
        <ele>2312.59</ele>
        <time>2015-02-23T10:14:03Z</time>
      </trkpt>
      <trkpt lat="46.61364" lon="12.30497">
        <ele>2312.59</ele>
        <time>2015-02-23T10:14:15Z</time>
      </trkpt>
      <trkpt lat="46.61364" lon="12.30492">
        <ele>2312.59</ele>
        <time>2015-02-23T10:14:43Z</time>
      </trkpt>
      <trkpt lat="46.61364" lon="12.30496">
        <ele>2313.07</ele>
        <time>2015-02-23T10:15:03Z</time>
      </trkpt>
      <trkpt lat="46.61363" lon="12.30504">
        <ele>2313.55</ele>
        <time>2015-02-23T10:15:19Z</time>
      </trkpt>
      <trkpt lat="46.61361" lon="12.30523">
        <ele>2313.55</ele>
        <time>2015-02-23T10:15:38Z</time>
      </trkpt>
      <trkpt lat="46.61361" lon="12.30534">
        <ele>2313.55</ele>
        <time>2015-02-23T10:15:49Z</time>
      </trkpt>
      <trkpt lat="46.61361" lon="12.30556">
        <ele>2313.55</ele>
        <time>2015-02-23T10:16:04Z</time>
      </trkpt>
      <trkpt lat="46.61359" lon="12.3057">
        <ele>2314.03</ele>
        <time>2015-02-23T10:16:16Z</time>
      </trkpt>
      <trkpt lat="46.61357" lon="12.30587">
        <ele>2314.99</ele>
        <time>2015-02-23T10:16:29Z</time>
      </trkpt>
      <trkpt lat="46.61356" lon="12.30594">
        <ele>2316.43</ele>
        <time>2015-02-23T10:16:42Z</time>
      </trkpt>
      <trkpt lat="46.61355" lon="12.30609">
        <ele>2315.47</ele>
        <time>2015-02-23T10:16:54Z</time>
      </trkpt>
      <trkpt lat="46.61355" lon="12.30623">
        <ele>2315.95</ele>
        <time>2015-02-23T10:17:08Z</time>
      </trkpt>
      <trkpt lat="46.61355" lon="12.30641">
        <ele>2316.91</ele>
        <time>2015-02-23T10:17:22Z</time>
      </trkpt>
      <trkpt lat="46.61351" lon="12.30655">
        <ele>2317.4</ele>
        <time>2015-02-23T10:17:35Z</time>
      </trkpt>
      <trkpt lat="46.61348" lon="12.3067">
        <ele>2318.36</ele>
        <time>2015-02-23T10:17:49Z</time>
      </trkpt>
      <trkpt lat="46.61347" lon="12.30685">
        <ele>2318.84</ele>
        <time>2015-02-23T10:18:03Z</time>
      </trkpt>
      <trkpt lat="46.61349" lon="12.30692">
        <ele>2318.36</ele>
        <time>2015-02-23T10:18:19Z</time>
      </trkpt>
      <trkpt lat="46.61349" lon="12.30698">
        <ele>2319.32</ele>
        <time>2015-02-23T10:18:34Z</time>
      </trkpt>
      <trkpt lat="46.6135" lon="12.30707">
        <ele>2319.32</ele>
        <time>2015-02-23T10:18:49Z</time>
      </trkpt>
      <trkpt lat="46.61348" lon="12.30719">
        <ele>2319.32</ele>
        <time>2015-02-23T10:19:01Z</time>
      </trkpt>
      <trkpt lat="46.6135" lon="12.3072">
        <ele>2319.8</ele>
        <time>2015-02-23T10:19:17Z</time>
      </trkpt>
      <trkpt lat="46.61351" lon="12.30722">
        <ele>2319.8</ele>
        <time>2015-02-23T10:19:40Z</time>
      </trkpt>
      <trkpt lat="46.6135" lon="12.30721">
        <ele>2319.8</ele>
        <time>2015-02-23T10:19:57Z</time>
      </trkpt>
      <trkpt lat="46.6135" lon="12.30724">
        <ele>2319.32</ele>
        <time>2015-02-23T10:20:14Z</time>
      </trkpt>
      <trkpt lat="46.61351" lon="12.30724">
        <ele>2318.84</ele>
        <time>2015-02-23T10:20:50Z</time>
      </trkpt>
      <trkpt lat="46.61351" lon="12.30722">
        <ele>2318.36</ele>
        <time>2015-02-23T10:21:26Z</time>
      </trkpt>
      <trkpt lat="46.61349" lon="12.30723">
        <ele>2318.84</ele>
        <time>2015-02-23T10:22:05Z</time>
      </trkpt>
      <trkpt lat="46.61349" lon="12.3072">
        <ele>2318.84</ele>
        <time>2015-02-23T10:22:50Z</time>
      </trkpt>
      <trkpt lat="46.61349" lon="12.30721">
        <ele>2318.84</ele>
        <time>2015-02-23T10:23:34Z</time>
      </trkpt>
      <trkpt lat="46.61349" lon="12.30722">
        <ele>2319.32</ele>
        <time>2015-02-23T10:24:24Z</time>
      </trkpt>
      <trkpt lat="46.6135" lon="12.3072">
        <ele>2319.32</ele>
        <time>2015-02-23T10:25:06Z</time>
      </trkpt>
      <trkpt lat="46.6135" lon="12.3072">
        <ele>2319.32</ele>
        <time>2015-02-23T10:25:47Z</time>
      </trkpt>
      <trkpt lat="46.61349" lon="12.30722">
        <ele>2319.8</ele>
        <time>2015-02-23T10:26:26Z</time>
      </trkpt>
      <trkpt lat="46.61351" lon="12.30722">
        <ele>2319.8</ele>
        <time>2015-02-23T10:27:00Z</time>
      </trkpt>
      <trkpt lat="46.6135" lon="12.30722">
        <ele>2316.43</ele>
        <time>2015-02-23T10:27:03Z</time>
      </trkpt>
      <trkpt lat="46.6135" lon="12.30722">
        <ele>2316.91</ele>
        <time>2015-02-23T10:27:04Z</time>
      </trkpt>
      <trkpt lat="46.6135" lon="12.30722">
        <ele>2320.76</ele>
        <time>2015-02-23T10:27:05Z</time>
      </trkpt>
      <trkpt lat="46.6135" lon="12.30722">
        <ele>2324.12</ele>
        <time>2015-02-23T10:27:06Z</time>
      </trkpt>
      <trkpt lat="46.6135" lon="12.30722">
        <ele>2320.28</ele>
        <time>2015-02-23T10:27:07Z</time>
      </trkpt>
      <trkpt lat="46.61351" lon="12.30722">
        <ele>2320.76</ele>
        <time>2015-02-23T10:27:25Z</time>
      </trkpt>
      <trkpt lat="46.61351" lon="12.30723">
        <ele>2320.76</ele>
        <time>2015-02-23T10:27:43Z</time>
      </trkpt>
      <trkpt lat="46.61352" lon="12.30723">
        <ele>2321.24</ele>
        <time>2015-02-23T10:28:03Z</time>
      </trkpt>
      <trkpt lat="46.61358" lon="12.30728">
        <ele>2322.2</ele>
        <time>2015-02-23T10:28:15Z</time>
      </trkpt>
      <trkpt lat="46.61359" lon="12.30724">
        <ele>2322.2</ele>
        <time>2015-02-23T10:28:31Z</time>
      </trkpt>
      <trkpt lat="46.61364" lon="12.30734">
        <ele>2322.68</ele>
        <time>2015-02-23T10:28:47Z</time>
      </trkpt>
      <trkpt lat="46.61367" lon="12.30739">
        <ele>2322.68</ele>
        <time>2015-02-23T10:29:06Z</time>
      </trkpt>
      <trkpt lat="46.61362" lon="12.30748">
        <ele>2322.68</ele>
        <time>2015-02-23T10:29:17Z</time>
      </trkpt>
      <trkpt lat="46.61361" lon="12.3075">
        <ele>2322.68</ele>
        <time>2015-02-23T10:29:19Z</time>
      </trkpt>
      <trkpt lat="46.61363" lon="12.30767">
        <ele>2323.16</ele>
        <time>2015-02-23T10:29:34Z</time>
      </trkpt>
      <trkpt lat="46.61368" lon="12.30779">
        <ele>2323.64</ele>
        <time>2015-02-23T10:29:47Z</time>
      </trkpt>
      <trkpt lat="46.61374" lon="12.30789">
        <ele>2324.12</ele>
        <time>2015-02-23T10:30:02Z</time>
      </trkpt>
      <trkpt lat="46.61375" lon="12.30793">
        <ele>2324.61</ele>
        <time>2015-02-23T10:30:06Z</time>
      </trkpt>
      <trkpt lat="46.6138" lon="12.30808">
        <ele>2325.57</ele>
        <time>2015-02-23T10:30:21Z</time>
      </trkpt>
      <trkpt lat="46.61384" lon="12.30821">
        <ele>2327.01</ele>
        <time>2015-02-23T10:30:36Z</time>
      </trkpt>
      <trkpt lat="46.6139" lon="12.30832">
        <ele>2327.01</ele>
        <time>2015-02-23T10:30:51Z</time>
      </trkpt>
      <trkpt lat="46.61391" lon="12.30835">
        <ele>2327.01</ele>
        <time>2015-02-23T10:31:08Z</time>
      </trkpt>
      <trkpt lat="46.61393" lon="12.30836">
        <ele>2327.01</ele>
        <time>2015-02-23T10:31:28Z</time>
      </trkpt>
      <trkpt lat="46.61394" lon="12.30837">
        <ele>2327.01</ele>
        <time>2015-02-23T10:31:47Z</time>
      </trkpt>
      <trkpt lat="46.61392" lon="12.30837">
        <ele>2326.53</ele>
        <time>2015-02-23T10:32:05Z</time>
      </trkpt>
      <trkpt lat="46.61394" lon="12.30837">
        <ele>2326.05</ele>
        <time>2015-02-23T10:32:35Z</time>
      </trkpt>
      <trkpt lat="46.61393" lon="12.30836">
        <ele>2326.05</ele>
        <time>2015-02-23T10:33:15Z</time>
      </trkpt>
      <trkpt lat="46.61393" lon="12.30836">
        <ele>2326.05</ele>
        <time>2015-02-23T10:33:50Z</time>
      </trkpt>
      <trkpt lat="46.61393" lon="12.30836">
        <ele>2326.53</ele>
        <time>2015-02-23T10:34:09Z</time>
      </trkpt>
      <trkpt lat="46.61393" lon="12.30839">
        <ele>2327.01</ele>
        <time>2015-02-23T10:34:38Z</time>
      </trkpt>
      <trkpt lat="46.61394" lon="12.30838">
        <ele>2327.01</ele>
        <time>2015-02-23T10:34:54Z</time>
      </trkpt>
      <trkpt lat="46.61397" lon="12.30838">
        <ele>2327.49</ele>
        <time>2015-02-23T10:34:59Z</time>
      </trkpt>
      <trkpt lat="46.61407" lon="12.30847">
        <ele>2327.49</ele>
        <time>2015-02-23T10:35:13Z</time>
      </trkpt>
      <trkpt lat="46.61419" lon="12.30851">
        <ele>2329.41</ele>
        <time>2015-02-23T10:35:28Z</time>
      </trkpt>
      <trkpt lat="46.61431" lon="12.30856">
        <ele>2330.37</ele>
        <time>2015-02-23T10:35:46Z</time>
      </trkpt>
      <trkpt lat="46.61444" lon="12.3086">
        <ele>2331.81</ele>
        <time>2015-02-23T10:36:01Z</time>
      </trkpt>
      <trkpt lat="46.61456" lon="12.30865">
        <ele>2331.81</ele>
        <time>2015-02-23T10:36:16Z</time>
      </trkpt>
      <trkpt lat="46.61468" lon="12.30873">
        <ele>2332.3</ele>
        <time>2015-02-23T10:36:32Z</time>
      </trkpt>
      <trkpt lat="46.61481" lon="12.30875">
        <ele>2334.22</ele>
        <time>2015-02-23T10:36:50Z</time>
      </trkpt>
      <trkpt lat="46.61493" lon="12.30877">
        <ele>2335.18</ele>
        <time>2015-02-23T10:37:05Z</time>
      </trkpt>
      <trkpt lat="46.61501" lon="12.30882">
        <ele>2337.1</ele>
        <time>2015-02-23T10:37:22Z</time>
      </trkpt>
      <trkpt lat="46.6151" lon="12.30888">
        <ele>2337.58</ele>
        <time>2015-02-23T10:37:37Z</time>
      </trkpt>
      <trkpt lat="46.6152" lon="12.30899">
        <ele>2338.54</ele>
        <time>2015-02-23T10:37:54Z</time>
      </trkpt>
      <trkpt lat="46.61525" lon="12.30914">
        <ele>2339.51</ele>
        <time>2015-02-23T10:38:12Z</time>
      </trkpt>
      <trkpt lat="46.61535" lon="12.30927">
        <ele>2339.99</ele>
        <time>2015-02-23T10:38:31Z</time>
      </trkpt>
      <trkpt lat="46.61543" lon="12.30936">
        <ele>2341.43</ele>
        <time>2015-02-23T10:38:47Z</time>
      </trkpt>
      <trkpt lat="46.61552" lon="12.30947">
        <ele>2341.91</ele>
        <time>2015-02-23T10:39:04Z</time>
      </trkpt>
      <trkpt lat="46.61564" lon="12.30952">
        <ele>2342.87</ele>
        <time>2015-02-23T10:39:24Z</time>
      </trkpt>
      <trkpt lat="46.61574" lon="12.30957">
        <ele>2343.35</ele>
        <time>2015-02-23T10:39:41Z</time>
      </trkpt>
      <trkpt lat="46.61585" lon="12.30966">
        <ele>2344.31</ele>
        <time>2015-02-23T10:40:00Z</time>
      </trkpt>
      <trkpt lat="46.61594" lon="12.30973">
        <ele>2344.79</ele>
        <time>2015-02-23T10:40:16Z</time>
      </trkpt>
      <trkpt lat="46.61605" lon="12.30976">
        <ele>2345.27</ele>
        <time>2015-02-23T10:40:34Z</time>
      </trkpt>
      <trkpt lat="46.61617" lon="12.30979">
        <ele>2345.75</ele>
        <time>2015-02-23T10:40:50Z</time>
      </trkpt>
      <trkpt lat="46.61628" lon="12.30985">
        <ele>2345.75</ele>
        <time>2015-02-23T10:41:08Z</time>
      </trkpt>
      <trkpt lat="46.61641" lon="12.30993">
        <ele>2346.23</ele>
        <time>2015-02-23T10:41:27Z</time>
      </trkpt>
      <trkpt lat="46.61651" lon="12.30999">
        <ele>2346.23</ele>
        <time>2015-02-23T10:41:43Z</time>
      </trkpt>
      <trkpt lat="46.61659" lon="12.31005">
        <ele>2347.2</ele>
        <time>2015-02-23T10:42:01Z</time>
      </trkpt>
      <trkpt lat="46.61668" lon="12.3101">
        <ele>2347.68</ele>
        <time>2015-02-23T10:42:18Z</time>
      </trkpt>
      <trkpt lat="46.6168" lon="12.31021">
        <ele>2346.72</ele>
        <time>2015-02-23T10:42:32Z</time>
      </trkpt>
      <trkpt lat="46.61691" lon="12.31032">
        <ele>2347.2</ele>
        <time>2015-02-23T10:42:46Z</time>
      </trkpt>
      <trkpt lat="46.61701" lon="12.31041">
        <ele>2347.2</ele>
        <time>2015-02-23T10:43:02Z</time>
      </trkpt>
      <trkpt lat="46.61712" lon="12.31054">
        <ele>2347.68</ele>
        <time>2015-02-23T10:43:20Z</time>
      </trkpt>
      <trkpt lat="46.61722" lon="12.31063">
        <ele>2347.2</ele>
        <time>2015-02-23T10:43:36Z</time>
      </trkpt>
      <trkpt lat="46.61735" lon="12.31074">
        <ele>2347.2</ele>
        <time>2015-02-23T10:43:54Z</time>
      </trkpt>
      <trkpt lat="46.61745" lon="12.31082">
        <ele>2347.2</ele>
        <time>2015-02-23T10:44:10Z</time>
      </trkpt>
      <trkpt lat="46.6175" lon="12.31086">
        <ele>2347.68</ele>
        <time>2015-02-23T10:44:21Z</time>
      </trkpt>
      <trkpt lat="46.61759" lon="12.31092">
        <ele>2348.16</ele>
        <time>2015-02-23T10:44:37Z</time>
      </trkpt>
      <trkpt lat="46.61768" lon="12.311">
        <ele>2349.12</ele>
        <time>2015-02-23T10:44:53Z</time>
      </trkpt>
      <trkpt lat="46.61779" lon="12.3111">
        <ele>2350.56</ele>
        <time>2015-02-23T10:45:14Z</time>
      </trkpt>
      <trkpt lat="46.61786" lon="12.31121">
        <ele>2352.48</ele>
        <time>2015-02-23T10:45:33Z</time>
      </trkpt>
      <trkpt lat="46.6179" lon="12.31127">
        <ele>2353.44</ele>
        <time>2015-02-23T10:45:46Z</time>
      </trkpt>
      <trkpt lat="46.6179" lon="12.31128">
        <ele>2353.93</ele>
        <time>2015-02-23T10:45:59Z</time>
      </trkpt>
      <trkpt lat="46.61802" lon="12.31135">
        <ele>2355.85</ele>
        <time>2015-02-23T10:46:17Z</time>
      </trkpt>
      <trkpt lat="46.61804" lon="12.31135">
        <ele>2356.33</ele>
        <time>2015-02-23T10:46:32Z</time>
      </trkpt>
      <trkpt lat="46.6181" lon="12.31145">
        <ele>2356.33</ele>
        <time>2015-02-23T10:46:46Z</time>
      </trkpt>
      <trkpt lat="46.61811" lon="12.31149">
        <ele>2355.85</ele>
        <time>2015-02-23T10:46:49Z</time>
      </trkpt>
      <trkpt lat="46.61811" lon="12.31171">
        <ele>2354.89</ele>
        <time>2015-02-23T10:47:04Z</time>
      </trkpt>
      <trkpt lat="46.61811" lon="12.3117">
        <ele>2353.93</ele>
        <time>2015-02-23T10:47:24Z</time>
      </trkpt>
      <trkpt lat="46.61811" lon="12.31171">
        <ele>2353.93</ele>
        <time>2015-02-23T10:47:56Z</time>
      </trkpt>
      <trkpt lat="46.61811" lon="12.3117">
        <ele>2354.41</ele>
        <time>2015-02-23T10:48:28Z</time>
      </trkpt>
      <trkpt lat="46.6181" lon="12.31171">
        <ele>2354.41</ele>
        <time>2015-02-23T10:48:56Z</time>
      </trkpt>
      <trkpt lat="46.6181" lon="12.31171">
        <ele>2354.41</ele>
        <time>2015-02-23T10:49:27Z</time>
      </trkpt>
      <trkpt lat="46.61809" lon="12.31172">
        <ele>2354.41</ele>
        <time>2015-02-23T10:49:57Z</time>
      </trkpt>
      <trkpt lat="46.6181" lon="12.31171">
        <ele>2354.41</ele>
        <time>2015-02-23T10:50:30Z</time>
      </trkpt>
      <trkpt lat="46.6181" lon="12.31174">
        <ele>2354.41</ele>
        <time>2015-02-23T10:50:58Z</time>
      </trkpt>
      <trkpt lat="46.61811" lon="12.31171">
        <ele>2354.41</ele>
        <time>2015-02-23T10:51:24Z</time>
      </trkpt>
      <trkpt lat="46.6181" lon="12.3117">
        <ele>2354.41</ele>
        <time>2015-02-23T10:52:02Z</time>
      </trkpt>
      <trkpt lat="46.61811" lon="12.31171">
        <ele>2354.89</ele>
        <time>2015-02-23T10:52:26Z</time>
      </trkpt>
      <trkpt lat="46.61811" lon="12.31172">
        <ele>2355.37</ele>
        <time>2015-02-23T10:52:39Z</time>
      </trkpt>
      <trkpt lat="46.61811" lon="12.31179">
        <ele>2355.85</ele>
        <time>2015-02-23T10:53:00Z</time>
      </trkpt>
      <trkpt lat="46.61812" lon="12.31194">
        <ele>2356.81</ele>
        <time>2015-02-23T10:53:15Z</time>
      </trkpt>
      <trkpt lat="46.61813" lon="12.31206">
        <ele>2356.81</ele>
        <time>2015-02-23T10:53:30Z</time>
      </trkpt>
      <trkpt lat="46.61814" lon="12.31211">
        <ele>2356.81</ele>
        <time>2015-02-23T10:53:34Z</time>
      </trkpt>
      <trkpt lat="46.61818" lon="12.31233">
        <ele>2357.77</ele>
        <time>2015-02-23T10:53:51Z</time>
      </trkpt>
      <trkpt lat="46.61819" lon="12.31237">
        <ele>2358.73</ele>
        <time>2015-02-23T10:53:55Z</time>
      </trkpt>
      <trkpt lat="46.61823" lon="12.31247">
        <ele>2359.21</ele>
        <time>2015-02-23T10:54:03Z</time>
      </trkpt>
      <trkpt lat="46.6183" lon="12.31255">
        <ele>2360.65</ele>
        <time>2015-02-23T10:54:19Z</time>
      </trkpt>
      <trkpt lat="46.61836" lon="12.31265">
        <ele>2362.1</ele>
        <time>2015-02-23T10:54:38Z</time>
      </trkpt>
      <trkpt lat="46.6184" lon="12.3128">
        <ele>2363.54</ele>
        <time>2015-02-23T10:54:53Z</time>
      </trkpt>
      <trkpt lat="46.61843" lon="12.3129">
        <ele>2363.06</ele>
        <time>2015-02-23T10:55:02Z</time>
      </trkpt>
      <trkpt lat="46.61845" lon="12.31301">
        <ele>2363.06</ele>
        <time>2015-02-23T10:55:09Z</time>
      </trkpt>
      <trkpt lat="46.6185" lon="12.31319">
        <ele>2362.58</ele>
        <time>2015-02-23T10:55:23Z</time>
      </trkpt>
      <trkpt lat="46.61852" lon="12.31316">
        <ele>2362.58</ele>
        <time>2015-02-23T10:55:42Z</time>
      </trkpt>
      <trkpt lat="46.61861" lon="12.31334">
        <ele>2362.1</ele>
        <time>2015-02-23T10:55:56Z</time>
      </trkpt>
      <trkpt lat="46.61862" lon="12.31338">
        <ele>2362.1</ele>
        <time>2015-02-23T10:56:00Z</time>
      </trkpt>
      <trkpt lat="46.61871" lon="12.31347">
        <ele>2364.5</ele>
        <time>2015-02-23T10:56:14Z</time>
      </trkpt>
      <trkpt lat="46.61878" lon="12.31353">
        <ele>2366.9</ele>
        <time>2015-02-23T10:56:31Z</time>
      </trkpt>
      <trkpt lat="46.61889" lon="12.31362">
        <ele>2367.86</ele>
        <time>2015-02-23T10:56:47Z</time>
      </trkpt>
      <trkpt lat="46.61899" lon="12.31369">
        <ele>2368.83</ele>
        <time>2015-02-23T10:57:05Z</time>
      </trkpt>
      <trkpt lat="46.6191" lon="12.31377">
        <ele>2370.27</ele>
        <time>2015-02-23T10:57:20Z</time>
      </trkpt>
      <trkpt lat="46.6192" lon="12.31382">
        <ele>2371.71</ele>
        <time>2015-02-23T10:57:38Z</time>
      </trkpt>
      <trkpt lat="46.61929" lon="12.31387">
        <ele>2373.15</ele>
        <time>2015-02-23T10:57:56Z</time>
      </trkpt>
      <trkpt lat="46.61937" lon="12.31392">
        <ele>2375.07</ele>
        <time>2015-02-23T10:58:13Z</time>
      </trkpt>
      <trkpt lat="46.61946" lon="12.31396">
        <ele>2376.52</ele>
        <time>2015-02-23T10:58:30Z</time>
      </trkpt>
      <trkpt lat="46.61953" lon="12.31401">
        <ele>2378.92</ele>
        <time>2015-02-23T10:58:46Z</time>
      </trkpt>
      <trkpt lat="46.6196" lon="12.31404">
        <ele>2380.36</ele>
        <time>2015-02-23T10:59:02Z</time>
      </trkpt>
      <trkpt lat="46.61967" lon="12.31408">
        <ele>2382.76</ele>
        <time>2015-02-23T10:59:19Z</time>
      </trkpt>
      <trkpt lat="46.61975" lon="12.31409">
        <ele>2384.69</ele>
        <time>2015-02-23T10:59:36Z</time>
      </trkpt>
      <trkpt lat="46.61982" lon="12.31412">
        <ele>2386.13</ele>
        <time>2015-02-23T10:59:51Z</time>
      </trkpt>
      <trkpt lat="46.61989" lon="12.31416">
        <ele>2387.57</ele>
        <time>2015-02-23T11:00:07Z</time>
      </trkpt>
      <trkpt lat="46.61996" lon="12.31421">
        <ele>2389.01</ele>
        <time>2015-02-23T11:00:22Z</time>
      </trkpt>
      <trkpt lat="46.62002" lon="12.31426">
        <ele>2391.42</ele>
        <time>2015-02-23T11:00:39Z</time>
      </trkpt>
      <trkpt lat="46.62009" lon="12.31429">
        <ele>2393.34</ele>
        <time>2015-02-23T11:00:55Z</time>
      </trkpt>
      <trkpt lat="46.62014" lon="12.31435">
        <ele>2394.78</ele>
        <time>2015-02-23T11:01:10Z</time>
      </trkpt>
      <trkpt lat="46.62022" lon="12.31437">
        <ele>2396.7</ele>
        <time>2015-02-23T11:01:24Z</time>
      </trkpt>
      <trkpt lat="46.62032" lon="12.31443">
        <ele>2398.63</ele>
        <time>2015-02-23T11:01:43Z</time>
      </trkpt>
      <trkpt lat="46.62035" lon="12.31436">
        <ele>2399.11</ele>
        <time>2015-02-23T11:02:03Z</time>
      </trkpt>
      <trkpt lat="46.62046" lon="12.31436">
        <ele>2399.11</ele>
        <time>2015-02-23T11:02:21Z</time>
      </trkpt>
      <trkpt lat="46.62056" lon="12.31434">
        <ele>2400.55</ele>
        <time>2015-02-23T11:02:35Z</time>
      </trkpt>
      <trkpt lat="46.62057" lon="12.31434">
        <ele>2400.55</ele>
        <time>2015-02-23T11:02:37Z</time>
      </trkpt>
      <trkpt lat="46.62069" lon="12.31438">
        <ele>2401.99</ele>
        <time>2015-02-23T11:02:54Z</time>
      </trkpt>
      <trkpt lat="46.62079" lon="12.31438">
        <ele>2403.43</ele>
        <time>2015-02-23T11:03:12Z</time>
      </trkpt>
      <trkpt lat="46.62091" lon="12.31436">
        <ele>2404.39</ele>
        <time>2015-02-23T11:03:29Z</time>
      </trkpt>
      <trkpt lat="46.62099" lon="12.31433">
        <ele>2404.88</ele>
        <time>2015-02-23T11:03:45Z</time>
      </trkpt>
      <trkpt lat="46.62107" lon="12.3143">
        <ele>2405.36</ele>
        <time>2015-02-23T11:04:02Z</time>
      </trkpt>
      <trkpt lat="46.62116" lon="12.31425">
        <ele>2407.28</ele>
        <time>2015-02-23T11:04:20Z</time>
      </trkpt>
      <trkpt lat="46.62128" lon="12.31421">
        <ele>2408.72</ele>
        <time>2015-02-23T11:04:38Z</time>
      </trkpt>
      <trkpt lat="46.62141" lon="12.31423">
        <ele>2410.16</ele>
        <time>2015-02-23T11:04:55Z</time>
      </trkpt>
      <trkpt lat="46.62149" lon="12.31424">
        <ele>2410.64</ele>
        <time>2015-02-23T11:05:10Z</time>
      </trkpt>
      <trkpt lat="46.62156" lon="12.31423">
        <ele>2411.6</ele>
        <time>2015-02-23T11:05:31Z</time>
      </trkpt>
      <trkpt lat="46.62166" lon="12.31424">
        <ele>2414.01</ele>
        <time>2015-02-23T11:05:51Z</time>
      </trkpt>
      <trkpt lat="46.62176" lon="12.31423">
        <ele>2415.93</ele>
        <time>2015-02-23T11:06:09Z</time>
      </trkpt>
      <trkpt lat="46.62185" lon="12.31422">
        <ele>2418.33</ele>
        <time>2015-02-23T11:06:29Z</time>
      </trkpt>
      <trkpt lat="46.62193" lon="12.31418">
        <ele>2420.26</ele>
        <time>2015-02-23T11:06:48Z</time>
      </trkpt>
      <trkpt lat="46.62201" lon="12.31416">
        <ele>2421.7</ele>
        <time>2015-02-23T11:07:04Z</time>
      </trkpt>
      <trkpt lat="46.62208" lon="12.31412">
        <ele>2423.62</ele>
        <time>2015-02-23T11:07:21Z</time>
      </trkpt>
      <trkpt lat="46.62214" lon="12.31408">
        <ele>2425.54</ele>
        <time>2015-02-23T11:07:38Z</time>
      </trkpt>
      <trkpt lat="46.62218" lon="12.31403">
        <ele>2427.47</ele>
        <time>2015-02-23T11:07:55Z</time>
      </trkpt>
      <trkpt lat="46.62224" lon="12.31398">
        <ele>2428.91</ele>
        <time>2015-02-23T11:08:10Z</time>
      </trkpt>
      <trkpt lat="46.62228" lon="12.31392">
        <ele>2430.83</ele>
        <time>2015-02-23T11:08:25Z</time>
      </trkpt>
      <trkpt lat="46.62233" lon="12.31387">
        <ele>2431.79</ele>
        <time>2015-02-23T11:08:38Z</time>
      </trkpt>
      <trkpt lat="46.6224" lon="12.31381">
        <ele>2432.75</ele>
        <time>2015-02-23T11:08:53Z</time>
      </trkpt>
      <trkpt lat="46.62246" lon="12.31372">
        <ele>2434.2</ele>
        <time>2015-02-23T11:09:09Z</time>
      </trkpt>
      <trkpt lat="46.62252" lon="12.31367">
        <ele>2435.16</ele>
        <time>2015-02-23T11:09:24Z</time>
      </trkpt>
      <trkpt lat="46.62257" lon="12.3136">
        <ele>2436.12</ele>
        <time>2015-02-23T11:09:39Z</time>
      </trkpt>
      <trkpt lat="46.62258" lon="12.31353">
        <ele>2437.08</ele>
        <time>2015-02-23T11:09:59Z</time>
      </trkpt>
      <trkpt lat="46.62263" lon="12.31345">
        <ele>2439</ele>
        <time>2015-02-23T11:10:14Z</time>
      </trkpt>
      <trkpt lat="46.62265" lon="12.31336">
        <ele>2440.44</ele>
        <time>2015-02-23T11:10:29Z</time>
      </trkpt>
      <trkpt lat="46.62265" lon="12.31325">
        <ele>2442.37</ele>
        <time>2015-02-23T11:10:44Z</time>
      </trkpt>
      <trkpt lat="46.62266" lon="12.31317">
        <ele>2444.77</ele>
        <time>2015-02-23T11:11:01Z</time>
      </trkpt>
      <trkpt lat="46.62269" lon="12.31307">
        <ele>2446.69</ele>
        <time>2015-02-23T11:11:20Z</time>
      </trkpt>
      <trkpt lat="46.62273" lon="12.31305">
        <ele>2447.17</ele>
        <time>2015-02-23T11:11:37Z</time>
      </trkpt>
      <trkpt lat="46.62275" lon="12.3131">
        <ele>2449.1</ele>
        <time>2015-02-23T11:11:53Z</time>
      </trkpt>
      <trkpt lat="46.62281" lon="12.3131">
        <ele>2451.02</ele>
        <time>2015-02-23T11:12:08Z</time>
      </trkpt>
      <trkpt lat="46.62282" lon="12.31311">
        <ele>2451.5</ele>
        <time>2015-02-23T11:12:11Z</time>
      </trkpt>
      <trkpt lat="46.62283" lon="12.313">
        <ele>2453.42</ele>
        <time>2015-02-23T11:12:25Z</time>
      </trkpt>
      <trkpt lat="46.62284" lon="12.31293">
        <ele>2454.86</ele>
        <time>2015-02-23T11:12:40Z</time>
      </trkpt>
      <trkpt lat="46.62289" lon="12.31299">
        <ele>2455.82</ele>
        <time>2015-02-23T11:12:56Z</time>
      </trkpt>
      <trkpt lat="46.62292" lon="12.31294">
        <ele>2457.75</ele>
        <time>2015-02-23T11:13:15Z</time>
      </trkpt>
      <trkpt lat="46.62294" lon="12.31285">
        <ele>2459.19</ele>
        <time>2015-02-23T11:13:30Z</time>
      </trkpt>
      <trkpt lat="46.62299" lon="12.3128">
        <ele>2460.63</ele>
        <time>2015-02-23T11:13:45Z</time>
      </trkpt>
      <trkpt lat="46.62301" lon="12.3127">
        <ele>2462.55</ele>
        <time>2015-02-23T11:14:00Z</time>
      </trkpt>
      <trkpt lat="46.62303" lon="12.31262">
        <ele>2463.52</ele>
        <time>2015-02-23T11:14:14Z</time>
      </trkpt>
      <trkpt lat="46.62305" lon="12.31253">
        <ele>2465.44</ele>
        <time>2015-02-23T11:14:29Z</time>
      </trkpt>
      <trkpt lat="46.62304" lon="12.31244">
        <ele>2466.88</ele>
        <time>2015-02-23T11:14:45Z</time>
      </trkpt>
      <trkpt lat="46.62305" lon="12.31236">
        <ele>2467.36</ele>
        <time>2015-02-23T11:15:02Z</time>
      </trkpt>
      <trkpt lat="46.62308" lon="12.31224">
        <ele>2469.28</ele>
        <time>2015-02-23T11:15:20Z</time>
      </trkpt>
      <trkpt lat="46.62313" lon="12.31213">
        <ele>2470.24</ele>
        <time>2015-02-23T11:15:42Z</time>
      </trkpt>
      <trkpt lat="46.6232" lon="12.31212">
        <ele>2470.24</ele>
        <time>2015-02-23T11:15:57Z</time>
      </trkpt>
      <trkpt lat="46.62327" lon="12.31209">
        <ele>2470.73</ele>
        <time>2015-02-23T11:16:13Z</time>
      </trkpt>
      <trkpt lat="46.62326" lon="12.31207">
        <ele>2470.73</ele>
        <time>2015-02-23T11:16:33Z</time>
      </trkpt>
      <trkpt lat="46.62326" lon="12.31209">
        <ele>2470.73</ele>
        <time>2015-02-23T11:17:08Z</time>
      </trkpt>
      <trkpt lat="46.62325" lon="12.31207">
        <ele>2470.73</ele>
        <time>2015-02-23T11:17:29Z</time>
      </trkpt>
      <trkpt lat="46.62324" lon="12.31209">
        <ele>2471.21</ele>
        <time>2015-02-23T11:17:47Z</time>
      </trkpt>
      <trkpt lat="46.62327" lon="12.31209">
        <ele>2472.17</ele>
        <time>2015-02-23T11:18:03Z</time>
      </trkpt>
      <trkpt lat="46.62325" lon="12.31208">
        <ele>2471.21</ele>
        <time>2015-02-23T11:18:28Z</time>
      </trkpt>
      <trkpt lat="46.62325" lon="12.31208">
        <ele>2471.21</ele>
        <time>2015-02-23T11:18:48Z</time>
      </trkpt>
      <trkpt lat="46.62319" lon="12.31208">
        <ele>2471.21</ele>
        <time>2015-02-23T11:18:58Z</time>
      </trkpt>
      <trkpt lat="46.62314" lon="12.31209">
        <ele>2470.73</ele>
        <time>2015-02-23T11:19:12Z</time>
      </trkpt>
      <trkpt lat="46.62314" lon="12.31209">
        <ele>2471.69</ele>
        <time>2015-02-23T11:19:14Z</time>
      </trkpt>
      <trkpt lat="46.62314" lon="12.31208">
        <ele>2470.24</ele>
        <time>2015-02-23T11:19:25Z</time>
      </trkpt>
      <trkpt lat="46.62321" lon="12.31205">
        <ele>2471.21</ele>
        <time>2015-02-23T11:19:37Z</time>
      </trkpt>
      <trkpt lat="46.62325" lon="12.31205">
        <ele>2471.69</ele>
        <time>2015-02-23T11:19:55Z</time>
      </trkpt>
      <trkpt lat="46.62326" lon="12.31206">
        <ele>2471.69</ele>
        <time>2015-02-23T11:20:15Z</time>
      </trkpt>
      <trkpt lat="46.62326" lon="12.31206">
        <ele>2471.69</ele>
        <time>2015-02-23T11:20:33Z</time>
      </trkpt>
      <trkpt lat="46.62326" lon="12.31206">
        <ele>2471.69</ele>
        <time>2015-02-23T11:20:56Z</time>
      </trkpt>
      <trkpt lat="46.62328" lon="12.31204">
        <ele>2471.69</ele>
        <time>2015-02-23T11:21:12Z</time>
      </trkpt>
      <trkpt lat="46.62326" lon="12.31205">
        <ele>2472.17</ele>
        <time>2015-02-23T11:21:29Z</time>
      </trkpt>
      <trkpt lat="46.62325" lon="12.31205">
        <ele>2470.73</ele>
        <time>2015-02-23T11:21:34Z</time>
      </trkpt>
      <trkpt lat="46.62327" lon="12.31205">
        <ele>2471.21</ele>
        <time>2015-02-23T11:22:01Z</time>
      </trkpt>
      <trkpt lat="46.62325" lon="12.31209">
        <ele>2471.21</ele>
        <time>2015-02-23T11:22:26Z</time>
      </trkpt>
      <trkpt lat="46.62324" lon="12.31208">
        <ele>2471.21</ele>
        <time>2015-02-23T11:23:04Z</time>
      </trkpt>
      <trkpt lat="46.62326" lon="12.31208">
        <ele>2472.17</ele>
        <time>2015-02-23T11:23:37Z</time>
      </trkpt>
      <trkpt lat="46.62325" lon="12.31208">
        <ele>2472.17</ele>
        <time>2015-02-23T11:24:10Z</time>
      </trkpt>
      <trkpt lat="46.62324" lon="12.31208">
        <ele>2472.17</ele>
        <time>2015-02-23T11:24:45Z</time>
      </trkpt>
      <trkpt lat="46.62323" lon="12.31209">
        <ele>2472.17</ele>
        <time>2015-02-23T11:25:07Z</time>
      </trkpt>
      <trkpt lat="46.62323" lon="12.31206">
        <ele>2472.65</ele>
        <time>2015-02-23T11:25:43Z</time>
      </trkpt>
      <trkpt lat="46.62324" lon="12.31204">
        <ele>2472.65</ele>
        <time>2015-02-23T11:25:56Z</time>
      </trkpt>
      <trkpt lat="46.62324" lon="12.31204">
        <ele>2473.61</ele>
        <time>2015-02-23T11:26:29Z</time>
      </trkpt>
      <trkpt lat="46.62325" lon="12.31208">
        <ele>2475.05</ele>
        <time>2015-02-23T11:26:51Z</time>
      </trkpt>
      <trkpt lat="46.62324" lon="12.31207">
        <ele>2473.61</ele>
        <time>2015-02-23T11:27:10Z</time>
      </trkpt>
      <trkpt lat="46.62324" lon="12.31209">
        <ele>2473.61</ele>
        <time>2015-02-23T11:27:24Z</time>
      </trkpt>
      <trkpt lat="46.62324" lon="12.31208">
        <ele>2473.13</ele>
        <time>2015-02-23T11:27:49Z</time>
      </trkpt>
      <trkpt lat="46.62326" lon="12.31208">
        <ele>2473.61</ele>
        <time>2015-02-23T11:28:09Z</time>
      </trkpt>
      <trkpt lat="46.62325" lon="12.31208">
        <ele>2473.61</ele>
        <time>2015-02-23T11:28:34Z</time>
      </trkpt>
      <trkpt lat="46.62326" lon="12.31207">
        <ele>2473.61</ele>
        <time>2015-02-23T11:28:56Z</time>
      </trkpt>
      <trkpt lat="46.62326" lon="12.31206">
        <ele>2473.61</ele>
        <time>2015-02-23T11:29:21Z</time>
      </trkpt>
      <trkpt lat="46.62324" lon="12.31208">
        <ele>2473.13</ele>
        <time>2015-02-23T11:29:39Z</time>
      </trkpt>
      <trkpt lat="46.62326" lon="12.31206">
        <ele>2473.61</ele>
        <time>2015-02-23T11:29:58Z</time>
      </trkpt>
      <trkpt lat="46.62324" lon="12.31205">
        <ele>2473.13</ele>
        <time>2015-02-23T11:30:19Z</time>
      </trkpt>
      <trkpt lat="46.62325" lon="12.31207">
        <ele>2473.61</ele>
        <time>2015-02-23T11:30:43Z</time>
      </trkpt>
      <trkpt lat="46.62325" lon="12.31207">
        <ele>2473.61</ele>
        <time>2015-02-23T11:31:04Z</time>
      </trkpt>
      <trkpt lat="46.62326" lon="12.31206">
        <ele>2473.61</ele>
        <time>2015-02-23T11:31:28Z</time>
      </trkpt>
      <trkpt lat="46.62328" lon="12.31206">
        <ele>2472.65</ele>
        <time>2015-02-23T11:31:33Z</time>
      </trkpt>
      <trkpt lat="46.62339" lon="12.31212">
        <ele>2469.76</ele>
        <time>2015-02-23T11:31:39Z</time>
      </trkpt>
      <trkpt lat="46.62343" lon="12.31213">
        <ele>2468.32</ele>
        <time>2015-02-23T11:31:42Z</time>
      </trkpt>
      <trkpt lat="46.62342" lon="12.31204">
        <ele>2465.44</ele>
        <time>2015-02-23T11:31:44Z</time>
      </trkpt>
      <trkpt lat="46.62342" lon="12.312">
        <ele>2463.52</ele>
        <time>2015-02-23T11:31:45Z</time>
      </trkpt>
      <trkpt lat="46.62345" lon="12.31198">
        <ele>2461.11</ele>
        <time>2015-02-23T11:31:47Z</time>
      </trkpt>
      <trkpt lat="46.62348" lon="12.31198">
        <ele>2459.67</ele>
        <time>2015-02-23T11:31:48Z</time>
      </trkpt>
      <trkpt lat="46.62351" lon="12.31198">
        <ele>2459.19</ele>
        <time>2015-02-23T11:31:49Z</time>
      </trkpt>
      <trkpt lat="46.62354" lon="12.31199">
        <ele>2458.23</ele>
        <time>2015-02-23T11:31:50Z</time>
      </trkpt>
      <trkpt lat="46.62358" lon="12.31204">
        <ele>2457.27</ele>
        <time>2015-02-23T11:31:51Z</time>
      </trkpt>
      <trkpt lat="46.62362" lon="12.31208">
        <ele>2457.27</ele>
        <time>2015-02-23T11:31:52Z</time>
      </trkpt>
      <trkpt lat="46.62375" lon="12.31221">
        <ele>2453.9</ele>
        <time>2015-02-23T11:31:57Z</time>
      </trkpt>
      <trkpt lat="46.62388" lon="12.31235">
        <ele>2450.06</ele>
        <time>2015-02-23T11:32:02Z</time>
      </trkpt>
      <trkpt lat="46.624" lon="12.3125">
        <ele>2446.69</ele>
        <time>2015-02-23T11:32:06Z</time>
      </trkpt>
      <trkpt lat="46.6241" lon="12.31262">
        <ele>2443.33</ele>
        <time>2015-02-23T11:32:09Z</time>
      </trkpt>
      <trkpt lat="46.62421" lon="12.31274">
        <ele>2439.48</ele>
        <time>2015-02-23T11:32:12Z</time>
      </trkpt>
      <trkpt lat="46.62426" lon="12.31278">
        <ele>2438.04</ele>
        <time>2015-02-23T11:32:13Z</time>
      </trkpt>
      <trkpt lat="46.62433" lon="12.31282">
        <ele>2436.12</ele>
        <time>2015-02-23T11:32:14Z</time>
      </trkpt>
      <trkpt lat="46.62442" lon="12.31286">
        <ele>2431.79</ele>
        <time>2015-02-23T11:32:15Z</time>
      </trkpt>
      <trkpt lat="46.62469" lon="12.31296">
        <ele>2428.91</ele>
        <time>2015-02-23T11:32:19Z</time>
      </trkpt>
      <trkpt lat="46.62475" lon="12.31297">
        <ele>2427.95</ele>
        <time>2015-02-23T11:32:20Z</time>
      </trkpt>
      <trkpt lat="46.6248" lon="12.31298">
        <ele>2427.95</ele>
        <time>2015-02-23T11:32:21Z</time>
      </trkpt>
      <trkpt lat="46.62485" lon="12.31297">
        <ele>2426.99</ele>
        <time>2015-02-23T11:32:22Z</time>
      </trkpt>
      <trkpt lat="46.62511" lon="12.31288">
        <ele>2424.1</ele>
        <time>2015-02-23T11:32:29Z</time>
      </trkpt>
      <trkpt lat="46.62529" lon="12.31284">
        <ele>2421.7</ele>
        <time>2015-02-23T11:32:35Z</time>
      </trkpt>
      <trkpt lat="46.62546" lon="12.31276">
        <ele>2418.33</ele>
        <time>2015-02-23T11:32:41Z</time>
      </trkpt>
      <trkpt lat="46.62563" lon="12.31272">
        <ele>2414.97</ele>
        <time>2015-02-23T11:32:46Z</time>
      </trkpt>
      <trkpt lat="46.62566" lon="12.31271">
        <ele>2414.49</ele>
        <time>2015-02-23T11:32:47Z</time>
      </trkpt>
      <trkpt lat="46.62582" lon="12.31269">
        <ele>2411.12</ele>
        <time>2015-02-23T11:32:51Z</time>
      </trkpt>
      <trkpt lat="46.62606" lon="12.31269">
        <ele>2409.2</ele>
        <time>2015-02-23T11:33:00Z</time>
      </trkpt>
      <trkpt lat="46.62615" lon="12.31269">
        <ele>2410.16</ele>
        <time>2015-02-23T11:33:15Z</time>
      </trkpt>
      <trkpt lat="46.62623" lon="12.31267">
        <ele>2410.16</ele>
        <time>2015-02-23T11:33:29Z</time>
      </trkpt>
      <trkpt lat="46.6263" lon="12.31263">
        <ele>2410.16</ele>
        <time>2015-02-23T11:33:44Z</time>
      </trkpt>
      <trkpt lat="46.62632" lon="12.3126">
        <ele>2410.16</ele>
        <time>2015-02-23T11:33:48Z</time>
      </trkpt>
      <trkpt lat="46.62636" lon="12.31254">
        <ele>2409.68</ele>
        <time>2015-02-23T11:34:03Z</time>
      </trkpt>
      <trkpt lat="46.62634" lon="12.31257">
        <ele>2410.16</ele>
        <time>2015-02-23T11:34:24Z</time>
      </trkpt>
      <trkpt lat="46.62634" lon="12.31257">
        <ele>2410.16</ele>
        <time>2015-02-23T11:34:46Z</time>
      </trkpt>
      <trkpt lat="46.62634" lon="12.31258">
        <ele>2409.68</ele>
        <time>2015-02-23T11:35:08Z</time>
      </trkpt>
      <trkpt lat="46.62635" lon="12.31259">
        <ele>2410.16</ele>
        <time>2015-02-23T11:35:29Z</time>
      </trkpt>
      <trkpt lat="46.62634" lon="12.31258">
        <ele>2409.68</ele>
        <time>2015-02-23T11:35:58Z</time>
      </trkpt>
      <trkpt lat="46.62634" lon="12.31258">
        <ele>2409.68</ele>
        <time>2015-02-23T11:36:19Z</time>
      </trkpt>
      <trkpt lat="46.62634" lon="12.31258">
        <ele>2409.68</ele>
        <time>2015-02-23T11:36:44Z</time>
      </trkpt>
      <trkpt lat="46.62635" lon="12.31259">
        <ele>2409.2</ele>
        <time>2015-02-23T11:37:09Z</time>
      </trkpt>
      <trkpt lat="46.62636" lon="12.31259">
        <ele>2409.2</ele>
        <time>2015-02-23T11:37:28Z</time>
      </trkpt>
      <trkpt lat="46.62635" lon="12.31259">
        <ele>2409.2</ele>
        <time>2015-02-23T11:37:54Z</time>
      </trkpt>
      <trkpt lat="46.62633" lon="12.31258">
        <ele>2409.2</ele>
        <time>2015-02-23T11:38:15Z</time>
      </trkpt>
      <trkpt lat="46.62634" lon="12.31259">
        <ele>2408.72</ele>
        <time>2015-02-23T11:38:35Z</time>
      </trkpt>
      <trkpt lat="46.62642" lon="12.31258">
        <ele>2408.72</ele>
        <time>2015-02-23T11:38:51Z</time>
      </trkpt>
      <trkpt lat="46.62654" lon="12.31259">
        <ele>2407.28</ele>
        <time>2015-02-23T11:39:07Z</time>
      </trkpt>
      <trkpt lat="46.62672" lon="12.31255">
        <ele>2403.43</ele>
        <time>2015-02-23T11:39:12Z</time>
      </trkpt>
      <trkpt lat="46.62698" lon="12.31238">
        <ele>2402.47</ele>
        <time>2015-02-23T11:39:21Z</time>
      </trkpt>
      <trkpt lat="46.62717" lon="12.31232">
        <ele>2399.59</ele>
        <time>2015-02-23T11:39:29Z</time>
      </trkpt>
      <trkpt lat="46.62724" lon="12.31232">
        <ele>2398.63</ele>
        <time>2015-02-23T11:39:31Z</time>
      </trkpt>
      <trkpt lat="46.62745" lon="12.31219">
        <ele>2393.34</ele>
        <time>2015-02-23T11:39:35Z</time>
      </trkpt>
      <trkpt lat="46.62765" lon="12.31205">
        <ele>2389.97</ele>
        <time>2015-02-23T11:39:38Z</time>
      </trkpt>
      <trkpt lat="46.6277" lon="12.31202">
        <ele>2389.97</ele>
        <time>2015-02-23T11:39:39Z</time>
      </trkpt>
      <trkpt lat="46.62801" lon="12.31191">
        <ele>2388.05</ele>
        <time>2015-02-23T11:39:49Z</time>
      </trkpt>
      <trkpt lat="46.62817" lon="12.31189">
        <ele>2385.17</ele>
        <time>2015-02-23T11:40:05Z</time>
      </trkpt>
      <trkpt lat="46.62825" lon="12.31188">
        <ele>2382.28</ele>
        <time>2015-02-23T11:40:08Z</time>
      </trkpt>
      <trkpt lat="46.62842" lon="12.31191">
        <ele>2378.44</ele>
        <time>2015-02-23T11:40:11Z</time>
      </trkpt>
      <trkpt lat="46.62863" lon="12.31186">
        <ele>2377</ele>
        <time>2015-02-23T11:40:18Z</time>
      </trkpt>
      <trkpt lat="46.62867" lon="12.3118">
        <ele>2377</ele>
        <time>2015-02-23T11:40:27Z</time>
      </trkpt>
      <trkpt lat="46.62874" lon="12.31166">
        <ele>2376.04</ele>
        <time>2015-02-23T11:40:44Z</time>
      </trkpt>
      <trkpt lat="46.62881" lon="12.31153">
        <ele>2374.59</ele>
        <time>2015-02-23T11:40:52Z</time>
      </trkpt>
      <trkpt lat="46.62884" lon="12.31148">
        <ele>2374.59</ele>
        <time>2015-02-23T11:41:08Z</time>
      </trkpt>
      <trkpt lat="46.62887" lon="12.31143">
        <ele>2375.55</ele>
        <time>2015-02-23T11:41:21Z</time>
      </trkpt>
      <trkpt lat="46.62888" lon="12.31142">
        <ele>2375.07</ele>
        <time>2015-02-23T11:41:42Z</time>
      </trkpt>
      <trkpt lat="46.6289" lon="12.31136">
        <ele>2375.55</ele>
        <time>2015-02-23T11:41:58Z</time>
      </trkpt>
      <trkpt lat="46.6289" lon="12.31132">
        <ele>2375.55</ele>
        <time>2015-02-23T11:42:02Z</time>
      </trkpt>
      <trkpt lat="46.62898" lon="12.31107">
        <ele>2373.15</ele>
        <time>2015-02-23T11:42:16Z</time>
      </trkpt>
      <trkpt lat="46.62902" lon="12.31099">
        <ele>2371.71</ele>
        <time>2015-02-23T11:42:31Z</time>
      </trkpt>
      <trkpt lat="46.62904" lon="12.31078">
        <ele>2368.35</ele>
        <time>2015-02-23T11:42:35Z</time>
      </trkpt>
      <trkpt lat="46.6291" lon="12.31071">
        <ele>2364.5</ele>
        <time>2015-02-23T11:42:37Z</time>
      </trkpt>
      <trkpt lat="46.62916" lon="12.31052">
        <ele>2361.14</ele>
        <time>2015-02-23T11:42:40Z</time>
      </trkpt>
      <trkpt lat="46.6292" lon="12.31029">
        <ele>2356.81</ele>
        <time>2015-02-23T11:42:42Z</time>
      </trkpt>
      <trkpt lat="46.62922" lon="12.31022">
        <ele>2355.37</ele>
        <time>2015-02-23T11:42:43Z</time>
      </trkpt>
      <trkpt lat="46.62935" lon="12.30993">
        <ele>2353.44</ele>
        <time>2015-02-23T11:42:47Z</time>
      </trkpt>
      <trkpt lat="46.62957" lon="12.30975">
        <ele>2350.08</ele>
        <time>2015-02-23T11:42:52Z</time>
      </trkpt>
      <trkpt lat="46.62992" lon="12.30962">
        <ele>2346.72</ele>
        <time>2015-02-23T11:43:02Z</time>
      </trkpt>
      <trkpt lat="46.63022" lon="12.30962">
        <ele>2344.79</ele>
        <time>2015-02-23T11:43:15Z</time>
      </trkpt>
      <trkpt lat="46.63021" lon="12.30962">
        <ele>2344.79</ele>
        <time>2015-02-23T11:43:39Z</time>
      </trkpt>
      <trkpt lat="46.63021" lon="12.30962">
        <ele>2344.79</ele>
        <time>2015-02-23T11:43:40Z</time>
      </trkpt>
      <trkpt lat="46.63028" lon="12.30966">
        <ele>2344.31</ele>
        <time>2015-02-23T11:43:57Z</time>
      </trkpt>
      <trkpt lat="46.63027" lon="12.30964">
        <ele>2344.31</ele>
        <time>2015-02-23T11:44:24Z</time>
      </trkpt>
      <trkpt lat="46.63028" lon="12.30964">
        <ele>2343.83</ele>
        <time>2015-02-23T11:44:36Z</time>
      </trkpt>
      <trkpt lat="46.63042" lon="12.30969">
        <ele>2340.47</ele>
        <time>2015-02-23T11:44:41Z</time>
      </trkpt>
      <trkpt lat="46.63058" lon="12.30975">
        <ele>2335.66</ele>
        <time>2015-02-23T11:44:44Z</time>
      </trkpt>
      <trkpt lat="46.63066" lon="12.30974">
        <ele>2334.7</ele>
        <time>2015-02-23T11:44:45Z</time>
      </trkpt>
      <trkpt lat="46.63092" lon="12.30962">
        <ele>2331.33</ele>
        <time>2015-02-23T11:44:51Z</time>
      </trkpt>
      <trkpt lat="46.63103" lon="12.30956">
        <ele>2328.93</ele>
        <time>2015-02-23T11:44:54Z</time>
      </trkpt>
      <trkpt lat="46.63126" lon="12.30947">
        <ele>2326.05</ele>
        <time>2015-02-23T11:45:00Z</time>
      </trkpt>
      <trkpt lat="46.63148" lon="12.3094">
        <ele>2322.2</ele>
        <time>2015-02-23T11:45:08Z</time>
      </trkpt>
      <trkpt lat="46.63166" lon="12.30935">
        <ele>2319.32</ele>
        <time>2015-02-23T11:45:15Z</time>
      </trkpt>
      <trkpt lat="46.63187" lon="12.30933">
        <ele>2315.95</ele>
        <time>2015-02-23T11:45:26Z</time>
      </trkpt>
      <trkpt lat="46.63213" lon="12.30937">
        <ele>2313.07</ele>
        <time>2015-02-23T11:45:33Z</time>
      </trkpt>
      <trkpt lat="46.63224" lon="12.30938">
        <ele>2311.63</ele>
        <time>2015-02-23T11:45:35Z</time>
      </trkpt>
      <trkpt lat="46.63238" lon="12.30942">
        <ele>2310.67</ele>
        <time>2015-02-23T11:45:38Z</time>
      </trkpt>
      <trkpt lat="46.63244" lon="12.30942">
        <ele>2310.67</ele>
        <time>2015-02-23T11:45:46Z</time>
      </trkpt>
      <trkpt lat="46.63244" lon="12.30942">
        <ele>2310.67</ele>
        <time>2015-02-23T11:46:04Z</time>
      </trkpt>
      <trkpt lat="46.63245" lon="12.30943">
        <ele>2310.67</ele>
        <time>2015-02-23T11:46:25Z</time>
      </trkpt>
      <trkpt lat="46.63244" lon="12.30946">
        <ele>2310.19</ele>
        <time>2015-02-23T11:46:42Z</time>
      </trkpt>
      <trkpt lat="46.63243" lon="12.30944">
        <ele>2309.7</ele>
        <time>2015-02-23T11:47:10Z</time>
      </trkpt>
      <trkpt lat="46.63244" lon="12.30942">
        <ele>2310.19</ele>
        <time>2015-02-23T11:47:45Z</time>
      </trkpt>
      <trkpt lat="46.63244" lon="12.30942">
        <ele>2310.19</ele>
        <time>2015-02-23T11:48:16Z</time>
      </trkpt>
      <trkpt lat="46.63244" lon="12.30941">
        <ele>2310.19</ele>
        <time>2015-02-23T11:48:57Z</time>
      </trkpt>
      <trkpt lat="46.63244" lon="12.30941">
        <ele>2310.67</ele>
        <time>2015-02-23T11:49:32Z</time>
      </trkpt>
      <trkpt lat="46.63244" lon="12.30942">
        <ele>2310.67</ele>
        <time>2015-02-23T11:50:09Z</time>
      </trkpt>
      <trkpt lat="46.63245" lon="12.30941">
        <ele>2310.67</ele>
        <time>2015-02-23T11:50:36Z</time>
      </trkpt>
      <trkpt lat="46.63245" lon="12.30942">
        <ele>2311.15</ele>
        <time>2015-02-23T11:51:07Z</time>
      </trkpt>
      <trkpt lat="46.63244" lon="12.30944">
        <ele>2311.63</ele>
        <time>2015-02-23T11:51:39Z</time>
      </trkpt>
      <trkpt lat="46.63244" lon="12.30945">
        <ele>2311.15</ele>
        <time>2015-02-23T11:52:05Z</time>
      </trkpt>
      <trkpt lat="46.63244" lon="12.30941">
        <ele>2311.63</ele>
        <time>2015-02-23T11:52:25Z</time>
      </trkpt>
      <trkpt lat="46.63244" lon="12.30942">
        <ele>2311.63</ele>
        <time>2015-02-23T11:52:43Z</time>
      </trkpt>
      <trkpt lat="46.63243" lon="12.30941">
        <ele>2311.63</ele>
        <time>2015-02-23T11:52:59Z</time>
      </trkpt>
      <trkpt lat="46.63246" lon="12.30942">
        <ele>2311.63</ele>
        <time>2015-02-23T11:53:19Z</time>
      </trkpt>
      <trkpt lat="46.63246" lon="12.30942">
        <ele>2311.15</ele>
        <time>2015-02-23T11:53:36Z</time>
      </trkpt>
      <trkpt lat="46.63246" lon="12.30944">
        <ele>2311.63</ele>
        <time>2015-02-23T11:53:53Z</time>
      </trkpt>
      <trkpt lat="46.63245" lon="12.30943">
        <ele>2311.63</ele>
        <time>2015-02-23T11:54:13Z</time>
      </trkpt>
      <trkpt lat="46.63244" lon="12.30942">
        <ele>2311.63</ele>
        <time>2015-02-23T11:54:33Z</time>
      </trkpt>
      <trkpt lat="46.63244" lon="12.30939">
        <ele>2312.11</ele>
        <time>2015-02-23T11:54:51Z</time>
      </trkpt>
      <trkpt lat="46.63247" lon="12.30944">
        <ele>2312.11</ele>
        <time>2015-02-23T11:55:03Z</time>
      </trkpt>
      <trkpt lat="46.63254" lon="12.30953">
        <ele>2314.03</ele>
        <time>2015-02-23T11:55:18Z</time>
      </trkpt>
      <trkpt lat="46.6326" lon="12.30961">
        <ele>2315.95</ele>
        <time>2015-02-23T11:55:35Z</time>
      </trkpt>
      <trkpt lat="46.63265" lon="12.30965">
        <ele>2316.91</ele>
        <time>2015-02-23T11:55:50Z</time>
      </trkpt>
      <trkpt lat="46.63272" lon="12.30971">
        <ele>2317.88</ele>
        <time>2015-02-23T11:56:06Z</time>
      </trkpt>
      <trkpt lat="46.63278" lon="12.30974">
        <ele>2318.84</ele>
        <time>2015-02-23T11:56:20Z</time>
      </trkpt>
      <trkpt lat="46.63283" lon="12.30979">
        <ele>2320.28</ele>
        <time>2015-02-23T11:56:36Z</time>
      </trkpt>
      <trkpt lat="46.63292" lon="12.30983">
        <ele>2321.24</ele>
        <time>2015-02-23T11:56:54Z</time>
      </trkpt>
      <trkpt lat="46.63299" lon="12.30988">
        <ele>2323.64</ele>
        <time>2015-02-23T11:57:08Z</time>
      </trkpt>
      <trkpt lat="46.63306" lon="12.30996">
        <ele>2322.68</ele>
        <time>2015-02-23T11:57:25Z</time>
      </trkpt>
      <trkpt lat="46.63314" lon="12.31001">
        <ele>2323.64</ele>
        <time>2015-02-23T11:57:44Z</time>
      </trkpt>
      <trkpt lat="46.63321" lon="12.31008">
        <ele>2324.61</ele>
        <time>2015-02-23T11:58:01Z</time>
      </trkpt>
      <trkpt lat="46.63327" lon="12.31018">
        <ele>2325.57</ele>
        <time>2015-02-23T11:58:18Z</time>
      </trkpt>
      <trkpt lat="46.63332" lon="12.31025">
        <ele>2326.53</ele>
        <time>2015-02-23T11:58:35Z</time>
      </trkpt>
      <trkpt lat="46.63342" lon="12.31037">
        <ele>2327.49</ele>
        <time>2015-02-23T11:58:55Z</time>
      </trkpt>
      <trkpt lat="46.63345" lon="12.31044">
        <ele>2328.45</ele>
        <time>2015-02-23T11:59:08Z</time>
      </trkpt>
      <trkpt lat="46.63348" lon="12.31055">
        <ele>2329.89</ele>
        <time>2015-02-23T11:59:27Z</time>
      </trkpt>
      <trkpt lat="46.63353" lon="12.31061">
        <ele>2330.37</ele>
        <time>2015-02-23T11:59:42Z</time>
      </trkpt>
      <trkpt lat="46.63355" lon="12.3107">
        <ele>2331.33</ele>
        <time>2015-02-23T11:59:57Z</time>
      </trkpt>
      <trkpt lat="46.63362" lon="12.31071">
        <ele>2331.81</ele>
        <time>2015-02-23T12:00:12Z</time>
      </trkpt>
      <trkpt lat="46.63365" lon="12.31076">
        <ele>2332.78</ele>
        <time>2015-02-23T12:00:26Z</time>
      </trkpt>
      <trkpt lat="46.63367" lon="12.31084">
        <ele>2333.74</ele>
        <time>2015-02-23T12:00:40Z</time>
      </trkpt>
      <trkpt lat="46.63371" lon="12.31091">
        <ele>2334.7</ele>
        <time>2015-02-23T12:00:53Z</time>
      </trkpt>
      <trkpt lat="46.63372" lon="12.31094">
        <ele>2334.22</ele>
        <time>2015-02-23T12:00:59Z</time>
      </trkpt>
      <trkpt lat="46.63381" lon="12.31099">
        <ele>2335.18</ele>
        <time>2015-02-23T12:01:15Z</time>
      </trkpt>
      <trkpt lat="46.63388" lon="12.31112">
        <ele>2336.62</ele>
        <time>2015-02-23T12:01:31Z</time>
      </trkpt>
      <trkpt lat="46.63392" lon="12.31122">
        <ele>2337.58</ele>
        <time>2015-02-23T12:01:50Z</time>
      </trkpt>
      <trkpt lat="46.63401" lon="12.31126">
        <ele>2339.51</ele>
        <time>2015-02-23T12:02:08Z</time>
      </trkpt>
      <trkpt lat="46.63408" lon="12.3113">
        <ele>2341.43</ele>
        <time>2015-02-23T12:02:24Z</time>
      </trkpt>
      <trkpt lat="46.63416" lon="12.31134">
        <ele>2342.87</ele>
        <time>2015-02-23T12:02:39Z</time>
      </trkpt>
      <trkpt lat="46.63424" lon="12.31136">
        <ele>2343.83</ele>
        <time>2015-02-23T12:02:53Z</time>
      </trkpt>
      <trkpt lat="46.6343" lon="12.31135">
        <ele>2345.27</ele>
        <time>2015-02-23T12:03:07Z</time>
      </trkpt>
      <trkpt lat="46.63436" lon="12.31132">
        <ele>2346.72</ele>
        <time>2015-02-23T12:03:21Z</time>
      </trkpt>
      <trkpt lat="46.63442" lon="12.31128">
        <ele>2348.16</ele>
        <time>2015-02-23T12:03:34Z</time>
      </trkpt>
      <trkpt lat="46.63441" lon="12.31135">
        <ele>2349.6</ele>
        <time>2015-02-23T12:03:49Z</time>
      </trkpt>
      <trkpt lat="46.63439" lon="12.31142">
        <ele>2351.04</ele>
        <time>2015-02-23T12:04:04Z</time>
      </trkpt>
      <trkpt lat="46.63438" lon="12.31147">
        <ele>2352.48</ele>
        <time>2015-02-23T12:04:17Z</time>
      </trkpt>
      <trkpt lat="46.63445" lon="12.31141">
        <ele>2353.44</ele>
        <time>2015-02-23T12:04:29Z</time>
      </trkpt>
      <trkpt lat="46.63449" lon="12.31139">
        <ele>2354.41</ele>
        <time>2015-02-23T12:04:41Z</time>
      </trkpt>
      <trkpt lat="46.63451" lon="12.31136">
        <ele>2354.89</ele>
        <time>2015-02-23T12:04:56Z</time>
      </trkpt>
      <trkpt lat="46.63461" lon="12.31133">
        <ele>2357.29</ele>
        <time>2015-02-23T12:05:12Z</time>
      </trkpt>
      <trkpt lat="46.63467" lon="12.3113">
        <ele>2357.77</ele>
        <time>2015-02-23T12:05:26Z</time>
      </trkpt>
      <trkpt lat="46.63475" lon="12.31126">
        <ele>2359.21</ele>
        <time>2015-02-23T12:05:43Z</time>
      </trkpt>
      <trkpt lat="46.6348" lon="12.31122">
        <ele>2361.14</ele>
        <time>2015-02-23T12:05:58Z</time>
      </trkpt>
      <trkpt lat="46.63484" lon="12.31118">
        <ele>2362.1</ele>
        <time>2015-02-23T12:06:12Z</time>
      </trkpt>
      <trkpt lat="46.63483" lon="12.31121">
        <ele>2362.58</ele>
        <time>2015-02-23T12:06:27Z</time>
      </trkpt>
      <trkpt lat="46.63487" lon="12.31116">
        <ele>2363.54</ele>
        <time>2015-02-23T12:06:45Z</time>
      </trkpt>
      <trkpt lat="46.63494" lon="12.31115">
        <ele>2365.46</ele>
        <time>2015-02-23T12:07:01Z</time>
      </trkpt>
      <trkpt lat="46.63499" lon="12.31112">
        <ele>2367.38</ele>
        <time>2015-02-23T12:07:15Z</time>
      </trkpt>
      <trkpt lat="46.63501" lon="12.31109">
        <ele>2368.35</ele>
        <time>2015-02-23T12:07:30Z</time>
      </trkpt>
      <trkpt lat="46.63499" lon="12.31116">
        <ele>2369.79</ele>
        <time>2015-02-23T12:07:46Z</time>
      </trkpt>
      <trkpt lat="46.63499" lon="12.31122">
        <ele>2371.23</ele>
        <time>2015-02-23T12:08:00Z</time>
      </trkpt>
      <trkpt lat="46.63503" lon="12.31126">
        <ele>2372.67</ele>
        <time>2015-02-23T12:08:14Z</time>
      </trkpt>
      <trkpt lat="46.63505" lon="12.3113">
        <ele>2372.19</ele>
        <time>2015-02-23T12:08:31Z</time>
      </trkpt>
      <trkpt lat="46.63502" lon="12.31126">
        <ele>2372.19</ele>
        <time>2015-02-23T12:08:49Z</time>
      </trkpt>
      <trkpt lat="46.63502" lon="12.31127">
        <ele>2371.71</ele>
        <time>2015-02-23T12:09:03Z</time>
      </trkpt>
      <trkpt lat="46.63502" lon="12.31125">
        <ele>2371.23</ele>
        <time>2015-02-23T12:09:28Z</time>
      </trkpt>
      <trkpt lat="46.63502" lon="12.31123">
        <ele>2372.19</ele>
        <time>2015-02-23T12:09:48Z</time>
      </trkpt>
      <trkpt lat="46.63504" lon="12.31124">
        <ele>2372.19</ele>
        <time>2015-02-23T12:10:06Z</time>
      </trkpt>
      <trkpt lat="46.63502" lon="12.31125">
        <ele>2372.19</ele>
        <time>2015-02-23T12:10:26Z</time>
      </trkpt>
      <trkpt lat="46.635" lon="12.31121">
        <ele>2371.71</ele>
        <time>2015-02-23T12:10:46Z</time>
      </trkpt>
      <trkpt lat="46.63502" lon="12.31123">
        <ele>2372.19</ele>
        <time>2015-02-23T12:11:00Z</time>
      </trkpt>
      <trkpt lat="46.63503" lon="12.31122">
        <ele>2371.23</ele>
        <time>2015-02-23T12:11:21Z</time>
      </trkpt>
      <trkpt lat="46.635" lon="12.31122">
        <ele>2372.19</ele>
        <time>2015-02-23T12:11:41Z</time>
      </trkpt>
      <trkpt lat="46.63505" lon="12.31124">
        <ele>2372.67</ele>
        <time>2015-02-23T12:11:56Z</time>
      </trkpt>
      <trkpt lat="46.63506" lon="12.31122">
        <ele>2373.15</ele>
        <time>2015-02-23T12:12:13Z</time>
      </trkpt>
      <trkpt lat="46.6351" lon="12.31119">
        <ele>2374.59</ele>
        <time>2015-02-23T12:12:24Z</time>
      </trkpt>
      <trkpt lat="46.6351" lon="12.31126">
        <ele>2376.52</ele>
        <time>2015-02-23T12:12:37Z</time>
      </trkpt>
      <trkpt lat="46.63512" lon="12.31129">
        <ele>2377</ele>
        <time>2015-02-23T12:12:44Z</time>
      </trkpt>
      <trkpt lat="46.63515" lon="12.31126">
        <ele>2378.44</ele>
        <time>2015-02-23T12:12:57Z</time>
      </trkpt>
      <trkpt lat="46.63517" lon="12.31123">
        <ele>2379.88</ele>
        <time>2015-02-23T12:13:09Z</time>
      </trkpt>
      <trkpt lat="46.63519" lon="12.31119">
        <ele>2380.84</ele>
        <time>2015-02-23T12:13:20Z</time>
      </trkpt>
      <trkpt lat="46.6352" lon="12.31117">
        <ele>2381.8</ele>
        <time>2015-02-23T12:13:35Z</time>
      </trkpt>
      <trkpt lat="46.6352" lon="12.31118">
        <ele>2382.28</ele>
        <time>2015-02-23T12:13:56Z</time>
      </trkpt>
      <trkpt lat="46.63519" lon="12.31116">
        <ele>2382.28</ele>
        <time>2015-02-23T12:14:17Z</time>
      </trkpt>
      <trkpt lat="46.63519" lon="12.31115">
        <ele>2382.28</ele>
        <time>2015-02-23T12:14:39Z</time>
      </trkpt>
      <trkpt lat="46.63521" lon="12.31113">
        <ele>2383.25</ele>
        <time>2015-02-23T12:15:00Z</time>
      </trkpt>
      <trkpt lat="46.63532" lon="12.3111">
        <ele>2385.65</ele>
        <time>2015-02-23T12:15:17Z</time>
      </trkpt>
      <trkpt lat="46.63533" lon="12.31108">
        <ele>2387.57</ele>
        <time>2015-02-23T12:15:30Z</time>
      </trkpt>
      <trkpt lat="46.63531" lon="12.31115">
        <ele>2388.53</ele>
        <time>2015-02-23T12:15:46Z</time>
      </trkpt>
      <trkpt lat="46.6353" lon="12.31123">
        <ele>2390.46</ele>
        <time>2015-02-23T12:16:01Z</time>
      </trkpt>
      <trkpt lat="46.6354" lon="12.31118">
        <ele>2391.9</ele>
        <time>2015-02-23T12:16:17Z</time>
      </trkpt>
      <trkpt lat="46.63547" lon="12.31113">
        <ele>2393.34</ele>
        <time>2015-02-23T12:16:32Z</time>
      </trkpt>
      <trkpt lat="46.6355" lon="12.31108">
        <ele>2394.78</ele>
        <time>2015-02-23T12:16:45Z</time>
      </trkpt>
      <trkpt lat="46.63555" lon="12.31107">
        <ele>2396.7</ele>
        <time>2015-02-23T12:17:01Z</time>
      </trkpt>
      <trkpt lat="46.63561" lon="12.31104">
        <ele>2398.15</ele>
        <time>2015-02-23T12:17:16Z</time>
      </trkpt>
      <trkpt lat="46.63567" lon="12.31104">
        <ele>2399.59</ele>
        <time>2015-02-23T12:17:31Z</time>
      </trkpt>
      <trkpt lat="46.63575" lon="12.31104">
        <ele>2401.03</ele>
        <time>2015-02-23T12:17:48Z</time>
      </trkpt>
      <trkpt lat="46.63578" lon="12.31113">
        <ele>2401.51</ele>
        <time>2015-02-23T12:18:02Z</time>
      </trkpt>
      <trkpt lat="46.63585" lon="12.31112">
        <ele>2401.99</ele>
        <time>2015-02-23T12:18:18Z</time>
      </trkpt>
      <trkpt lat="46.63585" lon="12.31115">
        <ele>2401.51</ele>
        <time>2015-02-23T12:18:32Z</time>
      </trkpt>
      <trkpt lat="46.63584" lon="12.31113">
        <ele>2401.03</ele>
        <time>2015-02-23T12:19:01Z</time>
      </trkpt>
      <trkpt lat="46.63583" lon="12.31112">
        <ele>2401.03</ele>
        <time>2015-02-23T12:19:16Z</time>
      </trkpt>
      <trkpt lat="46.63583" lon="12.31115">
        <ele>2402.47</ele>
        <time>2015-02-23T12:19:30Z</time>
      </trkpt>
      <trkpt lat="46.63582" lon="12.31116">
        <ele>2401.99</ele>
        <time>2015-02-23T12:19:45Z</time>
      </trkpt>
      <trkpt lat="46.63584" lon="12.31113">
        <ele>2401.99</ele>
        <time>2015-02-23T12:20:03Z</time>
      </trkpt>
      <trkpt lat="46.63584" lon="12.31113">
        <ele>2402.47</ele>
        <time>2015-02-23T12:20:19Z</time>
      </trkpt>
      <trkpt lat="46.63589" lon="12.31108">
        <ele>2402.95</ele>
        <time>2015-02-23T12:20:35Z</time>
      </trkpt>
      <trkpt lat="46.636" lon="12.31096">
        <ele>2403.43</ele>
        <time>2015-02-23T12:20:48Z</time>
      </trkpt>
      <trkpt lat="46.63613" lon="12.31085">
        <ele>2402.95</ele>
        <time>2015-02-23T12:21:03Z</time>
      </trkpt>
      <trkpt lat="46.63621" lon="12.31079">
        <ele>2402.95</ele>
        <time>2015-02-23T12:21:15Z</time>
      </trkpt>
      <trkpt lat="46.63629" lon="12.31075">
        <ele>2403.91</ele>
        <time>2015-02-23T12:21:24Z</time>
      </trkpt>
      <trkpt lat="46.63643" lon="12.31076">
        <ele>2403.91</ele>
        <time>2015-02-23T12:21:36Z</time>
      </trkpt>
      <trkpt lat="46.63654" lon="12.3108">
        <ele>2405.36</ele>
        <time>2015-02-23T12:21:51Z</time>
      </trkpt>
      <trkpt lat="46.63654" lon="12.31088">
        <ele>2407.28</ele>
        <time>2015-02-23T12:22:08Z</time>
      </trkpt>
      <trkpt lat="46.63654" lon="12.311">
        <ele>2408.72</ele>
        <time>2015-02-23T12:22:22Z</time>
      </trkpt>
      <trkpt lat="46.6366" lon="12.31105">
        <ele>2411.12</ele>
        <time>2015-02-23T12:22:39Z</time>
      </trkpt>
      <trkpt lat="46.63667" lon="12.31097">
        <ele>2413.05</ele>
        <time>2015-02-23T12:22:55Z</time>
      </trkpt>
      <trkpt lat="46.63674" lon="12.31084">
        <ele>2415.45</ele>
        <time>2015-02-23T12:23:14Z</time>
      </trkpt>
      <trkpt lat="46.63679" lon="12.31075">
        <ele>2416.41</ele>
        <time>2015-02-23T12:23:28Z</time>
      </trkpt>
      <trkpt lat="46.6368" lon="12.31068">
        <ele>2417.85</ele>
        <time>2015-02-23T12:23:44Z</time>
      </trkpt>
      <trkpt lat="46.63681" lon="12.31064">
        <ele>2418.33</ele>
        <time>2015-02-23T12:24:00Z</time>
      </trkpt>
      <trkpt lat="46.63682" lon="12.31062">
        <ele>2418.33</ele>
        <time>2015-02-23T12:24:17Z</time>
      </trkpt>
      <trkpt lat="46.63684" lon="12.31059">
        <ele>2418.81</ele>
        <time>2015-02-23T12:24:35Z</time>
      </trkpt>
      <trkpt lat="46.63685" lon="12.31059">
        <ele>2418.81</ele>
        <time>2015-02-23T12:24:57Z</time>
      </trkpt>
      <trkpt lat="46.63684" lon="12.3106">
        <ele>2417.85</ele>
        <time>2015-02-23T12:25:11Z</time>
      </trkpt>
      <trkpt lat="46.63685" lon="12.31061">
        <ele>2417.37</ele>
        <time>2015-02-23T12:25:45Z</time>
      </trkpt>
      <trkpt lat="46.63684" lon="12.31062">
        <ele>2418.81</ele>
        <time>2015-02-23T12:26:07Z</time>
      </trkpt>
      <trkpt lat="46.63686" lon="12.31065">
        <ele>2418.81</ele>
        <time>2015-02-23T12:26:22Z</time>
      </trkpt>
      <trkpt lat="46.63685" lon="12.31068">
        <ele>2417.85</ele>
        <time>2015-02-23T12:26:35Z</time>
      </trkpt>
      <trkpt lat="46.63685" lon="12.31068">
        <ele>2417.37</ele>
        <time>2015-02-23T12:26:36Z</time>
      </trkpt>
      <trkpt lat="46.63686" lon="12.31069">
        <ele>2417.85</ele>
        <time>2015-02-23T12:27:12Z</time>
      </trkpt>
      <trkpt lat="46.63686" lon="12.31069">
        <ele>2414.01</ele>
        <time>2015-02-23T12:27:21Z</time>
      </trkpt>
      <trkpt lat="46.63686" lon="12.31069">
        <ele>2418.81</ele>
        <time>2015-02-23T12:27:22Z</time>
      </trkpt>
      <trkpt lat="46.63685" lon="12.31067">
        <ele>2417.85</ele>
        <time>2015-02-23T12:27:38Z</time>
      </trkpt>
      <trkpt lat="46.63691" lon="12.31065">
        <ele>2417.85</ele>
        <time>2015-02-23T12:28:12Z</time>
      </trkpt>
      <trkpt lat="46.6369" lon="12.31064">
        <ele>2418.33</ele>
        <time>2015-02-23T12:28:47Z</time>
      </trkpt>
      <trkpt lat="46.63688" lon="12.31063">
        <ele>2419.3</ele>
        <time>2015-02-23T12:29:03Z</time>
      </trkpt>
      <trkpt lat="46.63688" lon="12.31067">
        <ele>2419.3</ele>
        <time>2015-02-23T12:29:17Z</time>
      </trkpt>
      <trkpt lat="46.63688" lon="12.31076">
        <ele>2419.78</ele>
        <time>2015-02-23T12:29:29Z</time>
      </trkpt>
      <trkpt lat="46.63693" lon="12.3108">
        <ele>2420.26</ele>
        <time>2015-02-23T12:29:39Z</time>
      </trkpt>
      <trkpt lat="46.63696" lon="12.31077">
        <ele>2420.26</ele>
        <time>2015-02-23T12:29:51Z</time>
      </trkpt>
      <trkpt lat="46.63695" lon="12.31076">
        <ele>2420.74</ele>
        <time>2015-02-23T12:30:09Z</time>
      </trkpt>
      <trkpt lat="46.63695" lon="12.31076">
        <ele>2419.78</ele>
        <time>2015-02-23T12:30:25Z</time>
      </trkpt>
      <trkpt lat="46.63694" lon="12.31076">
        <ele>2420.74</ele>
        <time>2015-02-23T12:30:45Z</time>
      </trkpt>
      <trkpt lat="46.63696" lon="12.31071">
        <ele>2421.22</ele>
        <time>2015-02-23T12:31:04Z</time>
      </trkpt>
      <trkpt lat="46.63698" lon="12.31072">
        <ele>2420.74</ele>
        <time>2015-02-23T12:31:09Z</time>
      </trkpt>
      <trkpt lat="46.63708" lon="12.31066">
        <ele>2422.18</ele>
        <time>2015-02-23T12:31:23Z</time>
      </trkpt>
      <trkpt lat="46.6371" lon="12.31065">
        <ele>2422.18</ele>
        <time>2015-02-23T12:31:25Z</time>
      </trkpt>
      <trkpt lat="46.63723" lon="12.31058">
        <ele>2422.18</ele>
        <time>2015-02-23T12:31:38Z</time>
      </trkpt>
      <trkpt lat="46.63732" lon="12.31053">
        <ele>2422.18</ele>
        <time>2015-02-23T12:31:50Z</time>
      </trkpt>
      <trkpt lat="46.63743" lon="12.31048">
        <ele>2422.18</ele>
        <time>2015-02-23T12:32:06Z</time>
      </trkpt>
      <trkpt lat="46.63758" lon="12.31042">
        <ele>2421.7</ele>
        <time>2015-02-23T12:32:20Z</time>
      </trkpt>
      <trkpt lat="46.63772" lon="12.31041">
        <ele>2421.7</ele>
        <time>2015-02-23T12:32:35Z</time>
      </trkpt>
      <trkpt lat="46.63779" lon="12.31044">
        <ele>2422.18</ele>
        <time>2015-02-23T12:32:44Z</time>
      </trkpt>
      <trkpt lat="46.63786" lon="12.31048">
        <ele>2423.14</ele>
        <time>2015-02-23T12:32:57Z</time>
      </trkpt>
      <trkpt lat="46.63798" lon="12.31057">
        <ele>2423.14</ele>
        <time>2015-02-23T12:33:14Z</time>
      </trkpt>
      <trkpt lat="46.63808" lon="12.31065">
        <ele>2423.14</ele>
        <time>2015-02-23T12:33:29Z</time>
      </trkpt>
      <trkpt lat="46.63817" lon="12.31072">
        <ele>2424.1</ele>
        <time>2015-02-23T12:33:43Z</time>
      </trkpt>
      <trkpt lat="46.63825" lon="12.3108">
        <ele>2424.58</ele>
        <time>2015-02-23T12:33:56Z</time>
      </trkpt>
      <trkpt lat="46.63836" lon="12.31088">
        <ele>2424.58</ele>
        <time>2015-02-23T12:34:11Z</time>
      </trkpt>
      <trkpt lat="46.63845" lon="12.31091">
        <ele>2424.58</ele>
        <time>2015-02-23T12:34:26Z</time>
      </trkpt>
      <trkpt lat="46.63859" lon="12.31094">
        <ele>2423.62</ele>
        <time>2015-02-23T12:34:42Z</time>
      </trkpt>
      <trkpt lat="46.63872" lon="12.31095">
        <ele>2424.1</ele>
        <time>2015-02-23T12:34:57Z</time>
      </trkpt>
      <trkpt lat="46.63877" lon="12.31095">
        <ele>2423.62</ele>
        <time>2015-02-23T12:35:10Z</time>
      </trkpt>
      <trkpt lat="46.6388" lon="12.31092">
        <ele>2424.1</ele>
        <time>2015-02-23T12:35:29Z</time>
      </trkpt>
      <trkpt lat="46.63889" lon="12.31088">
        <ele>2425.06</ele>
        <time>2015-02-23T12:35:48Z</time>
      </trkpt>
      <trkpt lat="46.63895" lon="12.31087">
        <ele>2425.06</ele>
        <time>2015-02-23T12:36:08Z</time>
      </trkpt>
      <trkpt lat="46.63908" lon="12.3109">
        <ele>2422.66</ele>
        <time>2015-02-23T12:36:20Z</time>
      </trkpt>
      <trkpt lat="46.63916" lon="12.31088">
        <ele>2421.22</ele>
        <time>2015-02-23T12:36:35Z</time>
      </trkpt>
      <trkpt lat="46.6392" lon="12.31087">
        <ele>2419.78</ele>
        <time>2015-02-23T12:36:53Z</time>
      </trkpt>
      <trkpt lat="46.63925" lon="12.31082">
        <ele>2420.26</ele>
        <time>2015-02-23T12:37:12Z</time>
      </trkpt>
      <trkpt lat="46.63932" lon="12.31078">
        <ele>2424.1</ele>
        <time>2015-02-23T12:37:30Z</time>
      </trkpt>
      <trkpt lat="46.63936" lon="12.31073">
        <ele>2424.1</ele>
        <time>2015-02-23T12:37:46Z</time>
      </trkpt>
      <trkpt lat="46.63943" lon="12.31068">
        <ele>2426.5</ele>
        <time>2015-02-23T12:38:03Z</time>
      </trkpt>
      <trkpt lat="46.63954" lon="12.31063">
        <ele>2428.43</ele>
        <time>2015-02-23T12:38:22Z</time>
      </trkpt>
      <trkpt lat="46.63961" lon="12.31057">
        <ele>2430.35</ele>
        <time>2015-02-23T12:38:40Z</time>
      </trkpt>
      <trkpt lat="46.63969" lon="12.31056">
        <ele>2432.27</ele>
        <time>2015-02-23T12:39:00Z</time>
      </trkpt>
      <trkpt lat="46.63972" lon="12.31056">
        <ele>2433.71</ele>
        <time>2015-02-23T12:39:18Z</time>
      </trkpt>
      <trkpt lat="46.63973" lon="12.31049">
        <ele>2435.16</ele>
        <time>2015-02-23T12:39:33Z</time>
      </trkpt>
      <trkpt lat="46.63971" lon="12.31042">
        <ele>2436.6</ele>
        <time>2015-02-23T12:39:51Z</time>
      </trkpt>
      <trkpt lat="46.63969" lon="12.31034">
        <ele>2438.52</ele>
        <time>2015-02-23T12:40:07Z</time>
      </trkpt>
      <trkpt lat="46.63968" lon="12.31029">
        <ele>2440.44</ele>
        <time>2015-02-23T12:40:21Z</time>
      </trkpt>
      <trkpt lat="46.63965" lon="12.31021">
        <ele>2441.89</ele>
        <time>2015-02-23T12:40:35Z</time>
      </trkpt>
      <trkpt lat="46.63963" lon="12.31017">
        <ele>2442.85</ele>
        <time>2015-02-23T12:40:53Z</time>
      </trkpt>
      <trkpt lat="46.63963" lon="12.31012">
        <ele>2444.77</ele>
        <time>2015-02-23T12:41:09Z</time>
      </trkpt>
      <trkpt lat="46.63968" lon="12.31014">
        <ele>2445.73</ele>
        <time>2015-02-23T12:41:25Z</time>
      </trkpt>
      <trkpt lat="46.63967" lon="12.31011">
        <ele>2447.17</ele>
        <time>2015-02-23T12:41:38Z</time>
      </trkpt>
      <trkpt lat="46.6396" lon="12.31002">
        <ele>2448.62</ele>
        <time>2015-02-23T12:41:54Z</time>
      </trkpt>
      <trkpt lat="46.6396" lon="12.31">
        <ele>2449.1</ele>
        <time>2015-02-23T12:42:12Z</time>
      </trkpt>
      <trkpt lat="46.63964" lon="12.30999">
        <ele>2449.1</ele>
        <time>2015-02-23T12:42:30Z</time>
      </trkpt>
      <trkpt lat="46.63963" lon="12.30999">
        <ele>2449.1</ele>
        <time>2015-02-23T12:42:48Z</time>
      </trkpt>
      <trkpt lat="46.63961" lon="12.30998">
        <ele>2449.58</ele>
        <time>2015-02-23T12:43:07Z</time>
      </trkpt>
      <trkpt lat="46.6396" lon="12.30999">
        <ele>2449.58</ele>
        <time>2015-02-23T12:43:39Z</time>
      </trkpt>
      <trkpt lat="46.6396" lon="12.30998">
        <ele>2450.06</ele>
        <time>2015-02-23T12:44:12Z</time>
      </trkpt>
      <trkpt lat="46.63962" lon="12.31">
        <ele>2451.02</ele>
        <time>2015-02-23T12:44:37Z</time>
      </trkpt>
      <trkpt lat="46.63964" lon="12.30998">
        <ele>2451.02</ele>
        <time>2015-02-23T12:44:55Z</time>
      </trkpt>
      <trkpt lat="46.63963" lon="12.30996">
        <ele>2452.46</ele>
        <time>2015-02-23T12:45:06Z</time>
      </trkpt>
      <trkpt lat="46.6396" lon="12.30993">
        <ele>2453.9</ele>
        <time>2015-02-23T12:45:19Z</time>
      </trkpt>
      <trkpt lat="46.63967" lon="12.30992">
        <ele>2455.82</ele>
        <time>2015-02-23T12:45:38Z</time>
      </trkpt>
      <trkpt lat="46.63965" lon="12.30985">
        <ele>2456.79</ele>
        <time>2015-02-23T12:45:52Z</time>
      </trkpt>
      <trkpt lat="46.63959" lon="12.30976">
        <ele>2458.23</ele>
        <time>2015-02-23T12:46:09Z</time>
      </trkpt>
      <trkpt lat="46.63967" lon="12.30981">
        <ele>2459.67</ele>
        <time>2015-02-23T12:46:27Z</time>
      </trkpt>
      <trkpt lat="46.6397" lon="12.3098">
        <ele>2460.63</ele>
        <time>2015-02-23T12:46:42Z</time>
      </trkpt>
      <trkpt lat="46.63967" lon="12.3097">
        <ele>2462.07</ele>
        <time>2015-02-23T12:46:57Z</time>
      </trkpt>
      <trkpt lat="46.63967" lon="12.30969">
        <ele>2463.04</ele>
        <time>2015-02-23T12:47:11Z</time>
      </trkpt>
      <trkpt lat="46.6397" lon="12.30972">
        <ele>2464.48</ele>
        <time>2015-02-23T12:47:23Z</time>
      </trkpt>
      <trkpt lat="46.63971" lon="12.3097">
        <ele>2465.92</ele>
        <time>2015-02-23T12:47:39Z</time>
      </trkpt>
      <trkpt lat="46.63968" lon="12.30961">
        <ele>2466.88</ele>
        <time>2015-02-23T12:47:56Z</time>
      </trkpt>
      <trkpt lat="46.63966" lon="12.30956">
        <ele>2468.32</ele>
        <time>2015-02-23T12:48:08Z</time>
      </trkpt>
      <trkpt lat="46.6397" lon="12.3096">
        <ele>2468.32</ele>
        <time>2015-02-23T12:48:25Z</time>
      </trkpt>
      <trkpt lat="46.63972" lon="12.3096">
        <ele>2469.76</ele>
        <time>2015-02-23T12:48:39Z</time>
      </trkpt>
      <trkpt lat="46.63975" lon="12.30964">
        <ele>2471.21</ele>
        <time>2015-02-23T12:48:54Z</time>
      </trkpt>
      <trkpt lat="46.63978" lon="12.3096">
        <ele>2472.17</ele>
        <time>2015-02-23T12:49:08Z</time>
      </trkpt>
      <trkpt lat="46.63976" lon="12.3095">
        <ele>2474.09</ele>
        <time>2015-02-23T12:49:24Z</time>
      </trkpt>
      <trkpt lat="46.63976" lon="12.30951">
        <ele>2475.53</ele>
        <time>2015-02-23T12:49:38Z</time>
      </trkpt>
      <trkpt lat="46.6398" lon="12.30958">
        <ele>2476.49</ele>
        <time>2015-02-23T12:49:52Z</time>
      </trkpt>
      <trkpt lat="46.63984" lon="12.30956">
        <ele>2477.45</ele>
        <time>2015-02-23T12:50:08Z</time>
      </trkpt>
      <trkpt lat="46.63984" lon="12.30949">
        <ele>2478.9</ele>
        <time>2015-02-23T12:50:21Z</time>
      </trkpt>
      <trkpt lat="46.63984" lon="12.30944">
        <ele>2480.34</ele>
        <time>2015-02-23T12:50:35Z</time>
      </trkpt>
      <trkpt lat="46.63986" lon="12.30949">
        <ele>2480.82</ele>
        <time>2015-02-23T12:50:48Z</time>
      </trkpt>
      <trkpt lat="46.63989" lon="12.30949">
        <ele>2482.26</ele>
        <time>2015-02-23T12:51:03Z</time>
      </trkpt>
      <trkpt lat="46.63989" lon="12.30943">
        <ele>2484.18</ele>
        <time>2015-02-23T12:51:19Z</time>
      </trkpt>
      <trkpt lat="46.63991" lon="12.30947">
        <ele>2484.66</ele>
        <time>2015-02-23T12:51:32Z</time>
      </trkpt>
      <trkpt lat="46.63996" lon="12.30946">
        <ele>2485.63</ele>
        <time>2015-02-23T12:51:45Z</time>
      </trkpt>
      <trkpt lat="46.63995" lon="12.30942">
        <ele>2486.59</ele>
        <time>2015-02-23T12:51:59Z</time>
      </trkpt>
      <trkpt lat="46.63994" lon="12.30937">
        <ele>2488.03</ele>
        <time>2015-02-23T12:52:15Z</time>
      </trkpt>
      <trkpt lat="46.63995" lon="12.30937">
        <ele>2488.99</ele>
        <time>2015-02-23T12:52:30Z</time>
      </trkpt>
      <trkpt lat="46.63996" lon="12.30938">
        <ele>2488.99</ele>
        <time>2015-02-23T12:52:50Z</time>
      </trkpt>
      <trkpt lat="46.63998" lon="12.30938">
        <ele>2489.47</ele>
        <time>2015-02-23T12:53:05Z</time>
      </trkpt>
      <trkpt lat="46.63998" lon="12.30936">
        <ele>2489.95</ele>
        <time>2015-02-23T12:53:19Z</time>
      </trkpt>
      <trkpt lat="46.63996" lon="12.30931">
        <ele>2491.39</ele>
        <time>2015-02-23T12:53:32Z</time>
      </trkpt>
      <trkpt lat="46.63998" lon="12.30931">
        <ele>2492.36</ele>
        <time>2015-02-23T12:53:45Z</time>
      </trkpt>
      <trkpt lat="46.64" lon="12.30931">
        <ele>2493.32</ele>
        <time>2015-02-23T12:54:01Z</time>
      </trkpt>
      <trkpt lat="46.64003" lon="12.30931">
        <ele>2494.28</ele>
        <time>2015-02-23T12:54:19Z</time>
      </trkpt>
      <trkpt lat="46.64004" lon="12.30927">
        <ele>2495.24</ele>
        <time>2015-02-23T12:54:35Z</time>
      </trkpt>
      <trkpt lat="46.64003" lon="12.30924">
        <ele>2496.2</ele>
        <time>2015-02-23T12:54:55Z</time>
      </trkpt>
      <trkpt lat="46.64007" lon="12.30922">
        <ele>2497.64</ele>
        <time>2015-02-23T12:55:12Z</time>
      </trkpt>
      <trkpt lat="46.64009" lon="12.30918">
        <ele>2499.08</ele>
        <time>2015-02-23T12:55:27Z</time>
      </trkpt>
      <trkpt lat="46.64012" lon="12.30912">
        <ele>2500.05</ele>
        <time>2015-02-23T12:55:44Z</time>
      </trkpt>
      <trkpt lat="46.6401" lon="12.30912">
        <ele>2501.01</ele>
        <time>2015-02-23T12:56:04Z</time>
      </trkpt>
      <trkpt lat="46.64006" lon="12.30904">
        <ele>2502.45</ele>
        <time>2015-02-23T12:56:19Z</time>
      </trkpt>
      <trkpt lat="46.64014" lon="12.30901">
        <ele>2504.37</ele>
        <time>2015-02-23T12:56:36Z</time>
      </trkpt>
      <trkpt lat="46.64019" lon="12.30897">
        <ele>2506.77</ele>
        <time>2015-02-23T12:56:53Z</time>
      </trkpt>
      <trkpt lat="46.64026" lon="12.3089">
        <ele>2508.22</ele>
        <time>2015-02-23T12:57:12Z</time>
      </trkpt>
      <trkpt lat="46.64032" lon="12.30885">
        <ele>2509.66</ele>
        <time>2015-02-23T12:57:29Z</time>
      </trkpt>
      <trkpt lat="46.64035" lon="12.30881">
        <ele>2511.58</ele>
        <time>2015-02-23T12:57:46Z</time>
      </trkpt>
      <trkpt lat="46.6404" lon="12.30877">
        <ele>2512.54</ele>
        <time>2015-02-23T12:58:02Z</time>
      </trkpt>
      <trkpt lat="46.64044" lon="12.30873">
        <ele>2513.98</ele>
        <time>2015-02-23T12:58:17Z</time>
      </trkpt>
      <trkpt lat="46.64049" lon="12.30869">
        <ele>2515.43</ele>
        <time>2015-02-23T12:58:33Z</time>
      </trkpt>
      <trkpt lat="46.64055" lon="12.30863">
        <ele>2517.35</ele>
        <time>2015-02-23T12:58:49Z</time>
      </trkpt>
      <trkpt lat="46.64055" lon="12.30857">
        <ele>2518.79</ele>
        <time>2015-02-23T12:59:06Z</time>
      </trkpt>
      <trkpt lat="46.64052" lon="12.30848">
        <ele>2520.23</ele>
        <time>2015-02-23T12:59:20Z</time>
      </trkpt>
      <trkpt lat="46.6405" lon="12.30843">
        <ele>2521.68</ele>
        <time>2015-02-23T12:59:30Z</time>
      </trkpt>
      <trkpt lat="46.64044" lon="12.3084">
        <ele>2523.12</ele>
        <time>2015-02-23T12:59:43Z</time>
      </trkpt>
      <trkpt lat="46.64039" lon="12.3084">
        <ele>2524.08</ele>
        <time>2015-02-23T12:59:58Z</time>
      </trkpt>
      <trkpt lat="46.64033" lon="12.30841">
        <ele>2526</ele>
        <time>2015-02-23T13:00:13Z</time>
      </trkpt>
      <trkpt lat="46.64027" lon="12.3084">
        <ele>2527.92</ele>
        <time>2015-02-23T13:00:27Z</time>
      </trkpt>
      <trkpt lat="46.64022" lon="12.30842">
        <ele>2529.85</ele>
        <time>2015-02-23T13:00:42Z</time>
      </trkpt>
      <trkpt lat="46.64017" lon="12.30843">
        <ele>2531.77</ele>
        <time>2015-02-23T13:00:57Z</time>
      </trkpt>
      <trkpt lat="46.64012" lon="12.30843">
        <ele>2533.21</ele>
        <time>2015-02-23T13:01:11Z</time>
      </trkpt>
      <trkpt lat="46.64006" lon="12.30842">
        <ele>2534.17</ele>
        <time>2015-02-23T13:01:25Z</time>
      </trkpt>
      <trkpt lat="46.63999" lon="12.3084">
        <ele>2535.13</ele>
        <time>2015-02-23T13:01:43Z</time>
      </trkpt>
      <trkpt lat="46.6399" lon="12.30837">
        <ele>2533.69</ele>
        <time>2015-02-23T13:01:56Z</time>
      </trkpt>
      <trkpt lat="46.63979" lon="12.30838">
        <ele>2534.17</ele>
        <time>2015-02-23T13:02:12Z</time>
      </trkpt>
      <trkpt lat="46.63969" lon="12.3084">
        <ele>2535.61</ele>
        <time>2015-02-23T13:02:31Z</time>
      </trkpt>
      <trkpt lat="46.63961" lon="12.30839">
        <ele>2537.54</ele>
        <time>2015-02-23T13:02:48Z</time>
      </trkpt>
      <trkpt lat="46.63954" lon="12.30839">
        <ele>2539.46</ele>
        <time>2015-02-23T13:03:03Z</time>
      </trkpt>
      <trkpt lat="46.63948" lon="12.30837">
        <ele>2541.38</ele>
        <time>2015-02-23T13:03:20Z</time>
      </trkpt>
      <trkpt lat="46.63943" lon="12.30836">
        <ele>2543.31</ele>
        <time>2015-02-23T13:03:35Z</time>
      </trkpt>
      <trkpt lat="46.63938" lon="12.30835">
        <ele>2545.23</ele>
        <time>2015-02-23T13:03:51Z</time>
      </trkpt>
      <trkpt lat="46.63933" lon="12.30836">
        <ele>2547.15</ele>
        <time>2015-02-23T13:04:07Z</time>
      </trkpt>
      <trkpt lat="46.63929" lon="12.30836">
        <ele>2548.59</ele>
        <time>2015-02-23T13:04:22Z</time>
      </trkpt>
      <trkpt lat="46.63922" lon="12.30836">
        <ele>2550.03</ele>
        <time>2015-02-23T13:04:38Z</time>
      </trkpt>
      <trkpt lat="46.6392" lon="12.30837">
        <ele>2550.03</ele>
        <time>2015-02-23T13:04:54Z</time>
      </trkpt>
      <trkpt lat="46.63914" lon="12.30829">
        <ele>2551.48</ele>
        <time>2015-02-23T13:05:10Z</time>
      </trkpt>
      <trkpt lat="46.63908" lon="12.30822">
        <ele>2552.44</ele>
        <time>2015-02-23T13:05:24Z</time>
      </trkpt>
      <trkpt lat="46.63906" lon="12.30819">
        <ele>2553.4</ele>
        <time>2015-02-23T13:05:43Z</time>
      </trkpt>
      <trkpt lat="46.63904" lon="12.30821">
        <ele>2553.4</ele>
        <time>2015-02-23T13:06:02Z</time>
      </trkpt>
      <trkpt lat="46.63903" lon="12.30821">
        <ele>2553.4</ele>
        <time>2015-02-23T13:06:18Z</time>
      </trkpt>
      <trkpt lat="46.63904" lon="12.3082">
        <ele>2553.4</ele>
        <time>2015-02-23T13:06:30Z</time>
      </trkpt>
      <trkpt lat="46.63905" lon="12.30819">
        <ele>2553.4</ele>
        <time>2015-02-23T13:06:48Z</time>
      </trkpt>
      <trkpt lat="46.63904" lon="12.30819">
        <ele>2553.4</ele>
        <time>2015-02-23T13:07:11Z</time>
      </trkpt>
      <trkpt lat="46.63905" lon="12.30821">
        <ele>2553.4</ele>
        <time>2015-02-23T13:07:32Z</time>
      </trkpt>
      <trkpt lat="46.63905" lon="12.30822">
        <ele>2553.4</ele>
        <time>2015-02-23T13:07:50Z</time>
      </trkpt>
      <trkpt lat="46.63905" lon="12.3082">
        <ele>2553.88</ele>
        <time>2015-02-23T13:08:17Z</time>
      </trkpt>
      <trkpt lat="46.63905" lon="12.3082">
        <ele>2553.88</ele>
        <time>2015-02-23T13:08:33Z</time>
      </trkpt>
      <trkpt lat="46.63905" lon="12.3082">
        <ele>2552.92</ele>
        <time>2015-02-23T13:08:48Z</time>
      </trkpt>
      <trkpt lat="46.63906" lon="12.30821">
        <ele>2552.92</ele>
        <time>2015-02-23T13:09:16Z</time>
      </trkpt>
      <trkpt lat="46.63907" lon="12.30823">
        <ele>2552.92</ele>
        <time>2015-02-23T13:09:45Z</time>
      </trkpt>
      <trkpt lat="46.63906" lon="12.3082">
        <ele>2552.92</ele>
        <time>2015-02-23T13:10:09Z</time>
      </trkpt>
      <trkpt lat="46.63906" lon="12.30821">
        <ele>2553.4</ele>
        <time>2015-02-23T13:10:47Z</time>
      </trkpt>
      <trkpt lat="46.63905" lon="12.3082">
        <ele>2553.4</ele>
        <time>2015-02-23T13:11:12Z</time>
      </trkpt>
      <trkpt lat="46.63906" lon="12.30819">
        <ele>2553.88</ele>
        <time>2015-02-23T13:11:29Z</time>
      </trkpt>
      <trkpt lat="46.63907" lon="12.3082">
        <ele>2553.88</ele>
        <time>2015-02-23T13:12:03Z</time>
      </trkpt>
      <trkpt lat="46.63907" lon="12.3082">
        <ele>2553.88</ele>
        <time>2015-02-23T13:12:49Z</time>
      </trkpt>
      <trkpt lat="46.63906" lon="12.30819">
        <ele>2554.36</ele>
        <time>2015-02-23T13:13:39Z</time>
      </trkpt>
      <trkpt lat="46.63906" lon="12.30822">
        <ele>2554.84</ele>
        <time>2015-02-23T13:14:14Z</time>
      </trkpt>
      <trkpt lat="46.63906" lon="12.30822">
        <ele>2554.84</ele>
        <time>2015-02-23T13:14:58Z</time>
      </trkpt>
      <trkpt lat="46.63906" lon="12.30823">
        <ele>2554.84</ele>
        <time>2015-02-23T13:15:37Z</time>
      </trkpt>
      <trkpt lat="46.63904" lon="12.30818">
        <ele>2555.32</ele>
        <time>2015-02-23T13:16:02Z</time>
      </trkpt>
      <trkpt lat="46.63905" lon="12.30821">
        <ele>2554.84</ele>
        <time>2015-02-23T13:16:33Z</time>
      </trkpt>
      <trkpt lat="46.63905" lon="12.30821">
        <ele>2555.32</ele>
        <time>2015-02-23T13:17:03Z</time>
      </trkpt>
      <trkpt lat="46.63904" lon="12.30819">
        <ele>2555.32</ele>
        <time>2015-02-23T13:17:40Z</time>
      </trkpt>
      <trkpt lat="46.63904" lon="12.3082">
        <ele>2555.32</ele>
        <time>2015-02-23T13:18:07Z</time>
      </trkpt>
      <trkpt lat="46.63906" lon="12.30824">
        <ele>2556.76</ele>
        <time>2015-02-23T13:18:24Z</time>
      </trkpt>
      <trkpt lat="46.63904" lon="12.30822">
        <ele>2556.76</ele>
        <time>2015-02-23T13:18:39Z</time>
      </trkpt>
      <trkpt lat="46.63906" lon="12.30823">
        <ele>2556.28</ele>
        <time>2015-02-23T13:18:54Z</time>
      </trkpt>
      <trkpt lat="46.63906" lon="12.30823">
        <ele>2556.28</ele>
        <time>2015-02-23T13:19:11Z</time>
      </trkpt>
      <trkpt lat="46.63906" lon="12.30824">
        <ele>2556.28</ele>
        <time>2015-02-23T13:19:37Z</time>
      </trkpt>
      <trkpt lat="46.63907" lon="12.30823">
        <ele>2556.76</ele>
        <time>2015-02-23T13:19:58Z</time>
      </trkpt>
      <trkpt lat="46.63907" lon="12.30821">
        <ele>2556.28</ele>
        <time>2015-02-23T13:20:20Z</time>
      </trkpt>
      <trkpt lat="46.63907" lon="12.30821">
        <ele>2556.28</ele>
        <time>2015-02-23T13:20:36Z</time>
      </trkpt>
      <trkpt lat="46.63909" lon="12.30822">
        <ele>2556.28</ele>
        <time>2015-02-23T13:20:54Z</time>
      </trkpt>
      <trkpt lat="46.63916" lon="12.30834">
        <ele>2554.36</ele>
        <time>2015-02-23T13:20:59Z</time>
      </trkpt>
      <trkpt lat="46.63919" lon="12.30835">
        <ele>2553.88</ele>
        <time>2015-02-23T13:21:00Z</time>
      </trkpt>
      <trkpt lat="46.63921" lon="12.30835">
        <ele>2553.4</ele>
        <time>2015-02-23T13:21:01Z</time>
      </trkpt>
      <trkpt lat="46.63923" lon="12.30835">
        <ele>2553.4</ele>
        <time>2015-02-23T13:21:02Z</time>
      </trkpt>
      <trkpt lat="46.63924" lon="12.30834">
        <ele>2552.92</ele>
        <time>2015-02-23T13:21:13Z</time>
      </trkpt>
      <trkpt lat="46.63925" lon="12.30834">
        <ele>2552.44</ele>
        <time>2015-02-23T13:21:35Z</time>
      </trkpt>
      <trkpt lat="46.63926" lon="12.30834">
        <ele>2551.96</ele>
        <time>2015-02-23T13:21:48Z</time>
      </trkpt>
      <trkpt lat="46.63927" lon="12.30835">
        <ele>2551.48</ele>
        <time>2015-02-23T13:21:49Z</time>
      </trkpt>
      <trkpt lat="46.6393" lon="12.30835">
        <ele>2551</ele>
        <time>2015-02-23T13:21:50Z</time>
      </trkpt>
      <trkpt lat="46.63933" lon="12.30835">
        <ele>2551</ele>
        <time>2015-02-23T13:21:51Z</time>
      </trkpt>
      <trkpt lat="46.63935" lon="12.30835">
        <ele>2550.03</ele>
        <time>2015-02-23T13:21:52Z</time>
      </trkpt>
      <trkpt lat="46.63938" lon="12.30835">
        <ele>2551</ele>
        <time>2015-02-23T13:21:53Z</time>
      </trkpt>
      <trkpt lat="46.63941" lon="12.30835">
        <ele>2548.11</ele>
        <time>2015-02-23T13:21:54Z</time>
      </trkpt>
      <trkpt lat="46.63943" lon="12.30835">
        <ele>2547.15</ele>
        <time>2015-02-23T13:21:55Z</time>
      </trkpt>
      <trkpt lat="46.63944" lon="12.30836">
        <ele>2546.19</ele>
        <time>2015-02-23T13:22:02Z</time>
      </trkpt>
      <trkpt lat="46.63946" lon="12.30837">
        <ele>2545.71</ele>
        <time>2015-02-23T13:22:04Z</time>
      </trkpt>
      <trkpt lat="46.63947" lon="12.30837">
        <ele>2544.75</ele>
        <time>2015-02-23T13:22:18Z</time>
      </trkpt>
      <trkpt lat="46.63948" lon="12.30838">
        <ele>2544.75</ele>
        <time>2015-02-23T13:22:39Z</time>
      </trkpt>
      <trkpt lat="46.6395" lon="12.30839">
        <ele>2544.27</ele>
        <time>2015-02-23T13:22:48Z</time>
      </trkpt>
      <trkpt lat="46.63952" lon="12.3084">
        <ele>2543.79</ele>
        <time>2015-02-23T13:22:49Z</time>
      </trkpt>
      <trkpt lat="46.63963" lon="12.3084">
        <ele>2540.9</ele>
        <time>2015-02-23T13:22:52Z</time>
      </trkpt>
      <trkpt lat="46.63969" lon="12.3084">
        <ele>2539.94</ele>
        <time>2015-02-23T13:22:53Z</time>
      </trkpt>
      <trkpt lat="46.63975" lon="12.30838">
        <ele>2538.98</ele>
        <time>2015-02-23T13:22:54Z</time>
      </trkpt>
      <trkpt lat="46.63982" lon="12.30836">
        <ele>2537.06</ele>
        <time>2015-02-23T13:22:55Z</time>
      </trkpt>
      <trkpt lat="46.63988" lon="12.30836">
        <ele>2536.58</ele>
        <time>2015-02-23T13:22:56Z</time>
      </trkpt>
      <trkpt lat="46.63994" lon="12.30837">
        <ele>2536.58</ele>
        <time>2015-02-23T13:22:57Z</time>
      </trkpt>
      <trkpt lat="46.63998" lon="12.30839">
        <ele>2536.58</ele>
        <time>2015-02-23T13:22:58Z</time>
      </trkpt>
      <trkpt lat="46.64006" lon="12.30842">
        <ele>2537.54</ele>
        <time>2015-02-23T13:23:06Z</time>
      </trkpt>
      <trkpt lat="46.6401" lon="12.30841">
        <ele>2536.58</ele>
        <time>2015-02-23T13:23:23Z</time>
      </trkpt>
      <trkpt lat="46.64012" lon="12.30842">
        <ele>2536.58</ele>
        <time>2015-02-23T13:23:24Z</time>
      </trkpt>
      <trkpt lat="46.64014" lon="12.30842">
        <ele>2536.1</ele>
        <time>2015-02-23T13:23:25Z</time>
      </trkpt>
      <trkpt lat="46.64016" lon="12.30843">
        <ele>2535.61</ele>
        <time>2015-02-23T13:23:26Z</time>
      </trkpt>
      <trkpt lat="46.6402" lon="12.30843">
        <ele>2534.17</ele>
        <time>2015-02-23T13:23:27Z</time>
      </trkpt>
      <trkpt lat="46.64023" lon="12.30843">
        <ele>2533.21</ele>
        <time>2015-02-23T13:23:28Z</time>
      </trkpt>
      <trkpt lat="46.64026" lon="12.30842">
        <ele>2532.73</ele>
        <time>2015-02-23T13:23:29Z</time>
      </trkpt>
      <trkpt lat="46.64028" lon="12.30843">
        <ele>2531.77</ele>
        <time>2015-02-23T13:23:30Z</time>
      </trkpt>
      <trkpt lat="46.64029" lon="12.30846">
        <ele>2530.81</ele>
        <time>2015-02-23T13:23:31Z</time>
      </trkpt>
      <trkpt lat="46.64032" lon="12.30847">
        <ele>2529.85</ele>
        <time>2015-02-23T13:23:32Z</time>
      </trkpt>
      <trkpt lat="46.64035" lon="12.30846">
        <ele>2528.4</ele>
        <time>2015-02-23T13:23:33Z</time>
      </trkpt>
      <trkpt lat="46.64038" lon="12.30844">
        <ele>2527.44</ele>
        <time>2015-02-23T13:23:34Z</time>
      </trkpt>
      <trkpt lat="46.64039" lon="12.30843">
        <ele>2527.44</ele>
        <time>2015-02-23T13:23:35Z</time>
      </trkpt>
      <trkpt lat="46.64043" lon="12.30842">
        <ele>2526.96</ele>
        <time>2015-02-23T13:23:37Z</time>
      </trkpt>
      <trkpt lat="46.64044" lon="12.30844">
        <ele>2526.48</ele>
        <time>2015-02-23T13:23:38Z</time>
      </trkpt>
      <trkpt lat="46.64041" lon="12.30851">
        <ele>2525.04</ele>
        <time>2015-02-23T13:23:45Z</time>
      </trkpt>
      <trkpt lat="46.64042" lon="12.30855">
        <ele>2524.56</ele>
        <time>2015-02-23T13:24:10Z</time>
      </trkpt>
      <trkpt lat="46.64038" lon="12.30859">
        <ele>2524.08</ele>
        <time>2015-02-23T13:24:13Z</time>
      </trkpt>
      <trkpt lat="46.64037" lon="12.30866">
        <ele>2522.16</ele>
        <time>2015-02-23T13:24:17Z</time>
      </trkpt>
      <trkpt lat="46.64037" lon="12.30866">
        <ele>2522.16</ele>
        <time>2015-02-23T13:24:38Z</time>
      </trkpt>
      <trkpt lat="46.64036" lon="12.30867">
        <ele>2522.16</ele>
        <time>2015-02-23T13:24:57Z</time>
      </trkpt>
      <trkpt lat="46.64038" lon="12.3087">
        <ele>2521.68</ele>
        <time>2015-02-23T13:24:59Z</time>
      </trkpt>
      <trkpt lat="46.64042" lon="12.30873">
        <ele>2519.27</ele>
        <time>2015-02-23T13:25:00Z</time>
      </trkpt>
      <trkpt lat="46.64045" lon="12.30874">
        <ele>2519.27</ele>
        <time>2015-02-23T13:25:01Z</time>
      </trkpt>
      <trkpt lat="46.64048" lon="12.30876">
        <ele>2518.31</ele>
        <time>2015-02-23T13:25:02Z</time>
      </trkpt>
      <trkpt lat="46.64044" lon="12.30884">
        <ele>2514.47</ele>
        <time>2015-02-23T13:25:04Z</time>
      </trkpt>
      <trkpt lat="46.64039" lon="12.30886">
        <ele>2513.02</ele>
        <time>2015-02-23T13:25:05Z</time>
      </trkpt>
      <trkpt lat="46.64038" lon="12.30888">
        <ele>2512.54</ele>
        <time>2015-02-23T13:25:06Z</time>
      </trkpt>
      <trkpt lat="46.64037" lon="12.30893">
        <ele>2511.1</ele>
        <time>2015-02-23T13:25:07Z</time>
      </trkpt>
      <trkpt lat="46.64041" lon="12.30902">
        <ele>2508.7</ele>
        <time>2015-02-23T13:25:09Z</time>
      </trkpt>
      <trkpt lat="46.64042" lon="12.30907">
        <ele>2506.77</ele>
        <time>2015-02-23T13:25:10Z</time>
      </trkpt>
      <trkpt lat="46.64039" lon="12.30911">
        <ele>2504.37</ele>
        <time>2015-02-23T13:25:11Z</time>
      </trkpt>
      <trkpt lat="46.64035" lon="12.30914">
        <ele>2503.41</ele>
        <time>2015-02-23T13:25:12Z</time>
      </trkpt>
      <trkpt lat="46.6403" lon="12.30916">
        <ele>2502.45</ele>
        <time>2015-02-23T13:25:13Z</time>
      </trkpt>
      <trkpt lat="46.64025" lon="12.30924">
        <ele>2501.01</ele>
        <time>2015-02-23T13:25:15Z</time>
      </trkpt>
      <trkpt lat="46.6403" lon="12.30933">
        <ele>2497.64</ele>
        <time>2015-02-23T13:25:17Z</time>
      </trkpt>
      <trkpt lat="46.64028" lon="12.30944">
        <ele>2494.28</ele>
        <time>2015-02-23T13:25:19Z</time>
      </trkpt>
      <trkpt lat="46.64024" lon="12.30947">
        <ele>2492.84</ele>
        <time>2015-02-23T13:25:20Z</time>
      </trkpt>
      <trkpt lat="46.64021" lon="12.30946">
        <ele>2491.87</ele>
        <time>2015-02-23T13:25:21Z</time>
      </trkpt>
      <trkpt lat="46.64018" lon="12.30947">
        <ele>2491.39</ele>
        <time>2015-02-23T13:25:22Z</time>
      </trkpt>
      <trkpt lat="46.64016" lon="12.30951">
        <ele>2490.91</ele>
        <time>2015-02-23T13:25:23Z</time>
      </trkpt>
      <trkpt lat="46.64015" lon="12.30955">
        <ele>2489.95</ele>
        <time>2015-02-23T13:25:24Z</time>
      </trkpt>
      <trkpt lat="46.64018" lon="12.30959">
        <ele>2488.03</ele>
        <time>2015-02-23T13:25:25Z</time>
      </trkpt>
      <trkpt lat="46.64015" lon="12.30969">
        <ele>2482.74</ele>
        <time>2015-02-23T13:25:28Z</time>
      </trkpt>
      <trkpt lat="46.64011" lon="12.30969">
        <ele>2481.78</ele>
        <time>2015-02-23T13:25:29Z</time>
      </trkpt>
      <trkpt lat="46.64008" lon="12.30968">
        <ele>2481.3</ele>
        <time>2015-02-23T13:25:30Z</time>
      </trkpt>
      <trkpt lat="46.64006" lon="12.30967">
        <ele>2479.38</ele>
        <time>2015-02-23T13:25:31Z</time>
      </trkpt>
      <trkpt lat="46.64005" lon="12.30967">
        <ele>2476.49</ele>
        <time>2015-02-23T13:25:33Z</time>
      </trkpt>
      <trkpt lat="46.64003" lon="12.3097">
        <ele>2474.09</ele>
        <time>2015-02-23T13:25:34Z</time>
      </trkpt>
      <trkpt lat="46.63999" lon="12.30972">
        <ele>2472.17</ele>
        <time>2015-02-23T13:25:35Z</time>
      </trkpt>
      <trkpt lat="46.63996" lon="12.30975">
        <ele>2471.21</ele>
        <time>2015-02-23T13:25:36Z</time>
      </trkpt>
      <trkpt lat="46.63993" lon="12.30986">
        <ele>2468.8</ele>
        <time>2015-02-23T13:25:38Z</time>
      </trkpt>
      <trkpt lat="46.63991" lon="12.30992">
        <ele>2467.84</ele>
        <time>2015-02-23T13:25:39Z</time>
      </trkpt>
      <trkpt lat="46.63991" lon="12.30997">
        <ele>2465.92</ele>
        <time>2015-02-23T13:25:40Z</time>
      </trkpt>
      <trkpt lat="46.63992" lon="12.31005">
        <ele>2463.52</ele>
        <time>2015-02-23T13:25:41Z</time>
      </trkpt>
      <trkpt lat="46.63992" lon="12.31011">
        <ele>2461.59</ele>
        <time>2015-02-23T13:25:42Z</time>
      </trkpt>
      <trkpt lat="46.6399" lon="12.31026">
        <ele>2457.27</ele>
        <time>2015-02-23T13:25:44Z</time>
      </trkpt>
      <trkpt lat="46.63989" lon="12.31041">
        <ele>2452.46</ele>
        <time>2015-02-23T13:25:47Z</time>
      </trkpt>
      <trkpt lat="46.63992" lon="12.31041">
        <ele>2451.98</ele>
        <time>2015-02-23T13:25:50Z</time>
      </trkpt>
      <trkpt lat="46.63996" lon="12.31029">
        <ele>2452.94</ele>
        <time>2015-02-23T13:26:08Z</time>
      </trkpt>
      <trkpt lat="46.63996" lon="12.31033">
        <ele>2452.94</ele>
        <time>2015-02-23T13:26:29Z</time>
      </trkpt>
      <trkpt lat="46.63995" lon="12.31038">
        <ele>2452.94</ele>
        <time>2015-02-23T13:26:55Z</time>
      </trkpt>
      <trkpt lat="46.63996" lon="12.3104">
        <ele>2452.94</ele>
        <time>2015-02-23T13:27:03Z</time>
      </trkpt>
      <trkpt lat="46.64004" lon="12.31052">
        <ele>2451.5</ele>
        <time>2015-02-23T13:27:09Z</time>
      </trkpt>
      <trkpt lat="46.64002" lon="12.31055">
        <ele>2450.06</ele>
        <time>2015-02-23T13:27:13Z</time>
      </trkpt>
      <trkpt lat="46.64003" lon="12.31053">
        <ele>2449.58</ele>
        <time>2015-02-23T13:27:31Z</time>
      </trkpt>
      <trkpt lat="46.64002" lon="12.31054">
        <ele>2449.58</ele>
        <time>2015-02-23T13:27:53Z</time>
      </trkpt>
      <trkpt lat="46.64002" lon="12.31054">
        <ele>2449.58</ele>
        <time>2015-02-23T13:28:12Z</time>
      </trkpt>
      <trkpt lat="46.64002" lon="12.31053">
        <ele>2449.58</ele>
        <time>2015-02-23T13:28:36Z</time>
      </trkpt>
      <trkpt lat="46.64002" lon="12.31055">
        <ele>2449.1</ele>
        <time>2015-02-23T13:29:00Z</time>
      </trkpt>
      <trkpt lat="46.63983" lon="12.31049">
        <ele>2446.69</ele>
        <time>2015-02-23T13:29:14Z</time>
      </trkpt>
      <trkpt lat="46.63977" lon="12.31064">
        <ele>2440.92</ele>
        <time>2015-02-23T13:29:18Z</time>
      </trkpt>
      <trkpt lat="46.63972" lon="12.31072">
        <ele>2437.08</ele>
        <time>2015-02-23T13:29:20Z</time>
      </trkpt>
      <trkpt lat="46.63968" lon="12.31075">
        <ele>2432.27</ele>
        <time>2015-02-23T13:29:21Z</time>
      </trkpt>
      <trkpt lat="46.63964" lon="12.31084">
        <ele>2429.39</ele>
        <time>2015-02-23T13:29:23Z</time>
      </trkpt>
      <trkpt lat="46.63961" lon="12.31091">
        <ele>2426.02</ele>
        <time>2015-02-23T13:29:24Z</time>
      </trkpt>
      <trkpt lat="46.63959" lon="12.31096">
        <ele>2425.54</ele>
        <time>2015-02-23T13:29:25Z</time>
      </trkpt>
      <trkpt lat="46.63957" lon="12.31103">
        <ele>2424.1</ele>
        <time>2015-02-23T13:29:26Z</time>
      </trkpt>
      <trkpt lat="46.63955" lon="12.31111">
        <ele>2421.7</ele>
        <time>2015-02-23T13:29:27Z</time>
      </trkpt>
      <trkpt lat="46.63953" lon="12.31124">
        <ele>2417.85</ele>
        <time>2015-02-23T13:29:29Z</time>
      </trkpt>
      <trkpt lat="46.63951" lon="12.31129">
        <ele>2416.89</ele>
        <time>2015-02-23T13:29:30Z</time>
      </trkpt>
      <trkpt lat="46.63949" lon="12.31128">
        <ele>2415.93</ele>
        <time>2015-02-23T13:29:32Z</time>
      </trkpt>
      <trkpt lat="46.63952" lon="12.31122">
        <ele>2415.45</ele>
        <time>2015-02-23T13:29:49Z</time>
      </trkpt>
      <trkpt lat="46.63951" lon="12.31123">
        <ele>2414.97</ele>
        <time>2015-02-23T13:30:04Z</time>
      </trkpt>
      <trkpt lat="46.63953" lon="12.31137">
        <ele>2413.05</ele>
        <time>2015-02-23T13:30:07Z</time>
      </trkpt>
      <trkpt lat="46.63957" lon="12.31142">
        <ele>2411.12</ele>
        <time>2015-02-23T13:30:08Z</time>
      </trkpt>
      <trkpt lat="46.6396" lon="12.31145">
        <ele>2411.12</ele>
        <time>2015-02-23T13:30:09Z</time>
      </trkpt>
      <trkpt lat="46.63965" lon="12.31148">
        <ele>2410.64</ele>
        <time>2015-02-23T13:30:10Z</time>
      </trkpt>
      <trkpt lat="46.63969" lon="12.31152">
        <ele>2410.16</ele>
        <time>2015-02-23T13:30:11Z</time>
      </trkpt>
      <trkpt lat="46.63972" lon="12.31163">
        <ele>2405.36</ele>
        <time>2015-02-23T13:30:13Z</time>
      </trkpt>
      <trkpt lat="46.63969" lon="12.31167">
        <ele>2404.88</ele>
        <time>2015-02-23T13:30:14Z</time>
      </trkpt>
      <trkpt lat="46.63969" lon="12.31183">
        <ele>2401.51</ele>
        <time>2015-02-23T13:30:17Z</time>
      </trkpt>
      <trkpt lat="46.63974" lon="12.31187">
        <ele>2400.07</ele>
        <time>2015-02-23T13:30:18Z</time>
      </trkpt>
      <trkpt lat="46.63979" lon="12.3119">
        <ele>2398.63</ele>
        <time>2015-02-23T13:30:19Z</time>
      </trkpt>
      <trkpt lat="46.63984" lon="12.31192">
        <ele>2398.15</ele>
        <time>2015-02-23T13:30:20Z</time>
      </trkpt>
      <trkpt lat="46.63989" lon="12.31195">
        <ele>2397.18</ele>
        <time>2015-02-23T13:30:21Z</time>
      </trkpt>
      <trkpt lat="46.63993" lon="12.31201">
        <ele>2394.78</ele>
        <time>2015-02-23T13:30:22Z</time>
      </trkpt>
      <trkpt lat="46.63996" lon="12.31207">
        <ele>2392.38</ele>
        <time>2015-02-23T13:30:23Z</time>
      </trkpt>
      <trkpt lat="46.64" lon="12.31213">
        <ele>2391.42</ele>
        <time>2015-02-23T13:30:24Z</time>
      </trkpt>
      <trkpt lat="46.64006" lon="12.31218">
        <ele>2389.49</ele>
        <time>2015-02-23T13:30:25Z</time>
      </trkpt>
      <trkpt lat="46.64011" lon="12.31222">
        <ele>2388.53</ele>
        <time>2015-02-23T13:30:26Z</time>
      </trkpt>
      <trkpt lat="46.64016" lon="12.31228">
        <ele>2387.57</ele>
        <time>2015-02-23T13:30:27Z</time>
      </trkpt>
      <trkpt lat="46.64019" lon="12.31235">
        <ele>2386.13</ele>
        <time>2015-02-23T13:30:28Z</time>
      </trkpt>
      <trkpt lat="46.64022" lon="12.31242">
        <ele>2384.69</ele>
        <time>2015-02-23T13:30:29Z</time>
      </trkpt>
      <trkpt lat="46.64025" lon="12.31249">
        <ele>2383.73</ele>
        <time>2015-02-23T13:30:30Z</time>
      </trkpt>
      <trkpt lat="46.64027" lon="12.31256">
        <ele>2382.28</ele>
        <time>2015-02-23T13:30:31Z</time>
      </trkpt>
      <trkpt lat="46.6403" lon="12.31263">
        <ele>2380.84</ele>
        <time>2015-02-23T13:30:32Z</time>
      </trkpt>
      <trkpt lat="46.64036" lon="12.31275">
        <ele>2379.4</ele>
        <time>2015-02-23T13:30:34Z</time>
      </trkpt>
      <trkpt lat="46.64043" lon="12.31293">
        <ele>2375.55</ele>
        <time>2015-02-23T13:30:36Z</time>
      </trkpt>
      <trkpt lat="46.64052" lon="12.31312">
        <ele>2371.23</ele>
        <time>2015-02-23T13:30:38Z</time>
      </trkpt>
      <trkpt lat="46.64061" lon="12.31334">
        <ele>2367.86</ele>
        <time>2015-02-23T13:30:40Z</time>
      </trkpt>
      <trkpt lat="46.64079" lon="12.31371">
        <ele>2364.02</ele>
        <time>2015-02-23T13:30:44Z</time>
      </trkpt>
      <trkpt lat="46.64095" lon="12.31399">
        <ele>2360.17</ele>
        <time>2015-02-23T13:30:47Z</time>
      </trkpt>
      <trkpt lat="46.64111" lon="12.31431">
        <ele>2356.33</ele>
        <time>2015-02-23T13:30:50Z</time>
      </trkpt>
      <trkpt lat="46.64122" lon="12.31451">
        <ele>2353.93</ele>
        <time>2015-02-23T13:30:52Z</time>
      </trkpt>
      <trkpt lat="46.64138" lon="12.31476">
        <ele>2352.96</ele>
        <time>2015-02-23T13:30:55Z</time>
      </trkpt>
      <trkpt lat="46.64142" lon="12.31481">
        <ele>2352.96</ele>
        <time>2015-02-23T13:30:56Z</time>
      </trkpt>
      <trkpt lat="46.64151" lon="12.31489">
        <ele>2352.48</ele>
        <time>2015-02-23T13:30:58Z</time>
      </trkpt>
      <trkpt lat="46.64169" lon="12.31502">
        <ele>2352.96</ele>
        <time>2015-02-23T13:31:08Z</time>
      </trkpt>
      <trkpt lat="46.6417" lon="12.3151">
        <ele>2353.44</ele>
        <time>2015-02-23T13:31:23Z</time>
      </trkpt>
      <trkpt lat="46.64176" lon="12.31516">
        <ele>2353.44</ele>
        <time>2015-02-23T13:31:39Z</time>
      </trkpt>
      <trkpt lat="46.64179" lon="12.31519">
        <ele>2353.93</ele>
        <time>2015-02-23T13:31:53Z</time>
      </trkpt>
      <trkpt lat="46.64179" lon="12.31518">
        <ele>2353.44</ele>
        <time>2015-02-23T13:32:15Z</time>
      </trkpt>
      <trkpt lat="46.64185" lon="12.31527">
        <ele>2352.48</ele>
        <time>2015-02-23T13:32:28Z</time>
      </trkpt>
      <trkpt lat="46.64197" lon="12.31557">
        <ele>2349.6</ele>
        <time>2015-02-23T13:32:40Z</time>
      </trkpt>
      <trkpt lat="46.64205" lon="12.31571">
        <ele>2348.64</ele>
        <time>2015-02-23T13:32:43Z</time>
      </trkpt>
      <trkpt lat="46.64211" lon="12.31578">
        <ele>2347.2</ele>
        <time>2015-02-23T13:32:45Z</time>
      </trkpt>
      <trkpt lat="46.64212" lon="12.31584">
        <ele>2346.23</ele>
        <time>2015-02-23T13:32:46Z</time>
      </trkpt>
      <trkpt lat="46.64211" lon="12.31588">
        <ele>2345.27</ele>
        <time>2015-02-23T13:32:47Z</time>
      </trkpt>
      <trkpt lat="46.6421" lon="12.31593">
        <ele>2344.79</ele>
        <time>2015-02-23T13:32:48Z</time>
      </trkpt>
      <trkpt lat="46.6421" lon="12.31599">
        <ele>2343.83</ele>
        <time>2015-02-23T13:32:49Z</time>
      </trkpt>
      <trkpt lat="46.64209" lon="12.31605">
        <ele>2342.87</ele>
        <time>2015-02-23T13:32:50Z</time>
      </trkpt>
      <trkpt lat="46.64206" lon="12.31611">
        <ele>2341.91</ele>
        <time>2015-02-23T13:32:51Z</time>
      </trkpt>
      <trkpt lat="46.64205" lon="12.31618">
        <ele>2340.47</ele>
        <time>2015-02-23T13:32:52Z</time>
      </trkpt>
      <trkpt lat="46.64205" lon="12.31627">
        <ele>2339.99</ele>
        <time>2015-02-23T13:32:53Z</time>
      </trkpt>
      <trkpt lat="46.64206" lon="12.31636">
        <ele>2339.02</ele>
        <time>2015-02-23T13:32:54Z</time>
      </trkpt>
      <trkpt lat="46.64208" lon="12.31643">
        <ele>2338.54</ele>
        <time>2015-02-23T13:32:55Z</time>
      </trkpt>
      <trkpt lat="46.64211" lon="12.31651">
        <ele>2337.58</ele>
        <time>2015-02-23T13:32:56Z</time>
      </trkpt>
      <trkpt lat="46.64218" lon="12.31668">
        <ele>2334.7</ele>
        <time>2015-02-23T13:32:58Z</time>
      </trkpt>
      <trkpt lat="46.64222" lon="12.31677">
        <ele>2332.78</ele>
        <time>2015-02-23T13:32:59Z</time>
      </trkpt>
      <trkpt lat="46.64239" lon="12.31705">
        <ele>2332.78</ele>
        <time>2015-02-23T13:33:04Z</time>
      </trkpt>
      <trkpt lat="46.6425" lon="12.31718">
        <ele>2333.26</ele>
        <time>2015-02-23T13:33:14Z</time>
      </trkpt>
      <trkpt lat="46.64251" lon="12.31724">
        <ele>2333.74</ele>
        <time>2015-02-23T13:33:31Z</time>
      </trkpt>
      <trkpt lat="46.64251" lon="12.31727">
        <ele>2333.26</ele>
        <time>2015-02-23T13:33:40Z</time>
      </trkpt>
      <trkpt lat="46.64249" lon="12.31741">
        <ele>2331.81</ele>
        <time>2015-02-23T13:33:48Z</time>
      </trkpt>
      <trkpt lat="46.64241" lon="12.31762">
        <ele>2330.37</ele>
        <time>2015-02-23T13:34:02Z</time>
      </trkpt>
      <trkpt lat="46.64233" lon="12.31789">
        <ele>2327.49</ele>
        <time>2015-02-23T13:34:07Z</time>
      </trkpt>
      <trkpt lat="46.6423" lon="12.31805">
        <ele>2327.01</ele>
        <time>2015-02-23T13:34:10Z</time>
      </trkpt>
      <trkpt lat="46.6423" lon="12.31811">
        <ele>2326.53</ele>
        <time>2015-02-23T13:34:11Z</time>
      </trkpt>
      <trkpt lat="46.64231" lon="12.31816">
        <ele>2326.05</ele>
        <time>2015-02-23T13:34:12Z</time>
      </trkpt>
      <trkpt lat="46.64232" lon="12.31819">
        <ele>2325.57</ele>
        <time>2015-02-23T13:34:13Z</time>
      </trkpt>
      <trkpt lat="46.64233" lon="12.3182">
        <ele>2326.05</ele>
        <time>2015-02-23T13:34:24Z</time>
      </trkpt>
      <trkpt lat="46.64234" lon="12.31819">
        <ele>2326.05</ele>
        <time>2015-02-23T13:34:43Z</time>
      </trkpt>
      <trkpt lat="46.64233" lon="12.31817">
        <ele>2326.53</ele>
        <time>2015-02-23T13:35:03Z</time>
      </trkpt>
      <trkpt lat="46.64232" lon="12.31816">
        <ele>2326.05</ele>
        <time>2015-02-23T13:35:06Z</time>
      </trkpt>
      <trkpt lat="46.6423" lon="12.31817">
        <ele>2325.57</ele>
        <time>2015-02-23T13:35:07Z</time>
      </trkpt>
      <trkpt lat="46.64223" lon="12.31824">
        <ele>2323.16</ele>
        <time>2015-02-23T13:35:09Z</time>
      </trkpt>
      <trkpt lat="46.64222" lon="12.31829">
        <ele>2322.68</ele>
        <time>2015-02-23T13:35:10Z</time>
      </trkpt>
      <trkpt lat="46.64222" lon="12.31835">
        <ele>2322.68</ele>
        <time>2015-02-23T13:35:11Z</time>
      </trkpt>
      <trkpt lat="46.64221" lon="12.3184">
        <ele>2321.72</ele>
        <time>2015-02-23T13:35:12Z</time>
      </trkpt>
      <trkpt lat="46.64218" lon="12.31843">
        <ele>2320.28</ele>
        <time>2015-02-23T13:35:13Z</time>
      </trkpt>
      <trkpt lat="46.64215" lon="12.31847">
        <ele>2319.32</ele>
        <time>2015-02-23T13:35:14Z</time>
      </trkpt>
      <trkpt lat="46.64214" lon="12.31852">
        <ele>2318.36</ele>
        <time>2015-02-23T13:35:15Z</time>
      </trkpt>
      <trkpt lat="46.64214" lon="12.31859">
        <ele>2317.4</ele>
        <time>2015-02-23T13:35:16Z</time>
      </trkpt>
      <trkpt lat="46.64214" lon="12.31865">
        <ele>2316.43</ele>
        <time>2015-02-23T13:35:17Z</time>
      </trkpt>
      <trkpt lat="46.64214" lon="12.31872">
        <ele>2315.95</ele>
        <time>2015-02-23T13:35:18Z</time>
      </trkpt>
      <trkpt lat="46.64213" lon="12.31879">
        <ele>2314.51</ele>
        <time>2015-02-23T13:35:19Z</time>
      </trkpt>
      <trkpt lat="46.64212" lon="12.31886">
        <ele>2313.07</ele>
        <time>2015-02-23T13:35:20Z</time>
      </trkpt>
      <trkpt lat="46.64211" lon="12.31894">
        <ele>2312.11</ele>
        <time>2015-02-23T13:35:21Z</time>
      </trkpt>
      <trkpt lat="46.64209" lon="12.31903">
        <ele>2310.67</ele>
        <time>2015-02-23T13:35:22Z</time>
      </trkpt>
      <trkpt lat="46.64199" lon="12.31927">
        <ele>2307.3</ele>
        <time>2015-02-23T13:35:25Z</time>
      </trkpt>
      <trkpt lat="46.64193" lon="12.31943">
        <ele>2304.9</ele>
        <time>2015-02-23T13:35:27Z</time>
      </trkpt>
      <trkpt lat="46.6419" lon="12.31949">
        <ele>2304.42</ele>
        <time>2015-02-23T13:35:28Z</time>
      </trkpt>
      <trkpt lat="46.64187" lon="12.31953">
        <ele>2303.94</ele>
        <time>2015-02-23T13:35:29Z</time>
      </trkpt>
      <trkpt lat="46.64184" lon="12.31955">
        <ele>2303.94</ele>
        <time>2015-02-23T13:35:30Z</time>
      </trkpt>
      <trkpt lat="46.64182" lon="12.31958">
        <ele>2302.98</ele>
        <time>2015-02-23T13:35:31Z</time>
      </trkpt>
      <trkpt lat="46.64181" lon="12.3196">
        <ele>2302.98</ele>
        <time>2015-02-23T13:35:32Z</time>
      </trkpt>
      <trkpt lat="46.64178" lon="12.31972">
        <ele>2302.49</ele>
        <time>2015-02-23T13:35:44Z</time>
      </trkpt>
      <trkpt lat="46.64164" lon="12.32004">
        <ele>2299.13</ele>
        <time>2015-02-23T13:35:55Z</time>
      </trkpt>
      <trkpt lat="46.6416" lon="12.32009">
        <ele>2299.13</ele>
        <time>2015-02-23T13:35:56Z</time>
      </trkpt>
      <trkpt lat="46.64138" lon="12.32045">
        <ele>2297.21</ele>
        <time>2015-02-23T13:36:07Z</time>
      </trkpt>
      <trkpt lat="46.64136" lon="12.32045">
        <ele>2296.73</ele>
        <time>2015-02-23T13:36:08Z</time>
      </trkpt>
      <trkpt lat="46.64135" lon="12.32043">
        <ele>2296.73</ele>
        <time>2015-02-23T13:36:09Z</time>
      </trkpt>
      <trkpt lat="46.64134" lon="12.32041">
        <ele>2296.73</ele>
        <time>2015-02-23T13:36:22Z</time>
      </trkpt>
      <trkpt lat="46.64134" lon="12.32043">
        <ele>2296.73</ele>
        <time>2015-02-23T13:36:49Z</time>
      </trkpt>
      <trkpt lat="46.64131" lon="12.32045">
        <ele>2296.73</ele>
        <time>2015-02-23T13:36:58Z</time>
      </trkpt>
      <trkpt lat="46.64129" lon="12.32048">
        <ele>2295.77</ele>
        <time>2015-02-23T13:36:59Z</time>
      </trkpt>
      <trkpt lat="46.64129" lon="12.32052">
        <ele>2295.28</ele>
        <time>2015-02-23T13:37:00Z</time>
      </trkpt>
      <trkpt lat="46.64128" lon="12.32058">
        <ele>2294.32</ele>
        <time>2015-02-23T13:37:01Z</time>
      </trkpt>
      <trkpt lat="46.64127" lon="12.32064">
        <ele>2293.84</ele>
        <time>2015-02-23T13:37:02Z</time>
      </trkpt>
      <trkpt lat="46.64125" lon="12.3207">
        <ele>2292.4</ele>
        <time>2015-02-23T13:37:03Z</time>
      </trkpt>
      <trkpt lat="46.64123" lon="12.32075">
        <ele>2291.44</ele>
        <time>2015-02-23T13:37:04Z</time>
      </trkpt>
      <trkpt lat="46.64121" lon="12.32078">
        <ele>2290.48</ele>
        <time>2015-02-23T13:37:05Z</time>
      </trkpt>
      <trkpt lat="46.64119" lon="12.32081">
        <ele>2289.04</ele>
        <time>2015-02-23T13:37:06Z</time>
      </trkpt>
      <trkpt lat="46.64117" lon="12.32085">
        <ele>2288.08</ele>
        <time>2015-02-23T13:37:07Z</time>
      </trkpt>
      <trkpt lat="46.64116" lon="12.3209">
        <ele>2287.11</ele>
        <time>2015-02-23T13:37:08Z</time>
      </trkpt>
      <trkpt lat="46.64116" lon="12.32093">
        <ele>2285.67</ele>
        <time>2015-02-23T13:37:09Z</time>
      </trkpt>
      <trkpt lat="46.64116" lon="12.32095">
        <ele>2285.19</ele>
        <time>2015-02-23T13:37:10Z</time>
      </trkpt>
      <trkpt lat="46.64116" lon="12.32095">
        <ele>2285.67</ele>
        <time>2015-02-23T13:37:20Z</time>
      </trkpt>
      <trkpt lat="46.6411" lon="12.32099">
        <ele>2283.27</ele>
        <time>2015-02-23T13:37:23Z</time>
      </trkpt>
      <trkpt lat="46.64102" lon="12.32088">
        <ele>2279.9</ele>
        <time>2015-02-23T13:37:26Z</time>
      </trkpt>
      <trkpt lat="46.64098" lon="12.32086">
        <ele>2278.46</ele>
        <time>2015-02-23T13:37:27Z</time>
      </trkpt>
      <trkpt lat="46.64096" lon="12.32088">
        <ele>2277.02</ele>
        <time>2015-02-23T13:37:28Z</time>
      </trkpt>
      <trkpt lat="46.64095" lon="12.32093">
        <ele>2276.54</ele>
        <time>2015-02-23T13:37:29Z</time>
      </trkpt>
      <trkpt lat="46.64094" lon="12.32096">
        <ele>2275.58</ele>
        <time>2015-02-23T13:37:30Z</time>
      </trkpt>
      <trkpt lat="46.64091" lon="12.32095">
        <ele>2273.66</ele>
        <time>2015-02-23T13:37:31Z</time>
      </trkpt>
      <trkpt lat="46.64088" lon="12.32095">
        <ele>2272.21</ele>
        <time>2015-02-23T13:37:32Z</time>
      </trkpt>
      <trkpt lat="46.64086" lon="12.32099">
        <ele>2270.77</ele>
        <time>2015-02-23T13:37:33Z</time>
      </trkpt>
      <trkpt lat="46.64086" lon="12.32104">
        <ele>2270.29</ele>
        <time>2015-02-23T13:37:34Z</time>
      </trkpt>
      <trkpt lat="46.64083" lon="12.32108">
        <ele>2269.81</ele>
        <time>2015-02-23T13:37:35Z</time>
      </trkpt>
      <trkpt lat="46.64075" lon="12.32111">
        <ele>2268.37</ele>
        <time>2015-02-23T13:37:37Z</time>
      </trkpt>
      <trkpt lat="46.64068" lon="12.32124">
        <ele>2266.45</ele>
        <time>2015-02-23T13:37:40Z</time>
      </trkpt>
      <trkpt lat="46.64059" lon="12.3215">
        <ele>2262.6</ele>
        <time>2015-02-23T13:37:45Z</time>
      </trkpt>
      <trkpt lat="46.64042" lon="12.32179">
        <ele>2258.75</ele>
        <time>2015-02-23T13:37:50Z</time>
      </trkpt>
      <trkpt lat="46.64038" lon="12.32206">
        <ele>2256.35</ele>
        <time>2015-02-23T13:37:54Z</time>
      </trkpt>
      <trkpt lat="46.64038" lon="12.32211">
        <ele>2256.35</ele>
        <time>2015-02-23T13:37:55Z</time>
      </trkpt>
      <trkpt lat="46.6404" lon="12.32216">
        <ele>2256.35</ele>
        <time>2015-02-23T13:38:04Z</time>
      </trkpt>
      <trkpt lat="46.64041" lon="12.32216">
        <ele>2255.87</ele>
        <time>2015-02-23T13:38:15Z</time>
      </trkpt>
      <trkpt lat="46.64043" lon="12.32221">
        <ele>2255.39</ele>
        <time>2015-02-23T13:38:18Z</time>
      </trkpt>
      <trkpt lat="46.64042" lon="12.32225">
        <ele>2254.91</ele>
        <time>2015-02-23T13:38:19Z</time>
      </trkpt>
      <trkpt lat="46.6404" lon="12.32229">
        <ele>2253.95</ele>
        <time>2015-02-23T13:38:20Z</time>
      </trkpt>
      <trkpt lat="46.64037" lon="12.32232">
        <ele>2252.99</ele>
        <time>2015-02-23T13:38:21Z</time>
      </trkpt>
      <trkpt lat="46.64034" lon="12.32235">
        <ele>2252.99</ele>
        <time>2015-02-23T13:38:22Z</time>
      </trkpt>
      <trkpt lat="46.64031" lon="12.32243">
        <ele>2252.03</ele>
        <time>2015-02-23T13:38:24Z</time>
      </trkpt>
      <trkpt lat="46.64032" lon="12.32248">
        <ele>2251.54</ele>
        <time>2015-02-23T13:38:25Z</time>
      </trkpt>
      <trkpt lat="46.64034" lon="12.32254">
        <ele>2250.58</ele>
        <time>2015-02-23T13:38:26Z</time>
      </trkpt>
      <trkpt lat="46.64032" lon="12.32259">
        <ele>2249.14</ele>
        <time>2015-02-23T13:38:27Z</time>
      </trkpt>
      <trkpt lat="46.64029" lon="12.32263">
        <ele>2247.7</ele>
        <time>2015-02-23T13:38:28Z</time>
      </trkpt>
      <trkpt lat="46.64027" lon="12.32267">
        <ele>2246.74</ele>
        <time>2015-02-23T13:38:29Z</time>
      </trkpt>
      <trkpt lat="46.64031" lon="12.32283">
        <ele>2244.33</ele>
        <time>2015-02-23T13:38:32Z</time>
      </trkpt>
      <trkpt lat="46.64029" lon="12.32289">
        <ele>2242.41</ele>
        <time>2015-02-23T13:38:33Z</time>
      </trkpt>
      <trkpt lat="46.64025" lon="12.32292">
        <ele>2241.45</ele>
        <time>2015-02-23T13:38:34Z</time>
      </trkpt>
      <trkpt lat="46.64021" lon="12.32292">
        <ele>2240.49</ele>
        <time>2015-02-23T13:38:35Z</time>
      </trkpt>
      <trkpt lat="46.64017" lon="12.32292">
        <ele>2240.01</ele>
        <time>2015-02-23T13:38:36Z</time>
      </trkpt>
      <trkpt lat="46.64002" lon="12.32293">
        <ele>2239.05</ele>
        <time>2015-02-23T13:38:40Z</time>
      </trkpt>
      <trkpt lat="46.64" lon="12.32302">
        <ele>2237.13</ele>
        <time>2015-02-23T13:38:42Z</time>
      </trkpt>
      <trkpt lat="46.64002" lon="12.32326">
        <ele>2231.84</ele>
        <time>2015-02-23T13:38:46Z</time>
      </trkpt>
      <trkpt lat="46.64008" lon="12.32331">
        <ele>2230.88</ele>
        <time>2015-02-23T13:38:48Z</time>
      </trkpt>
      <trkpt lat="46.64012" lon="12.32336">
        <ele>2230.4</ele>
        <time>2015-02-23T13:38:51Z</time>
      </trkpt>
      <trkpt lat="46.6401" lon="12.3234">
        <ele>2229.92</ele>
        <time>2015-02-23T13:38:52Z</time>
      </trkpt>
      <trkpt lat="46.64007" lon="12.32342">
        <ele>2228.95</ele>
        <time>2015-02-23T13:38:53Z</time>
      </trkpt>
      <trkpt lat="46.64003" lon="12.32341">
        <ele>2227.03</ele>
        <time>2015-02-23T13:38:54Z</time>
      </trkpt>
      <trkpt lat="46.63999" lon="12.3234">
        <ele>2226.07</ele>
        <time>2015-02-23T13:38:55Z</time>
      </trkpt>
      <trkpt lat="46.63997" lon="12.32342">
        <ele>2226.55</ele>
        <time>2015-02-23T13:38:56Z</time>
      </trkpt>
      <trkpt lat="46.63997" lon="12.32347">
        <ele>2225.59</ele>
        <time>2015-02-23T13:38:57Z</time>
      </trkpt>
      <trkpt lat="46.63999" lon="12.32352">
        <ele>2225.11</ele>
        <time>2015-02-23T13:38:58Z</time>
      </trkpt>
      <trkpt lat="46.64002" lon="12.32356">
        <ele>2224.63</ele>
        <time>2015-02-23T13:38:59Z</time>
      </trkpt>
      <trkpt lat="46.64004" lon="12.3236">
        <ele>2223.67</ele>
        <time>2015-02-23T13:39:00Z</time>
      </trkpt>
      <trkpt lat="46.64004" lon="12.32363">
        <ele>2223.19</ele>
        <time>2015-02-23T13:39:01Z</time>
      </trkpt>
      <trkpt lat="46.64006" lon="12.32367">
        <ele>2222.71</ele>
        <time>2015-02-23T13:39:02Z</time>
      </trkpt>
      <trkpt lat="46.64008" lon="12.32367">
        <ele>2222.22</ele>
        <time>2015-02-23T13:39:03Z</time>
      </trkpt>
      <trkpt lat="46.6401" lon="12.32367">
        <ele>2222.22</ele>
        <time>2015-02-23T13:39:04Z</time>
      </trkpt>
      <trkpt lat="46.64012" lon="12.32367">
        <ele>2221.26</ele>
        <time>2015-02-23T13:39:05Z</time>
      </trkpt>
      <trkpt lat="46.64014" lon="12.32367">
        <ele>2221.26</ele>
        <time>2015-02-23T13:39:06Z</time>
      </trkpt>
      <trkpt lat="46.64015" lon="12.32367">
        <ele>2221.26</ele>
        <time>2015-02-23T13:39:14Z</time>
      </trkpt>
      <trkpt lat="46.64017" lon="12.32366">
        <ele>2220.3</ele>
        <time>2015-02-23T13:39:24Z</time>
      </trkpt>
      <trkpt lat="46.64019" lon="12.32365">
        <ele>2219.82</ele>
        <time>2015-02-23T13:39:25Z</time>
      </trkpt>
      <trkpt lat="46.64028" lon="12.32364">
        <ele>2218.38</ele>
        <time>2015-02-23T13:39:28Z</time>
      </trkpt>
      <trkpt lat="46.6403" lon="12.32366">
        <ele>2216.94</ele>
        <time>2015-02-23T13:39:29Z</time>
      </trkpt>
      <trkpt lat="46.64029" lon="12.3237">
        <ele>2215.5</ele>
        <time>2015-02-23T13:39:30Z</time>
      </trkpt>
      <trkpt lat="46.6403" lon="12.32374">
        <ele>2214.53</ele>
        <time>2015-02-23T13:39:31Z</time>
      </trkpt>
      <trkpt lat="46.64032" lon="12.32374">
        <ele>2214.05</ele>
        <time>2015-02-23T13:39:32Z</time>
      </trkpt>
      <trkpt lat="46.64034" lon="12.32372">
        <ele>2213.57</ele>
        <time>2015-02-23T13:39:33Z</time>
      </trkpt>
      <trkpt lat="46.64037" lon="12.3237">
        <ele>2212.61</ele>
        <time>2015-02-23T13:39:34Z</time>
      </trkpt>
      <trkpt lat="46.64041" lon="12.32367">
        <ele>2212.13</ele>
        <time>2015-02-23T13:39:36Z</time>
      </trkpt>
      <trkpt lat="46.6404" lon="12.32365">
        <ele>2211.65</ele>
        <time>2015-02-23T13:39:41Z</time>
      </trkpt>
      <trkpt lat="46.64041" lon="12.32363">
        <ele>2211.65</ele>
        <time>2015-02-23T13:39:42Z</time>
      </trkpt>
      <trkpt lat="46.64045" lon="12.32356">
        <ele>2209.73</ele>
        <time>2015-02-23T13:39:44Z</time>
      </trkpt>
      <trkpt lat="46.64049" lon="12.32351">
        <ele>2208.29</ele>
        <time>2015-02-23T13:39:45Z</time>
      </trkpt>
      <trkpt lat="46.64057" lon="12.32337">
        <ele>2206.84</ele>
        <time>2015-02-23T13:39:47Z</time>
      </trkpt>
      <trkpt lat="46.64062" lon="12.32333">
        <ele>2204.92</ele>
        <time>2015-02-23T13:39:48Z</time>
      </trkpt>
      <trkpt lat="46.64067" lon="12.32333">
        <ele>2204.44</ele>
        <time>2015-02-23T13:39:49Z</time>
      </trkpt>
      <trkpt lat="46.6407" lon="12.32335">
        <ele>2204.44</ele>
        <time>2015-02-23T13:39:50Z</time>
      </trkpt>
      <trkpt lat="46.64071" lon="12.32339">
        <ele>2202.04</ele>
        <time>2015-02-23T13:39:51Z</time>
      </trkpt>
      <trkpt lat="46.64073" lon="12.32342">
        <ele>2200.59</ele>
        <time>2015-02-23T13:39:52Z</time>
      </trkpt>
      <trkpt lat="46.64073" lon="12.32347">
        <ele>2199.63</ele>
        <time>2015-02-23T13:39:53Z</time>
      </trkpt>
      <trkpt lat="46.64076" lon="12.3235">
        <ele>2198.67</ele>
        <time>2015-02-23T13:39:54Z</time>
      </trkpt>
      <trkpt lat="46.64078" lon="12.3235">
        <ele>2198.19</ele>
        <time>2015-02-23T13:39:55Z</time>
      </trkpt>
      <trkpt lat="46.64079" lon="12.32349">
        <ele>2197.71</ele>
        <time>2015-02-23T13:39:56Z</time>
      </trkpt>
      <trkpt lat="46.64074" lon="12.32351">
        <ele>2198.19</ele>
        <time>2015-02-23T13:40:10Z</time>
      </trkpt>
      <trkpt lat="46.64075" lon="12.32353">
        <ele>2197.71</ele>
        <time>2015-02-23T13:40:12Z</time>
      </trkpt>
      <trkpt lat="46.64077" lon="12.32354">
        <ele>2197.23</ele>
        <time>2015-02-23T13:40:13Z</time>
      </trkpt>
      <trkpt lat="46.64079" lon="12.32356">
        <ele>2197.23</ele>
        <time>2015-02-23T13:40:14Z</time>
      </trkpt>
      <trkpt lat="46.64081" lon="12.3236">
        <ele>2196.27</ele>
        <time>2015-02-23T13:40:15Z</time>
      </trkpt>
      <trkpt lat="46.6408" lon="12.32365">
        <ele>2192.9</ele>
        <time>2015-02-23T13:40:17Z</time>
      </trkpt>
      <trkpt lat="46.64083" lon="12.32371">
        <ele>2191.46</ele>
        <time>2015-02-23T13:40:19Z</time>
      </trkpt>
      <trkpt lat="46.64086" lon="12.32373">
        <ele>2190.5</ele>
        <time>2015-02-23T13:40:20Z</time>
      </trkpt>
      <trkpt lat="46.64089" lon="12.32375">
        <ele>2190.02</ele>
        <time>2015-02-23T13:40:21Z</time>
      </trkpt>
      <trkpt lat="46.64091" lon="12.32378">
        <ele>2189.06</ele>
        <time>2015-02-23T13:40:22Z</time>
      </trkpt>
      <trkpt lat="46.64092" lon="12.3238">
        <ele>2186.66</ele>
        <time>2015-02-23T13:40:23Z</time>
      </trkpt>
      <trkpt lat="46.64092" lon="12.32383">
        <ele>2185.21</ele>
        <time>2015-02-23T13:40:24Z</time>
      </trkpt>
      <trkpt lat="46.64094" lon="12.32389">
        <ele>2184.25</ele>
        <time>2015-02-23T13:40:25Z</time>
      </trkpt>
      <trkpt lat="46.64096" lon="12.32394">
        <ele>2182.81</ele>
        <time>2015-02-23T13:40:26Z</time>
      </trkpt>
      <trkpt lat="46.64099" lon="12.32399">
        <ele>2181.37</ele>
        <time>2015-02-23T13:40:27Z</time>
      </trkpt>
      <trkpt lat="46.64103" lon="12.32402">
        <ele>2179.93</ele>
        <time>2015-02-23T13:40:28Z</time>
      </trkpt>
      <trkpt lat="46.64106" lon="12.32405">
        <ele>2179.45</ele>
        <time>2015-02-23T13:40:29Z</time>
      </trkpt>
      <trkpt lat="46.64117" lon="12.3241">
        <ele>2178.97</ele>
        <time>2015-02-23T13:40:38Z</time>
      </trkpt>
      <trkpt lat="46.64116" lon="12.32412">
        <ele>2178.48</ele>
        <time>2015-02-23T13:40:42Z</time>
      </trkpt>
      <trkpt lat="46.64118" lon="12.32414">
        <ele>2178.48</ele>
        <time>2015-02-23T13:40:43Z</time>
      </trkpt>
      <trkpt lat="46.6412" lon="12.32418">
        <ele>2177.52</ele>
        <time>2015-02-23T13:40:44Z</time>
      </trkpt>
      <trkpt lat="46.6413" lon="12.32432">
        <ele>2174.64</ele>
        <time>2015-02-23T13:40:47Z</time>
      </trkpt>
      <trkpt lat="46.64133" lon="12.32437">
        <ele>2174.64</ele>
        <time>2015-02-23T13:40:48Z</time>
      </trkpt>
      <trkpt lat="46.64135" lon="12.32444">
        <ele>2174.16</ele>
        <time>2015-02-23T13:40:49Z</time>
      </trkpt>
      <trkpt lat="46.6414" lon="12.32459">
        <ele>2172.24</ele>
        <time>2015-02-23T13:40:51Z</time>
      </trkpt>
      <trkpt lat="46.64141" lon="12.32464">
        <ele>2172.24</ele>
        <time>2015-02-23T13:40:52Z</time>
      </trkpt>
      <trkpt lat="46.64144" lon="12.32477">
        <ele>2172.24</ele>
        <time>2015-02-23T13:41:01Z</time>
      </trkpt>
      <trkpt lat="46.64148" lon="12.32482">
        <ele>2171.76</ele>
        <time>2015-02-23T13:41:05Z</time>
      </trkpt>
      <trkpt lat="46.64157" lon="12.32488">
        <ele>2171.27</ele>
        <time>2015-02-23T13:41:20Z</time>
      </trkpt>
      <trkpt lat="46.64157" lon="12.32492">
        <ele>2171.27</ele>
        <time>2015-02-23T13:41:37Z</time>
      </trkpt>
      <trkpt lat="46.64161" lon="12.32489">
        <ele>2171.27</ele>
        <time>2015-02-23T13:41:52Z</time>
      </trkpt>
      <trkpt lat="46.6416" lon="12.3249">
        <ele>2171.27</ele>
        <time>2015-02-23T13:42:10Z</time>
      </trkpt>
      <trkpt lat="46.64167" lon="12.32495">
        <ele>2167.43</ele>
        <time>2015-02-23T13:42:14Z</time>
      </trkpt>
      <trkpt lat="46.64167" lon="12.32499">
        <ele>2167.43</ele>
        <time>2015-02-23T13:42:15Z</time>
      </trkpt>
      <trkpt lat="46.64175" lon="12.32508">
        <ele>2163.58</ele>
        <time>2015-02-23T13:42:19Z</time>
      </trkpt>
      <trkpt lat="46.64175" lon="12.32512">
        <ele>2162.62</ele>
        <time>2015-02-23T13:42:20Z</time>
      </trkpt>
      <trkpt lat="46.64176" lon="12.32519">
        <ele>2161.66</ele>
        <time>2015-02-23T13:42:21Z</time>
      </trkpt>
      <trkpt lat="46.64178" lon="12.32526">
        <ele>2160.7</ele>
        <time>2015-02-23T13:42:22Z</time>
      </trkpt>
      <trkpt lat="46.64178" lon="12.32531">
        <ele>2159.74</ele>
        <time>2015-02-23T13:42:23Z</time>
      </trkpt>
      <trkpt lat="46.64179" lon="12.32537">
        <ele>2157.82</ele>
        <time>2015-02-23T13:42:29Z</time>
      </trkpt>
      <trkpt lat="46.64178" lon="12.32544">
        <ele>2156.86</ele>
        <time>2015-02-23T13:42:33Z</time>
      </trkpt>
      <trkpt lat="46.64181" lon="12.32564">
        <ele>2153.49</ele>
        <time>2015-02-23T13:42:37Z</time>
      </trkpt>
      <trkpt lat="46.64184" lon="12.32574">
        <ele>2153.01</ele>
        <time>2015-02-23T13:42:40Z</time>
      </trkpt>
      <trkpt lat="46.64178" lon="12.32587">
        <ele>2150.61</ele>
        <time>2015-02-23T13:42:45Z</time>
      </trkpt>
      <trkpt lat="46.64179" lon="12.32585">
        <ele>2150.61</ele>
        <time>2015-02-23T13:42:55Z</time>
      </trkpt>
      <trkpt lat="46.64178" lon="12.32602">
        <ele>2147.24</ele>
        <time>2015-02-23T13:43:00Z</time>
      </trkpt>
      <trkpt lat="46.6418" lon="12.32618">
        <ele>2143.88</ele>
        <time>2015-02-23T13:43:04Z</time>
      </trkpt>
      <trkpt lat="46.64182" lon="12.32628">
        <ele>2140.51</ele>
        <time>2015-02-23T13:43:08Z</time>
      </trkpt>
      <trkpt lat="46.64184" lon="12.32628">
        <ele>2140.03</ele>
        <time>2015-02-23T13:43:20Z</time>
      </trkpt>
      <trkpt lat="46.64185" lon="12.32631">
        <ele>2139.55</ele>
        <time>2015-02-23T13:43:41Z</time>
      </trkpt>
      <trkpt lat="46.64188" lon="12.32649">
        <ele>2135.71</ele>
        <time>2015-02-23T13:43:47Z</time>
      </trkpt>
      <trkpt lat="46.6419" lon="12.32652">
        <ele>2135.71</ele>
        <time>2015-02-23T13:43:48Z</time>
      </trkpt>
      <trkpt lat="46.64192" lon="12.32655">
        <ele>2134.26</ele>
        <time>2015-02-23T13:43:50Z</time>
      </trkpt>
      <trkpt lat="46.64193" lon="12.3266">
        <ele>2133.78</ele>
        <time>2015-02-23T13:43:54Z</time>
      </trkpt>
      <trkpt lat="46.64195" lon="12.32673">
        <ele>2132.34</ele>
        <time>2015-02-23T13:44:06Z</time>
      </trkpt>
      <trkpt lat="46.64198" lon="12.32682">
        <ele>2130.9</ele>
        <time>2015-02-23T13:44:13Z</time>
      </trkpt>
      <trkpt lat="46.64198" lon="12.32686">
        <ele>2130.42</ele>
        <time>2015-02-23T13:44:14Z</time>
      </trkpt>
      <trkpt lat="46.64199" lon="12.32689">
        <ele>2128.98</ele>
        <time>2015-02-23T13:44:15Z</time>
      </trkpt>
      <trkpt lat="46.642" lon="12.32692">
        <ele>2128.98</ele>
        <time>2015-02-23T13:44:16Z</time>
      </trkpt>
      <trkpt lat="46.64201" lon="12.32696">
        <ele>2128.5</ele>
        <time>2015-02-23T13:44:17Z</time>
      </trkpt>
      <trkpt lat="46.64208" lon="12.327">
        <ele>2126.57</ele>
        <time>2015-02-23T13:44:19Z</time>
      </trkpt>
      <trkpt lat="46.64211" lon="12.32703">
        <ele>2125.61</ele>
        <time>2015-02-23T13:44:20Z</time>
      </trkpt>
      <trkpt lat="46.64217" lon="12.32704">
        <ele>2125.13</ele>
        <time>2015-02-23T13:44:23Z</time>
      </trkpt>
      <trkpt lat="46.64221" lon="12.32704">
        <ele>2123.69</ele>
        <time>2015-02-23T13:44:26Z</time>
      </trkpt>
      <trkpt lat="46.64226" lon="12.32704">
        <ele>2122.25</ele>
        <time>2015-02-23T13:44:27Z</time>
      </trkpt>
      <trkpt lat="46.64231" lon="12.32704">
        <ele>2121.77</ele>
        <time>2015-02-23T13:44:28Z</time>
      </trkpt>
      <trkpt lat="46.64234" lon="12.32708">
        <ele>2121.77</ele>
        <time>2015-02-23T13:44:29Z</time>
      </trkpt>
      <trkpt lat="46.64237" lon="12.32716">
        <ele>2120.32</ele>
        <time>2015-02-23T13:44:31Z</time>
      </trkpt>
      <trkpt lat="46.6424" lon="12.32729">
        <ele>2118.88</ele>
        <time>2015-02-23T13:44:40Z</time>
      </trkpt>
      <trkpt lat="46.64241" lon="12.32735">
        <ele>2119.36</ele>
        <time>2015-02-23T13:44:54Z</time>
      </trkpt>
      <trkpt lat="46.64241" lon="12.32736">
        <ele>2119.36</ele>
        <time>2015-02-23T13:45:00Z</time>
      </trkpt>
      <trkpt lat="46.64242" lon="12.32749">
        <ele>2117.44</ele>
        <time>2015-02-23T13:45:04Z</time>
      </trkpt>
      <trkpt lat="46.6424" lon="12.32752">
        <ele>2116.96</ele>
        <time>2015-02-23T13:45:05Z</time>
      </trkpt>
      <trkpt lat="46.64237" lon="12.32751">
        <ele>2115.52</ele>
        <time>2015-02-23T13:45:06Z</time>
      </trkpt>
      <trkpt lat="46.64231" lon="12.32748">
        <ele>2113.6</ele>
        <time>2015-02-23T13:45:08Z</time>
      </trkpt>
      <trkpt lat="46.64229" lon="12.32751">
        <ele>2112.63</ele>
        <time>2015-02-23T13:45:09Z</time>
      </trkpt>
      <trkpt lat="46.6423" lon="12.32757">
        <ele>2111.19</ele>
        <time>2015-02-23T13:45:10Z</time>
      </trkpt>
      <trkpt lat="46.64231" lon="12.32762">
        <ele>2110.71</ele>
        <time>2015-02-23T13:45:11Z</time>
      </trkpt>
      <trkpt lat="46.6423" lon="12.32765">
        <ele>2109.27</ele>
        <time>2015-02-23T13:45:12Z</time>
      </trkpt>
      <trkpt lat="46.64227" lon="12.32767">
        <ele>2107.83</ele>
        <time>2015-02-23T13:45:13Z</time>
      </trkpt>
      <trkpt lat="46.64225" lon="12.3277">
        <ele>2106.39</ele>
        <time>2015-02-23T13:45:14Z</time>
      </trkpt>
      <trkpt lat="46.64225" lon="12.32775">
        <ele>2105.42</ele>
        <time>2015-02-23T13:45:15Z</time>
      </trkpt>
      <trkpt lat="46.64225" lon="12.3278">
        <ele>2104.94</ele>
        <time>2015-02-23T13:45:16Z</time>
      </trkpt>
      <trkpt lat="46.64225" lon="12.32782">
        <ele>2104.94</ele>
        <time>2015-02-23T13:45:17Z</time>
      </trkpt>
      <trkpt lat="46.64224" lon="12.32784">
        <ele>2104.46</ele>
        <time>2015-02-23T13:45:19Z</time>
      </trkpt>
      <trkpt lat="46.64218" lon="12.32786">
        <ele>2101.1</ele>
        <time>2015-02-23T13:45:22Z</time>
      </trkpt>
      <trkpt lat="46.64215" lon="12.32795">
        <ele>2097.25</ele>
        <time>2015-02-23T13:45:26Z</time>
      </trkpt>
      <trkpt lat="46.64212" lon="12.32803">
        <ele>2094.37</ele>
        <time>2015-02-23T13:45:29Z</time>
      </trkpt>
      <trkpt lat="46.64212" lon="12.32819">
        <ele>2091.49</ele>
        <time>2015-02-23T13:45:34Z</time>
      </trkpt>
      <trkpt lat="46.64211" lon="12.3282">
        <ele>2091.49</ele>
        <time>2015-02-23T13:45:35Z</time>
      </trkpt>
      <trkpt lat="46.64208" lon="12.3281">
        <ele>2091.49</ele>
        <time>2015-02-23T13:45:49Z</time>
      </trkpt>
      <trkpt lat="46.64204" lon="12.32808">
        <ele>2091</ele>
        <time>2015-02-23T13:46:10Z</time>
      </trkpt>
      <trkpt lat="46.64203" lon="12.32808">
        <ele>2090.52</ele>
        <time>2015-02-23T13:46:29Z</time>
      </trkpt>
      <trkpt lat="46.64203" lon="12.32806">
        <ele>2090.04</ele>
        <time>2015-02-23T13:46:54Z</time>
      </trkpt>
      <trkpt lat="46.64203" lon="12.32807">
        <ele>2090.04</ele>
        <time>2015-02-23T13:47:16Z</time>
      </trkpt>
      <trkpt lat="46.64195" lon="12.3282">
        <ele>2085.72</ele>
        <time>2015-02-23T13:47:21Z</time>
      </trkpt>
      <trkpt lat="46.64189" lon="12.32833">
        <ele>2081.87</ele>
        <time>2015-02-23T13:47:25Z</time>
      </trkpt>
      <trkpt lat="46.64185" lon="12.32848">
        <ele>2077.55</ele>
        <time>2015-02-23T13:47:30Z</time>
      </trkpt>
      <trkpt lat="46.64182" lon="12.32853">
        <ele>2074.66</ele>
        <time>2015-02-23T13:47:35Z</time>
      </trkpt>
      <trkpt lat="46.64183" lon="12.32851">
        <ele>2075.14</ele>
        <time>2015-02-23T13:47:54Z</time>
      </trkpt>
      <trkpt lat="46.64183" lon="12.3286">
        <ele>2074.66</ele>
        <time>2015-02-23T13:48:14Z</time>
      </trkpt>
      <trkpt lat="46.64185" lon="12.32866">
        <ele>2073.7</ele>
        <time>2015-02-23T13:48:20Z</time>
      </trkpt>
      <trkpt lat="46.64187" lon="12.32867">
        <ele>2073.7</ele>
        <time>2015-02-23T13:48:34Z</time>
      </trkpt>
      <trkpt lat="46.64189" lon="12.32873">
        <ele>2071.78</ele>
        <time>2015-02-23T13:48:48Z</time>
      </trkpt>
      <trkpt lat="46.64197" lon="12.32888">
        <ele>2068.89</ele>
        <time>2015-02-23T13:48:53Z</time>
      </trkpt>
      <trkpt lat="46.64197" lon="12.32892">
        <ele>2068.41</ele>
        <time>2015-02-23T13:48:54Z</time>
      </trkpt>
      <trkpt lat="46.64195" lon="12.32889">
        <ele>2066.01</ele>
        <time>2015-02-23T13:48:56Z</time>
      </trkpt>
      <trkpt lat="46.64194" lon="12.32886">
        <ele>2066.01</ele>
        <time>2015-02-23T13:48:57Z</time>
      </trkpt>
      <trkpt lat="46.64189" lon="12.32884">
        <ele>2065.53</ele>
        <time>2015-02-23T13:49:12Z</time>
      </trkpt>
      <trkpt lat="46.64189" lon="12.32882">
        <ele>2065.53</ele>
        <time>2015-02-23T13:49:35Z</time>
      </trkpt>
      <trkpt lat="46.64189" lon="12.32885">
        <ele>2064.57</ele>
        <time>2015-02-23T13:49:52Z</time>
      </trkpt>
      <trkpt lat="46.64188" lon="12.32888">
        <ele>2063.13</ele>
        <time>2015-02-23T13:49:53Z</time>
      </trkpt>
      <trkpt lat="46.64187" lon="12.32891">
        <ele>2063.13</ele>
        <time>2015-02-23T13:49:54Z</time>
      </trkpt>
      <trkpt lat="46.64186" lon="12.32892">
        <ele>2061.68</ele>
        <time>2015-02-23T13:49:55Z</time>
      </trkpt>
      <trkpt lat="46.64185" lon="12.32892">
        <ele>2060.72</ele>
        <time>2015-02-23T13:49:56Z</time>
      </trkpt>
      <trkpt lat="46.64183" lon="12.32893">
        <ele>2059.76</ele>
        <time>2015-02-23T13:49:57Z</time>
      </trkpt>
      <trkpt lat="46.64182" lon="12.32895">
        <ele>2058.8</ele>
        <time>2015-02-23T13:49:59Z</time>
      </trkpt>
      <trkpt lat="46.64179" lon="12.32896">
        <ele>2058.8</ele>
        <time>2015-02-23T13:50:07Z</time>
      </trkpt>
      <trkpt lat="46.64177" lon="12.32897">
        <ele>2057.84</ele>
        <time>2015-02-23T13:50:08Z</time>
      </trkpt>
      <trkpt lat="46.64175" lon="12.32897">
        <ele>2056.4</ele>
        <time>2015-02-23T13:50:11Z</time>
      </trkpt>
      <trkpt lat="46.64171" lon="12.32902">
        <ele>2054.47</ele>
        <time>2015-02-23T13:50:23Z</time>
      </trkpt>
      <trkpt lat="46.64171" lon="12.32903">
        <ele>2053.99</ele>
        <time>2015-02-23T13:50:24Z</time>
      </trkpt>
      <trkpt lat="46.6417" lon="12.32904">
        <ele>2053.51</ele>
        <time>2015-02-23T13:50:25Z</time>
      </trkpt>
      <trkpt lat="46.64169" lon="12.32905">
        <ele>2053.03</ele>
        <time>2015-02-23T13:50:26Z</time>
      </trkpt>
      <trkpt lat="46.64166" lon="12.32908">
        <ele>2052.07</ele>
        <time>2015-02-23T13:50:28Z</time>
      </trkpt>
      <trkpt lat="46.64163" lon="12.32912">
        <ele>2050.15</ele>
        <time>2015-02-23T13:50:32Z</time>
      </trkpt>
      <trkpt lat="46.64158" lon="12.32913">
        <ele>2047.75</ele>
        <time>2015-02-23T13:50:44Z</time>
      </trkpt>
      <trkpt lat="46.64153" lon="12.32917">
        <ele>2045.34</ele>
        <time>2015-02-23T13:50:49Z</time>
      </trkpt>
      <trkpt lat="46.64151" lon="12.32917">
        <ele>2044.86</ele>
        <time>2015-02-23T13:50:50Z</time>
      </trkpt>
      <trkpt lat="46.64149" lon="12.3292">
        <ele>2043.9</ele>
        <time>2015-02-23T13:50:51Z</time>
      </trkpt>
      <trkpt lat="46.64147" lon="12.32924">
        <ele>2042.46</ele>
        <time>2015-02-23T13:50:52Z</time>
      </trkpt>
      <trkpt lat="46.64145" lon="12.32924">
        <ele>2041.98</ele>
        <time>2015-02-23T13:50:53Z</time>
      </trkpt>
      <trkpt lat="46.64143" lon="12.32922">
        <ele>2041.02</ele>
        <time>2015-02-23T13:50:54Z</time>
      </trkpt>
      <trkpt lat="46.6414" lon="12.32922">
        <ele>2040.05</ele>
        <time>2015-02-23T13:50:55Z</time>
      </trkpt>
      <trkpt lat="46.64136" lon="12.32923">
        <ele>2038.61</ele>
        <time>2015-02-23T13:50:56Z</time>
      </trkpt>
      <trkpt lat="46.64133" lon="12.32924">
        <ele>2036.69</ele>
        <time>2015-02-23T13:50:57Z</time>
      </trkpt>
      <trkpt lat="46.6413" lon="12.32924">
        <ele>2035.73</ele>
        <time>2015-02-23T13:50:58Z</time>
      </trkpt>
      <trkpt lat="46.64124" lon="12.32923">
        <ele>2032.36</ele>
        <time>2015-02-23T13:51:00Z</time>
      </trkpt>
      <trkpt lat="46.64121" lon="12.32925">
        <ele>2030.92</ele>
        <time>2015-02-23T13:51:01Z</time>
      </trkpt>
      <trkpt lat="46.64118" lon="12.32925">
        <ele>2029.96</ele>
        <time>2015-02-23T13:51:02Z</time>
      </trkpt>
      <trkpt lat="46.64113" lon="12.32923">
        <ele>2027.08</ele>
        <time>2015-02-23T13:51:04Z</time>
      </trkpt>
      <trkpt lat="46.6411" lon="12.32924">
        <ele>2026.12</ele>
        <time>2015-02-23T13:51:05Z</time>
      </trkpt>
      <trkpt lat="46.64108" lon="12.32924">
        <ele>2024.67</ele>
        <time>2015-02-23T13:51:06Z</time>
      </trkpt>
      <trkpt lat="46.64101" lon="12.3292">
        <ele>2021.79</ele>
        <time>2015-02-23T13:51:09Z</time>
      </trkpt>
      <trkpt lat="46.64096" lon="12.32928">
        <ele>2018.43</ele>
        <time>2015-02-23T13:51:12Z</time>
      </trkpt>
      <trkpt lat="46.64095" lon="12.32929">
        <ele>2017.46</ele>
        <time>2015-02-23T13:51:13Z</time>
      </trkpt>
      <trkpt lat="46.64092" lon="12.32931">
        <ele>2016.5</ele>
        <time>2015-02-23T13:51:14Z</time>
      </trkpt>
      <trkpt lat="46.64089" lon="12.3293">
        <ele>2015.06</ele>
        <time>2015-02-23T13:51:21Z</time>
      </trkpt>
      <trkpt lat="46.6408" lon="12.32921">
        <ele>2011.7</ele>
        <time>2015-02-23T13:51:27Z</time>
      </trkpt>
      <trkpt lat="46.64075" lon="12.32925">
        <ele>2011.22</ele>
        <time>2015-02-23T13:51:36Z</time>
      </trkpt>
      <trkpt lat="46.64075" lon="12.3292">
        <ele>2011.22</ele>
        <time>2015-02-23T13:51:58Z</time>
      </trkpt>
      <trkpt lat="46.64073" lon="12.32918">
        <ele>2011.22</ele>
        <time>2015-02-23T13:52:22Z</time>
      </trkpt>
      <trkpt lat="46.64071" lon="12.32918">
        <ele>2011.22</ele>
        <time>2015-02-23T13:52:46Z</time>
      </trkpt>
      <trkpt lat="46.64073" lon="12.32917">
        <ele>2011.7</ele>
        <time>2015-02-23T13:53:14Z</time>
      </trkpt>
      <trkpt lat="46.64075" lon="12.32916">
        <ele>2011.22</ele>
        <time>2015-02-23T13:53:38Z</time>
      </trkpt>
      <trkpt lat="46.64075" lon="12.32917">
        <ele>2011.22</ele>
        <time>2015-02-23T13:53:41Z</time>
      </trkpt>
      <trkpt lat="46.64067" lon="12.32931">
        <ele>2006.89</ele>
        <time>2015-02-23T13:53:47Z</time>
      </trkpt>
      <trkpt lat="46.64058" lon="12.32937">
        <ele>2002.56</ele>
        <time>2015-02-23T13:53:51Z</time>
      </trkpt>
      <trkpt lat="46.64049" lon="12.32929">
        <ele>1999.2</ele>
        <time>2015-02-23T13:53:54Z</time>
      </trkpt>
      <trkpt lat="46.64046" lon="12.3294">
        <ele>1998.24</ele>
        <time>2015-02-23T13:54:00Z</time>
      </trkpt>
      <trkpt lat="46.64048" lon="12.32939">
        <ele>1997.76</ele>
        <time>2015-02-23T13:54:24Z</time>
      </trkpt>
      <trkpt lat="46.64045" lon="12.3294">
        <ele>1997.76</ele>
        <time>2015-02-23T13:54:43Z</time>
      </trkpt>
      <trkpt lat="46.64044" lon="12.3294">
        <ele>1997.76</ele>
        <time>2015-02-23T13:55:08Z</time>
      </trkpt>
      <trkpt lat="46.64044" lon="12.3294">
        <ele>1997.76</ele>
        <time>2015-02-23T13:55:30Z</time>
      </trkpt>
      <trkpt lat="46.64046" lon="12.3294">
        <ele>1997.76</ele>
        <time>2015-02-23T13:55:51Z</time>
      </trkpt>
      <trkpt lat="46.64044" lon="12.32942">
        <ele>1998.24</ele>
        <time>2015-02-23T13:56:17Z</time>
      </trkpt>
      <trkpt lat="46.64048" lon="12.32941">
        <ele>1998.24</ele>
        <time>2015-02-23T13:56:35Z</time>
      </trkpt>
      <trkpt lat="46.64047" lon="12.32939">
        <ele>1998.24</ele>
        <time>2015-02-23T13:56:56Z</time>
      </trkpt>
      <trkpt lat="46.64044" lon="12.32934">
        <ele>1997.28</ele>
        <time>2015-02-23T13:57:10Z</time>
      </trkpt>
      <trkpt lat="46.64041" lon="12.32936">
        <ele>1997.28</ele>
        <time>2015-02-23T13:57:39Z</time>
      </trkpt>
      <trkpt lat="46.6404" lon="12.32935">
        <ele>1997.28</ele>
        <time>2015-02-23T13:57:40Z</time>
      </trkpt>
      <trkpt lat="46.64027" lon="12.32936">
        <ele>1993.43</ele>
        <time>2015-02-23T13:57:47Z</time>
      </trkpt>
      <trkpt lat="46.64023" lon="12.32956">
        <ele>1990.07</ele>
        <time>2015-02-23T13:57:52Z</time>
      </trkpt>
      <trkpt lat="46.64028" lon="12.32968">
        <ele>1988.14</ele>
        <time>2015-02-23T13:57:54Z</time>
      </trkpt>
      <trkpt lat="46.64031" lon="12.32981">
        <ele>1986.7</ele>
        <time>2015-02-23T13:57:56Z</time>
      </trkpt>
      <trkpt lat="46.64034" lon="12.33003">
        <ele>1985.74</ele>
        <time>2015-02-23T13:57:59Z</time>
      </trkpt>
      <trkpt lat="46.64046" lon="12.33032">
        <ele>1984.3</ele>
        <time>2015-02-23T13:58:06Z</time>
      </trkpt>
      <trkpt lat="46.64046" lon="12.33066">
        <ele>1982.38</ele>
        <time>2015-02-23T13:58:13Z</time>
      </trkpt>
      <trkpt lat="46.64049" lon="12.33091">
        <ele>1981.9</ele>
        <time>2015-02-23T13:58:23Z</time>
      </trkpt>
      <trkpt lat="46.64049" lon="12.33089">
        <ele>1981.9</ele>
        <time>2015-02-23T13:58:46Z</time>
      </trkpt>
      <trkpt lat="46.64049" lon="12.33088">
        <ele>1981.9</ele>
        <time>2015-02-23T13:59:13Z</time>
      </trkpt>
      <trkpt lat="46.64048" lon="12.33088">
        <ele>1981.9</ele>
        <time>2015-02-23T13:59:29Z</time>
      </trkpt>
      <trkpt lat="46.64047" lon="12.33088">
        <ele>1981.9</ele>
        <time>2015-02-23T13:59:47Z</time>
      </trkpt>
      <trkpt lat="46.64048" lon="12.33087">
        <ele>1982.38</ele>
        <time>2015-02-23T14:00:08Z</time>
      </trkpt>
      <trkpt lat="46.64047" lon="12.33088">
        <ele>1981.9</ele>
        <time>2015-02-23T14:00:29Z</time>
      </trkpt>
      <trkpt lat="46.64047" lon="12.33089">
        <ele>1981.9</ele>
        <time>2015-02-23T14:00:52Z</time>
      </trkpt>
      <trkpt lat="46.64048" lon="12.3309">
        <ele>1981.9</ele>
        <time>2015-02-23T14:01:14Z</time>
      </trkpt>
      <trkpt lat="46.64047" lon="12.33089">
        <ele>1981.9</ele>
        <time>2015-02-23T14:01:34Z</time>
      </trkpt>
      <trkpt lat="46.64047" lon="12.3309">
        <ele>1981.9</ele>
        <time>2015-02-23T14:01:58Z</time>
      </trkpt>
      <trkpt lat="46.64047" lon="12.33089">
        <ele>1981.9</ele>
        <time>2015-02-23T14:02:21Z</time>
      </trkpt>
      <trkpt lat="46.64047" lon="12.33089">
        <ele>1981.41</ele>
        <time>2015-02-23T14:02:40Z</time>
      </trkpt>
      <trkpt lat="46.64048" lon="12.3309">
        <ele>1981.9</ele>
        <time>2015-02-23T14:03:01Z</time>
      </trkpt>
      <trkpt lat="46.64048" lon="12.33091">
        <ele>1981.41</ele>
        <time>2015-02-23T14:03:20Z</time>
      </trkpt>
      <trkpt lat="46.64044" lon="12.33095">
        <ele>1981.41</ele>
        <time>2015-02-23T14:03:39Z</time>
      </trkpt>
      <trkpt lat="46.64045" lon="12.33092">
        <ele>1981.41</ele>
        <time>2015-02-23T14:04:01Z</time>
      </trkpt>
      <trkpt lat="46.64047" lon="12.33104">
        <ele>1971.5</ele>
      </trkpt>
      <trkpt lat="46.6407" lon="12.33146">
        <ele>1960.8</ele>
      </trkpt>
      <trkpt lat="46.64124" lon="12.33232">
        <ele>1949.1</ele>
      </trkpt>
      <trkpt lat="46.64175" lon="12.33284">
        <ele>1936.5</ele>
      </trkpt>
      <trkpt lat="46.64216" lon="12.33371">
        <ele>1929.1</ele>
      </trkpt>
      <trkpt lat="46.64256" lon="12.33457">
        <ele>1912.3</ele>
      </trkpt>
      <trkpt lat="46.64317" lon="12.33519">
        <ele>1894.2</ele>
      </trkpt>
      <trkpt lat="46.64357" lon="12.33606">
        <ele>1869.6</ele>
      </trkpt>
      <trkpt lat="46.64384" lon="12.33718">
        <ele>1864.9</ele>
      </trkpt>
      <trkpt lat="46.64398" lon="12.33862">
        <ele>1857.6</ele>
      </trkpt>
      <trkpt lat="46.64433" lon="12.33991">
        <ele>1848.9</ele>
      </trkpt>
      <trkpt lat="46.64463" lon="12.34095">
        <ele>1831.1</ele>
      </trkpt>
      <trkpt lat="46.64489" lon="12.34166">
        <ele>1817</ele>
      </trkpt>
      <trkpt lat="46.64523" lon="12.34229">
        <ele>1803.3</ele>
      </trkpt>
      <trkpt lat="46.6455" lon="12.34328">
        <ele>1774.1</ele>
      </trkpt>
      <trkpt lat="46.64565" lon="12.3442">
        <ele>1748.8</ele>
      </trkpt>
      <trkpt lat="46.64592" lon="12.34607">
        <ele>1686.7</ele>
      </trkpt>
      <trkpt lat="46.64642" lon="12.34726">
        <ele>1651.5</ele>
      </trkpt>
      <trkpt lat="46.6469" lon="12.34857">
        <ele>1624.2</ele>
      </trkpt>
      <trkpt lat="46.64733" lon="12.34967">
        <ele>1602</ele>
      </trkpt>
      <trkpt lat="46.64811" lon="12.35061">
        <ele>1575</ele>
      </trkpt>
      <trkpt lat="46.64868" lon="12.35076">
        <ele>1566</ele>
      </trkpt>
      <trkpt lat="46.6493" lon="12.35131">
        <ele>1556</ele>
      </trkpt>
      <trkpt lat="46.6497" lon="12.35186">
        <ele>1551.8</ele>
      </trkpt>
      <trkpt lat="46.65038" lon="12.3528">
        <ele>1541.2</ele>
      </trkpt>
      <trkpt lat="46.65086" lon="12.35291">
        <ele>1536.8</ele>
      </trkpt>
      <trkpt lat="46.65132" lon="12.35342">
        <ele>1530.8</ele>
      </trkpt>
      <trkpt lat="46.65167" lon="12.35374">
        <ele>1527.5</ele>
      </trkpt>
      <trkpt lat="46.65215" lon="12.3541">
        <ele>1524.5</ele>
      </trkpt>
      <trkpt lat="46.65264" lon="12.35426">
        <ele>1521.3</ele>
      </trkpt>
      <trkpt lat="46.65323" lon="12.35438">
        <ele>1517.9</ele>
      </trkpt>
      <trkpt lat="46.65383" lon="12.35449">
        <ele>1514.4</ele>
      </trkpt>
      <trkpt lat="46.65461" lon="12.35453">
        <ele>1510.7</ele>
      </trkpt>
      <trkpt lat="46.65523" lon="12.35496">
        <ele>1508</ele>
      </trkpt>
      <trkpt lat="46.65585" lon="12.35484">
        <ele>1503.9</ele>
      </trkpt>
      <trkpt lat="46.65647" lon="12.35436">
        <ele>1499.9</ele>
      </trkpt>
      <trkpt lat="46.65709" lon="12.35456">
        <ele>1495.3</ele>
      </trkpt>
      <trkpt lat="46.65749" lon="12.35404">
        <ele>1492.5</ele>
      </trkpt>
      <trkpt lat="46.65784" lon="12.35349">
        <ele>1490.3</ele>
      </trkpt>
      <trkpt lat="46.65843" lon="12.35314">
        <ele>1486.9</ele>
      </trkpt>
      <trkpt lat="46.65875" lon="12.35259">
        <ele>1483.8</ele>
      </trkpt>
      <trkpt lat="46.65953" lon="12.3518">
        <ele>1478.1</ele>
      </trkpt>
      <trkpt lat="46.66013" lon="12.35172">
        <ele>1474.7</ele>
      </trkpt>
      <trkpt lat="46.66072" lon="12.35148">
        <ele>1471.3</ele>
      </trkpt>
      <trkpt lat="46.66129" lon="12.35104">
        <ele>1467.2</ele>
      </trkpt>
      <trkpt lat="46.66191" lon="12.35128">
        <ele>1464.2</ele>
      </trkpt>
      <trkpt lat="46.66242" lon="12.3512">
        <ele>1460.9</ele>
      </trkpt>
      <trkpt lat="46.66315" lon="12.35139">
        <ele>1460.3</ele>
      </trkpt>
      <trkpt lat="46.66352" lon="12.35182">
        <ele>1460.1</ele>
      </trkpt>
      <trkpt lat="46.66385" lon="12.35213">
        <ele>1458.5</ele>
      </trkpt>
      <trkpt lat="46.66441" lon="12.35264">
        <ele>1457.6</ele>
      </trkpt>
      <trkpt lat="46.66479" lon="12.35268">
        <ele>1458.6</ele>
      </trkpt>
      <trkpt lat="46.66533" lon="12.35315">
        <ele>1455</ele>
      </trkpt>
      <trkpt lat="46.66571" lon="12.35342">
        <ele>1453.6</ele>
      </trkpt>
      <trkpt lat="46.66601" lon="12.35374">
        <ele>1452.2</ele>
      </trkpt>
      <trkpt lat="46.66628" lon="12.35381">
        <ele>1452.6</ele>
      </trkpt>
      <trkpt lat="46.66644" lon="12.35401">
        <ele>1451.5</ele>
      </trkpt>
      <trkpt lat="46.66644" lon="12.35401">
        <ele>1451.5</ele>
      </trkpt>
      <trkpt lat="46.66644" lon="12.35401">
        <ele>1451.5</ele>
      </trkpt>
    </trkseg>
  </trk>
</gpx>